GFSMW_500_rhum_000.txt.gz
RH
35 32 28 23 18 14 6 3 3 4 5 6 6 6 7 7 7 7 7 6 6 7 7 7 8 8 6 4 2 1 1 3 6 28 33 36 40 44 48 48 47 48 56
31 27 19 14 7 2 2 4 3 3 3 3 4 5 5 5 5 6 6 6 7 6 6 8 7 7 8 6 3 2 3 13 35 38 42 43 46 50 50 50 51 59 72
25 15 9 1 3 4 3 2 1 0 0 0 0 0 0 1 2 3 3 4 4 5 5 5 6 6 5 6 15 33 40 39 41 44 47 45 45 50 57 60 69 77 85
3 1 4 6 6 5 5 4 4 4 4 4 4 5 6 6 5 4 5 7 9 10 10 9 10 10 20 31 36 38 38 35 42 47 56 59 66 66 57 66 79 90 98
3 7 8 9 10 13 14 14 15 14 14 14 14 13 12 12 13 14 14 16 19 20 22 24 23 23 26 33 40 43 46 48 57 65 67 69 72 74 73 57 86 74 90
10 10 10 10 13 14 16 18 20 21 21 20 20 20 21 22 23 24 25 27 27 27 30 35 40 46 45 44 46 49 55 60 66 70 73 74 76 86 88 73 83 77 79
7 9 11 14 16 18 22 23 26 28 30 32 34 35 36 37 39 40 40 40 38 37 34 33 34 38 38 36 42 41 40 58 53 61 64 71 71 76 71 87 85 77 78
22 24 25 25 27 33 37 36 37 38 39 39 38 37 34 31 28 26 24 23 23 23 23 22 22 21 20 23 30 34 43 47 35 40 66 78 77 94 96 96 94 85 80
34 39 40 43 44 44 42 40 37 32 28 24 22 21 20 19 18 18 18 18 17 17 18 18 19 19 19 21 24 27 32 38 42 45 52 63 78 100 97 100 100 100 71
47 43 40 38 35 31 27 22 20 19 18 17 16 15 14 14 13 14 15 18 20 23 31 37 42 48 50 48 46 44 46 46 49 52 56 60 70 80 85 95 98 100 97
28 25 23 19 17 15 14 15 15 17 18 20 24 25 27 30 37 39 45 45 44 47 46 42 40 41 48 55 52 53 54 55 57 67 67 72 81 92 98 100 100 98 100
17 14 13 12 13 15 18 32 32 34 40 44 48 48 49 48 47 48 48 47 48 49 49 50 48 48 50 53 54 49 48 47 47 51 51 73 96 90 92 98 100 100 100
18 20 25 32 36 36 37 47 46 46 48 51 53 55 58 61 62 63 61 58 54 52 49 48 46 45 46 48 52 58 57 53 49 42 42 44 56 63 72 74 88 91 95
28 35 37 38 37 30 26 26 24 21 20 25 34 38 41 42 43 46 58 66 64 62 59 56 53 50 48 47 49 49 49 46 45 48 55 61 64 68 73 76 65 69 88
16 12 9 8 8 8 8 8 9 10 11 14 19 22 29 33 34 41 43 48 48 44 48 49 52 52 50 50 50 46 42 40 41 45 46 48 47 51 55 55 43 61 78
10 10 10 10 10 10 10 10 10 11 11 12 12 15 21 27 31 36 37 39 45 50 51 50 52 52 50 49 48 46 42 40 36 35 34 34 34 37 38 52 74 70 64
11 13 13 13 12 12 12 12 12 12 13 13 17 24 26 26 29 41 45 44 48 49 51 55 56 56 58 59 54 49 46 42 39 35 32 29 30 34 36 42 53 73 46
14 15 16 16 15 15 15 15 15 16 16 16 22 30 52 60 65 64 60 62 70 64 55 51 58 69 70 64 56 49 44 40 37 33 31 29 27 29 37 36 33 35 41
18 18 18 17 15 13 13 14 14 14 15 26 50 67 79 88 86 80 79 77 75 80 79 75 74 75 72 62 49 36 29 26 23 20 19 19 21 25 25 26 30 51 76
19 18 17 14 12 11 12 12 17 36 60 78 89 88 95 88 72 77 88 90 94 89 83 75 70 57 44 36 32 25 19 15 14 16 16 18 22 23 27 20 33 83 96
18 15 12 11 11 14 20 33 56 84 88 96 100 100 96 90 90 89 90 87 81 77 71 65 57 50 40 29 20 15 13 12 12 13 14 14 16 23 23 28 67 100 100
12 10 9 11 24 46 69 82 88 93 94 97 99 100 100 96 88 78 70 61 53 46 41 34 26 20 15 11 9 10 10 11 12 15 17 17 25 38 43 61 77 100 100
7 11 24 48 82 98 97 98 100 90 87 93 92 81 66 50 43 38 32 27 23 19 16 13 11 10 8 8 7 10 7 8 11 29 57 51 59 54 50 58 71 100 100
29 41 79 100 100 100 100 94 89 89 87 70 52 48 47 48 40 30 24 20 16 13 10 9 8 7 6 5 5 8 7 6 14 34 78 82 73 58 54 56 57 99 100
67 98 100 100 100 89 86 92 84 66 53 52 54 54 44 33 28 23 20 16 10 8 6 5 5 4 4 4 5 6 6 6 16 29 81 94 84 63 55 60 83 100 100
79 98 100 86 78 88 97 80 61 54 54 55 45 34 29 27 26 23 15 9 8 8 9 8 6 5 5 5 5 5 5 6 16 38 83 91 74 68 63 77 90 98 100

GFSMW_500_rhum_003.txt.gz
RH
44 39 37 35 31 25 16 8 3 0 2 2 2 3 3 3 3 4 5 5 5 5 6 6 7 7 7 7 8 7 5 4 3 5 12 28 38 38 39 42 48 54 59
40 37 32 29 19 10 4 0 1 1 1 0 0 0 0 0 0 0 0 0 1 2 2 3 3 3 4 4 5 5 4 5 10 24 32 28 32 38 44 53 63 68 68
35 35 27 8 2 1 2 3 3 2 2 2 3 5 5 6 6 5 6 7 7 7 8 10 11 14 16 19 26 30 35 36 38 37 34 36 41 47 59 66 74 73 74
36 25 6 0 1 4 6 8 9 10 10 11 12 12 13 14 14 15 16 17 19 20 21 21 21 21 21 21 24 26 30 36 42 57 66 62 62 57 43 70 75 68 74
9 2 1 5 10 12 12 11 11 12 14 17 18 18 18 18 19 20 23 25 29 31 35 37 39 39 39 39 39 40 42 49 50 52 55 55 72 76 40 16 49 51 80
3 6 8 9 10 10 12 15 18 20 20 20 19 21 23 27 31 33 34 35 35 35 34 32 30 28 27 25 24 23 23 24 24 25 33 40 32 48 49 25 24 33 62
4 8 11 16 20 21 21 22 25 28 30 34 36 36 34 31 27 24 22 22 22 23 24 23 22 22 22 22 23 22 21 25 44 51 47 47 60 73 73 53 47 40 44
22 24 28 32 35 38 38 39 38 34 28 24 20 18 16 16 16 16 16 16 16 16 16 16 17 18 19 20 24 25 28 31 39 62 71 81 84 84 84 81 84 78 80
40 43 42 36 32 30 27 23 19 16 14 14 12 13 13 15 18 21 23 27 30 30 33 34 36 42 46 45 43 47 52 56 57 57 67 77 76 85 84 90 100 97 83
38 31 26 23 19 18 17 15 14 15 18 21 25 30 35 41 43 45 48 48 50 49 50 49 48 49 52 52 51 50 48 47 46 45 46 47 57 78 82 86 90 99 100
26 24 20 15 15 15 21 31 32 32 33 28 20 16 17 18 16 17 22 30 37 44 50 56 61 66 68 67 64 63 61 59 54 51 49 50 54 55 60 72 66 84 89
18 17 18 30 32 29 20 11 6 6 6 7 7 7 7 7 8 8 9 11 13 21 27 33 37 39 48 60 68 68 68 66 64 62 61 59 57 53 52 53 60 69 82
34 43 46 37 14 7 6 7 8 9 9 10 9 9 9 10 10 10 10 11 13 16 23 34 41 46 61 73 73 73 67 68 69 66 62 59 55 51 48 46 45 41 38
35 21 13 10 9 8 9 10 12 12 11 11 12 12 13 14 14 14 14 14 16 17 28 39 44 51 55 58 65 67 68 67 70 70 68 62 57 52 47 44 40 39 41
13 13 13 12 12 12 14 14 14 12 12 12 13 13 13 13 13 13 14 15 18 23 37 47 48 61 83 90 95 91 79 70 65 66 65 61 61 56 52 48 44 39 43
14 14 14 16 17 17 16 15 14 14 15 16 17 16 14 13 12 12 12 13 22 51 69 91 97 93 88 82 81 78 76 86 80 75 77 77 73 66 59 52 44 38 36
18 20 20 20 19 18 18 17 17 17 17 16 16 15 14 12 10 11 17 33 50 66 68 66 68 82 80 73 79 79 79 88 96 94 90 87 76 61 49 43 34 31 28
22 22 20 20 21 20 19 18 17 16 15 14 12 10 11 14 21 36 54 66 78 86 92 96 96 86 76 86 98 98 98 98 95 88 76 64 55 44 36 32 27 23 22
23 24 23 21 18 16 17 17 16 15 13 10 11 17 30 46 59 66 72 74 73 73 73 77 77 81 78 77 76 74 71 69 67 69 62 56 51 44 30 25 22 17 15
25 22 20 18 17 17 15 12 10 9 8 12 22 42 64 73 74 74 72 74 75 70 67 64 60 55 50 48 41 41 42 41 38 35 30 25 20 17 15 15 14 13 14
22 20 18 17 13 12 11 10 10 12 21 42 68 76 77 72 71 67 64 55 45 37 30 24 22 20 18 16 16 15 14 13 12 12 12 12 11 12 14 16 15 14 13
20 18 17 15 12 12 14 23 34 53 71 77 71 70 68 66 62 50 41 39 38 31 26 23 21 18 16 14 12 11 9 8 7 7 8 8 7 10 10 12 11 29 41
20 19 15 12 14 27 42 48 61 76 75 70 74 74 66 52 42 42 46 44 40 36 31 24 18 14 11 7 6 6 5 5 5 4 5 5 7 7 9 12 32 70 81
16 12 11 16 38 52 66 75 83 81 73 71 71 60 51 50 51 46 44 40 37 31 24 16 11 8 6 7 6 6 6 5 5 4 5 5 6 7 15 26 65 71 62
12 11 19 39 55 69 86 96 92 82 79 70 66 64 60 50 44 42 38 32 25 18 11 9 8 7 8 9 8 7 6 5 5 5 6 6 6 13 41 57 72 56 61
12 15 35 54 73 87 94 91 85 80 71 63 59 55 47 38 30 25 19 14 10 10 12 17 15 12 10 9 9 8 6 5 6 6 5 4 12 36 48 67 67 78 71

GFSMW_500_rhum_006.txt.gz
RH
62 56 45 40 37 36 33 27 18 8 1 1 1 0 0 0 0 1 1 1 2 2 3 3 4 4 4 5 4 4 4 5 5 4 5 5 6 17 39 40 38 40 45
55 48 43 38 34 32 25 13 5 1 3 3 2 3 5 6 7 8 10 11 11 13 15 16 17 20 22 24 23 22 22 21 25 24 23 23 32 42 44 48 55 62 64
44 40 37 37 36 28 9 1 2 4 5 8 10 11 12 15 18 19 18 18 18 18 18 19 21 24 27 31 35 38 39 39 42 44 43 40 39 46 67 68 71 74 77
39 39 36 32 24 7 1 6 9 10 10 10 13 17 19 19 19 20 22 26 28 30 30 31 31 31 32 34 33 32 30 29 28 29 32 32 29 26 23 44 57 57 68
32 26 14 5 3 5 9 9 10 14 18 19 20 22 24 30 32 33 32 30 28 25 24 23 22 22 23 23 24 24 23 23 22 23 24 24 25 32 39 29 56 72 76
17 8 5 6 6 7 12 23 29 35 36 34 33 33 30 26 22 18 16 17 18 18 17 17 17 17 17 17 17 17 18 18 19 22 34 46 51 58 72 75 71 78 93
3 4 4 10 20 30 39 38 38 36 32 28 24 19 15 13 12 13 16 20 24 26 28 28 30 31 34 36 38 40 44 47 47 49 52 66 78 84 86 90 87 92 86
6 13 25 41 43 39 35 33 29 25 21 17 15 14 16 22 28 30 26 21 17 13 9 6 6 7 9 15 22 28 36 43 50 54 58 59 59 62 70 80 80 79 86
19 41 41 39 33 31 27 24 20 17 16 19 26 28 23 13 7 7 7 7 7 7 8 8 8 8 8 9 9 10 11 13 14 21 33 44 51 63 68 71 75 77 68
45 41 37 32 27 24 19 18 20 25 24 11 6 6 8 9 10 9 8 8 8 9 9 10 11 11 12 12 12 13 16 20 22 27 37 49 65 76 79 76 78 82 78
37 32 27 23 23 22 27 31 28 11 8 9 9 10 11 11 10 9 9 10 11 11 11 11 11 11 12 13 15 16 19 24 35 47 60 69 83 82 81 77 74 71 69
26 25 26 31 37 35 23 13 11 11 12 13 13 13 13 12 11 11 12 12 12 13 14 15 14 13 13 13 17 23 31 46 57 67 74 83 88 81 78 74 72 69 69
29 26 32 38 22 14 13 13 14 14 16 16 16 15 14 14 14 14 14 13 14 15 15 15 15 14 14 14 22 40 63 72 89 98 94 88 86 87 89 86 83 84 82
36 28 18 15 14 15 17 19 20 20 19 17 17 17 16 15 14 12 12 13 14 15 15 12 12 13 18 33 53 63 79 88 89 87 88 95 99 97 95 97 98 100 100
16 17 17 18 20 21 22 23 22 20 20 20 18 15 13 12 11 11 11 12 10 8 8 9 12 18 30 57 86 94 92 100 100 100 100 100 100 100 100 99 94 100 100
24 24 25 26 26 25 24 23 22 22 21 18 15 12 9 9 9 9 8 7 7 8 8 13 28 48 63 71 80 86 83 89 88 87 96 100 100 100 100 100 99 98 93
27 26 24 24 24 24 23 23 23 20 15 12 10 8 8 8 7 8 8 8 10 16 36 51 54 58 61 64 64 60 57 54 53 54 54 56 61 68 73 79 80 76 67
24 26 28 27 26 26 25 20 17 13 10 9 8 8 8 8 10 12 19 32 41 46 45 45 44 41 40 36 31 28 24 20 18 16 16 17 20 22 26 36 46 48 44
32 32 32 30 26 22 18 15 11 10 10 10 10 9 10 17 30 42 51 48 46 44 40 34 31 30 28 26 26 24 20 19 16 14 12 11 11 11 12 13 15 18 19
34 31 28 24 20 18 13 11 12 12 12 11 12 20 40 54 59 59 58 49 38 33 36 38 43 39 30 28 26 25 23 18 14 11 10 10 9 9 9 9 9 10 10
30 25 23 22 20 14 14 14 14 14 13 18 37 54 63 70 74 71 63 55 55 50 49 45 35 30 26 23 22 19 16 12 9 7 6 5 5 6 6 6 6 7 8
26 26 26 23 17 17 16 16 15 15 23 39 56 69 78 85 78 71 66 54 44 37 34 29 24 21 19 17 15 13 9 7 7 6 6 5 5 5 5 5 5 6 7
28 27 25 20 20 19 18 17 16 22 42 60 74 81 81 76 70 55 45 38 31 24 20 18 16 14 12 10 10 9 9 11 11 9 8 6 5 5 5 6 7 7 8
30 29 25 24 22 20 18 15 20 44 61 67 75 81 78 64 52 39 27 21 19 17 13 10 9 9 9 12 15 15 16 13 10 9 9 6 5 5 6 8 9 14 17
34 30 27 23 20 18 17 23 44 58 70 80 81 68 55 38 25 20 19 16 11 10 9 11 12 15 18 23 22 17 12 9 9 9 10 6 6 6 8 9 22 28 31
34 29 24 22 19 17 27 42 59 71 77 74 62 39 24 20 19 16 11 10 13 18 23 32 34 32 26 19 15 11 9 14 11 11 9 5 7 8 9 23 32 34 69

GFSMW_500_rhum_009.txt.gz
RH
44 54 63 64 55 48 40 38 36 31 22 11 4 2 2 2 2 6 10 11 14 17 17 17 18 19 20 22 24 26 28 31 34 33 35 35 35 34 35 40 44 47 52
44 52 60 53 46 42 38 35 32 25 9 1 2 5 7 11 13 16 19 20 20 22 24 26 28 30 30 32 32 32 32 32 33 32 30 28 32 41 49 54 59 64 67
48 52 50 45 40 36 34 26 20 9 1 6 8 10 12 17 22 25 30 32 32 32 31 29 28 26 22 22 22 21 19 19 20 20 19 18 17 18 20 24 26 29 29
41 42 40 37 34 27 21 10 4 2 7 10 17 23 27 31 34 35 33 30 26 23 21 19 17 16 16 15 17 19 20 22 20 27 27 25 23 17 14 18 27 55 54
41 41 38 30 24 17 7 3 6 9 21 30 34 35 36 36 32 28 24 21 18 17 16 17 20 22 23 22 20 16 12 12 13 18 26 34 38 42 43 34 37 47 68
32 32 29 20 10 4 5 17 32 35 36 37 35 32 29 25 20 16 15 16 18 18 13 8 7 6 6 6 7 7 8 8 8 8 8 8 9 12 20 21 27 39 48
24 22 17 6 3 15 32 40 39 38 36 35 30 25 20 18 19 19 13 8 8 8 9 8 8 8 8 8 8 8 8 8 9 10 10 10 10 11 12 14 11 15 18
16 14 6 6 26 43 46 41 36 33 28 23 21 20 22 11 6 6 7 9 9 10 10 9 9 9 10 10 11 11 12 12 12 11 11 11 13 16 22 26 32 23 26
8 5 12 38 48 46 39 35 29 25 21 22 29 21 9 10 10 10 11 12 12 12 12 12 12 13 13 13 13 12 12 12 13 13 14 16 17 19 28 42 54 82 54
16 39 47 48 44 35 28 25 25 31 31 21 13 12 12 11 12 13 15 15 16 16 16 15 14 12 11 10 10 10 12 13 13 13 14 16 21 25 41 65 87 100 100
46 45 42 36 29 25 32 48 40 22 14 12 14 15 16 19 20 19 18 18 18 15 13 11 8 7 6 7 8 8 8 8 8 10 14 17 25 34 59 90 100 100 100
37 33 35 33 31 41 42 31 18 14 15 18 19 20 22 22 21 21 20 18 15 12 9 8 7 7 7 7 6 6 7 7 9 12 19 30 32 46 72 90 98 99 100
36 36 37 37 27 20 16 15 17 19 20 22 23 24 23 23 22 20 17 13 9 9 9 8 8 7 7 7 7 9 10 15 33 44 52 61 74 81 94 99 99 100 100
38 25 14 14 17 22 22 21 20 23 25 25 24 24 23 21 18 14 10 10 10 9 8 7 7 7 8 11 14 24 33 42 54 61 73 81 87 90 89 92 93 94 94
15 18 24 26 24 23 25 27 28 28 27 26 25 22 19 15 11 12 12 10 8 8 7 8 9 13 21 37 39 37 37 39 42 42 38 35 33 34 31 28 26 27 32
28 28 26 27 29 33 32 31 30 29 26 23 20 16 13 13 14 12 10 9 9 8 9 15 27 39 46 45 43 39 31 30 31 31 31 27 26 24 23 22 22 20 17
29 31 32 34 34 34 32 30 28 25 23 22 17 16 16 15 12 11 11 10 10 14 29 49 59 60 58 50 38 35 31 27 24 23 21 21 20 19 18 17 16 14 13
34 36 35 34 31 31 30 27 26 25 23 19 18 18 15 13 13 12 11 12 21 41 60 71 75 73 66 52 39 30 26 24 22 21 19 17 16 16 14 13 11 9 8
35 34 32 33 32 30 28 28 27 24 22 21 19 16 15 14 13 12 17 36 50 60 70 72 66 58 49 40 35 30 24 18 15 13 12 11 10 10 9 8 6 5 5
38 37 34 32 31 31 31 29 27 25 24 22 20 18 16 13 12 23 43 61 67 67 66 60 50 41 34 26 19 15 12 8 7 6 6 7 8 8 7 6 5 4 4
38 36 35 34 35 35 33 30 27 26 25 23 20 17 12 15 34 52 63 62 56 47 34 25 20 18 15 12 9 8 9 10 9 8 9 11 12 11 10 9 6 5 4
40 39 40 39 38 36 33 31 28 27 25 21 16 13 17 38 52 56 48 31 22 20 19 17 14 10 8 11 12 11 14 18 22 20 20 18 14 12 11 8 6 5 5
50 47 44 43 42 38 35 33 29 25 20 16 13 20 43 53 47 29 22 20 19 18 13 9 8 9 16 14 11 12 14 17 18 19 17 16 18 16 11 7 5 6 6
58 55 51 48 44 40 35 30 24 19 15 12 18 38 48 39 25 23 21 19 16 10 9 11 15 16 11 9 8 9 11 14 18 20 22 22 18 13 9 6 7 9 10
63 58 55 50 44 40 31 22 17 15 12 19 36 48 42 28 26 23 20 16 10 12 13 18 15 11 9 8 8 8 10 13 12 14 17 15 11 10 6 7 11 13 15
66 62 56 50 42 28 21 19 15 12 18 29 48 48 33 29 28 23 18 10 12 14 17 15 12 11 10 9 9 10 13 28 18 11 9 7 8 7 6 11 14 30 32

GFSMW_500_rhum_012.txt.gz
RH
43 26 14 29 50 63 56 56 46 40 38 35 30 21 7 2 3 5 8 10 16 20 21 23 28 32 34 35 33 30 27 25 22 19 18 17 18 18 19 19 20 20 21
12 24 40 46 61 62 57 49 43 39 35 31 20 5 4 8 9 11 16 22 26 31 35 36 34 30 26 22 18 16 15 15 18 15 13 13 14 16 22 31 34 39 39
31 36 46 52 54 52 46 40 37 34 22 10 3 6 9 13 20 25 29 35 38 37 33 28 23 19 17 17 17 15 13 11 9 8 7 6 6 6 6 6 7 9 16
44 47 49 49 43 37 36 32 26 16 5 5 8 14 26 31 36 40 40 38 35 29 22 19 18 14 10 8 8 8 8 8 9 9 11 10 9 8 7 8 8 9 10
31 39 43 40 37 29 28 23 8 4 6 16 30 34 40 43 42 39 34 25 20 17 12 8 8 8 9 9 10 10 10 10 10 10 11 12 13 13 12 10 10 10 10
23 22 23 25 26 27 18 5 4 8 21 30 37 40 39 36 30 24 20 14 9 8 9 11 12 13 13 13 12 13 13 13 13 13 12 10 9 8 9 9 8 8 8
17 19 20 22 21 13 6 4 17 28 37 44 44 38 29 23 26 25 14 11 11 14 16 16 17 17 17 16 16 16 15 13 10 8 7 7 7 7 6 6 6 6 6
16 17 17 16 12 6 8 23 38 45 48 42 34 25 26 27 16 12 12 14 15 17 19 20 20 20 20 19 15 12 9 8 8 8 8 8 7 7 7 7 8 7 7
12 11 9 7 10 22 39 48 47 44 34 25 28 32 18 13 12 14 17 18 19 20 21 22 22 20 16 13 11 10 10 10 9 8 8 7 6 6 7 10 12 17 12
8 10 14 28 49 51 47 44 35 28 30 34 31 16 15 19 20 19 18 20 22 23 22 20 18 16 14 13 12 11 10 9 8 8 7 7 7 8 11 18 30 41 56
17 30 50 54 46 39 34 34 35 34 28 17 18 21 19 18 18 19 20 21 22 21 20 18 17 15 13 12 11 10 9 8 7 7 8 10 16 25 37 47 59 64 72
54 57 46 38 35 37 39 34 18 18 22 22 21 21 23 23 23 23 23 22 21 20 17 15 15 13 12 11 10 8 6 6 7 13 25 34 39 37 38 42 43 43 44
49 39 38 40 44 29 16 23 25 23 23 22 21 23 23 24 23 23 22 22 19 17 17 15 13 12 10 8 6 6 6 13 32 52 57 54 50 42 43 40 35 35 36
41 46 51 30 16 24 25 24 24 22 21 22 24 25 25 24 25 24 22 20 19 17 15 13 12 9 7 6 7 17 35 56 69 79 76 72 66 56 48 45 45 44 41
54 32 17 22 27 25 24 25 23 24 28 29 27 26 26 27 25 24 22 20 18 15 14 12 8 7 8 18 30 40 50 63 69 66 60 54 46 39 33 30 27 26 24
15 20 25 26 26 26 29 31 33 32 31 29 30 30 29 27 26 23 21 18 15 14 11 9 7 10 25 37 40 46 43 44 42 40 39 38 36 31 27 21 17 16 15
20 26 29 31 34 36 38 37 34 33 32 34 32 30 30 28 26 22 19 17 14 12 9 9 16 26 31 25 20 17 16 16 16 15 13 11 10 8 8 7 7 7 7
29 32 36 39 42 41 39 37 37 38 37 36 34 33 31 29 24 20 17 16 12 9 10 18 25 23 20 17 14 15 13 9 6 7 9 11 9 8 8 8 7 8 7
36 40 45 45 45 44 44 44 44 42 41 40 38 34 31 27 22 20 17 12 9 12 24 27 24 21 16 14 11 7 6 9 12 13 9 9 10 15 20 21 19 15 13
46 49 51 52 53 52 52 51 49 48 46 42 38 34 30 26 22 17 12 9 14 28 30 28 24 19 14 9 8 10 13 10 9 7 8 10 10 13 18 21 20 17 14
47 51 52 54 53 52 52 53 55 52 47 42 38 34 30 25 17 13 10 17 34 34 32 29 22 16 11 8 12 13 10 10 7 7 8 10 10 10 11 14 16 14 12
48 51 53 50 49 50 58 61 56 52 46 42 38 34 25 18 14 12 20 42 42 36 36 29 20 14 8 9 10 10 10 10 10 9 11 12 10 12 16 16 14 12 10
47 51 51 51 57 69 66 60 56 51 46 42 36 26 20 16 13 23 44 48 42 40 35 25 17 9 8 7 8 9 9 10 11 11 26 29 12 11 12 11 10 8 6
54 53 58 70 75 70 64 59 54 49 46 38 29 23 18 15 24 45 55 49 43 40 29 19 14 8 10 8 8 8 8 10 8 10 30 35 28 10 6 7 8 6 11
58 69 76 76 75 70 63 57 52 49 40 32 25 19 15 23 38 50 54 50 44 35 23 16 8 11 11 9 9 9 9 10 8 8 17 34 34 10 7 9 6 11 16
74 78 80 78 72 64 58 54 50 41 32 26 19 15 19 34 46 48 52 50 42 29 21 9 10 14 10 9 9 9 10 11 10 9 13 35 25 6 7 7 13 20 56

GFSMW_500_rhum_015.txt.gz
RH
45 53 52 48 23 11 22 54 63 62 52 44 41 39 36 24 13 4 7 9 11 14 19 24 30 37 39 36 29 21 16 15 14 12 11 8 8 7 7 7 8 8 9
45 46 27 11 33 41 50 62 63 55 49 45 41 34 17 7 4 9 12 19 26 32 37 41 39 33 24 19 15 12 9 8 9 8 7 7 7 8 8 9 9 10 11
28 14 22 31 44 61 60 57 52 47 44 39 22 8 6 8 10 18 30 36 42 45 41 31 22 16 12 8 8 9 10 12 13 13 12 11 11 10 12 12 13 13 12
20 23 41 46 47 48 49 44 48 47 31 16 6 6 10 19 30 38 43 45 40 31 23 17 11 10 12 13 15 16 16 16 17 18 18 18 17 16 14 14 13 11 9
22 24 35 44 46 42 44 47 41 28 12 4 5 12 29 40 46 48 40 28 24 24 19 14 12 13 14 14 16 18 20 20 20 20 19 18 15 11 11 14 12 11 10
25 24 24 29 33 37 36 33 23 14 4 5 19 34 44 48 45 34 26 25 22 14 14 17 19 18 16 17 20 21 21 20 18 16 14 13 13 13 12 12 12 11 10
17 18 19 19 23 25 21 16 11 6 8 19 40 50 48 37 29 30 25 14 15 20 21 18 15 15 16 19 20 20 20 19 17 15 15 14 12 11 10 9 9 9 9
21 20 18 18 17 14 10 8 9 19 34 52 51 42 29 30 34 23 16 20 21 19 17 16 15 16 18 20 20 20 19 18 16 14 13 12 10 8 7 6 6 5 5
17 15 13 13 11 10 10 20 44 53 49 39 32 31 33 27 19 21 21 21 18 16 15 15 18 21 21 21 20 19 18 16 14 12 11 8 7 7 5 6 10 22 17
8 9 12 12 14 26 50 56 52 39 36 38 32 22 20 22 22 20 18 17 16 16 16 20 21 22 22 21 20 19 16 14 12 10 8 7 6 4 5 15 42 64 69
14 16 22 28 54 64 55 43 38 40 29 20 24 24 22 20 18 18 18 18 19 21 22 23 24 24 23 21 18 16 13 12 9 8 6 5 4 8 15 30 53 72 81
22 32 51 68 62 44 41 45 32 21 25 25 23 20 18 19 22 22 23 23 24 25 26 26 25 24 21 18 15 14 11 9 8 6 4 6 14 24 38 48 59 66 67
61 68 62 48 43 50 38 23 26 27 24 21 20 22 24 25 25 26 26 27 29 30 29 26 24 22 19 17 14 11 10 8 6 6 12 16 15 15 16 16 18 24 32
77 55 43 47 51 22 25 25 24 23 24 26 27 28 28 29 31 32 33 34 32 30 28 26 23 21 17 13 11 10 8 8 13 16 13 12 11 9 8 7 7 8 10
52 44 58 33 21 25 23 25 28 30 31 32 33 35 36 36 38 39 38 36 33 31 28 26 23 16 13 11 9 8 12 19 19 14 12 8 5 5 6 7 7 7 7
49 73 46 58 36 23 29 32 36 37 40 40 41 43 42 44 45 45 41 37 35 32 29 21 16 12 10 9 12 22 26 23 18 12 7 6 8 9 8 6 5 6 7
78 83 52 24 29 34 39 43 44 45 46 47 46 46 48 52 51 47 41 38 35 29 22 16 13 10 9 19 29 32 28 20 14 7 6 9 9 8 6 5 5 6 8
69 31 28 33 40 45 46 46 47 50 51 50 50 52 57 56 51 45 42 38 30 22 17 14 10 10 23 30 35 32 22 15 8 6 8 9 8 8 8 6 6 7 9
33 30 36 45 46 46 47 49 53 53 53 54 57 59 59 54 48 45 39 29 21 16 13 10 11 19 31 39 36 25 17 10 7 8 8 8 9 9 8 7 8 7 11
35 40 46 47 48 48 50 53 55 56 58 61 64 63 56 51 46 38 26 16 12 12 10 11 17 34 41 40 29 20 11 7 9 9 8 8 9 8 8 23 20 7 9
42 46 46 46 48 48 52 56 56 61 62 65 65 58 54 46 35 24 16 14 13 11 12 17 25 42 42 34 23 14 7 11 11 9 9 9 10 9 15 30 30 13 6
44 44 46 48 48 57 58 55 56 61 69 67 60 54 47 34 23 19 17 15 12 13 23 28 38 45 39 28 20 8 11 14 10 9 9 10 11 10 13 26 32 10 6
44 47 47 50 62 57 53 56 66 72 64 59 55 46 34 25 22 19 15 12 14 27 38 44 44 39 33 24 15 8 15 13 9 9 9 11 11 11 12 35 20 6 6
47 47 56 66 60 58 58 64 65 62 58 54 45 34 28 25 20 16 13 14 30 46 53 49 43 36 29 22 9 10 12 8 12 11 10 16 14 11 26 30 8 7 10
48 60 68 63 62 64 63 60 58 52 48 43 35 30 26 21 17 15 13 23 55 59 54 51 42 34 26 17 8 11 9 13 17 10 24 25 13 22 33 11 7 12 58
65 70 65 68 68 63 56 48 42 39 36 34 30 26 22 18 16 14 19 53 62 61 63 52 42 33 24 9 10 10 12 24 18 28 31 18 23 30 9 8 19 82 100

GFSMW_500_rhum_018.txt.gz
RH
49 50 48 41 47 54 55 30 28 38 51 68 66 55 44 42 39 22 10 6 9 11 20 31 36 39 40 35 28 18 12 9 9 10 11 12 13 15 15 17 17 16 16
46 46 42 43 44 45 23 30 44 49 60 66 59 48 44 37 16 8 7 10 13 29 38 41 39 33 25 18 13 11 11 13 14 14 14 13 16 18 18 19 19 19 18
46 45 43 42 28 14 23 59 64 61 61 57 51 46 27 12 7 9 22 36 42 45 40 32 26 23 21 16 13 16 16 12 13 13 14 14 15 15 16 17 17 16 15
47 45 32 15 19 35 43 50 60 65 65 52 40 22 12 8 12 29 38 48 47 38 29 25 25 17 14 18 19 13 11 10 9 11 15 17 16 16 14 15 16 16 17
52 53 37 21 32 43 48 57 62 59 54 35 20 10 9 20 35 49 53 43 33 30 30 22 14 17 20 16 13 13 14 14 15 17 17 18 19 19 18 14 15 16 17
56 55 34 23 32 39 47 54 49 37 25 14 8 10 27 48 54 49 36 31 35 33 18 19 21 18 16 16 17 18 18 19 20 20 20 20 20 20 19 18 16 15 14
38 25 20 21 23 30 34 32 26 18 13 11 16 44 53 51 42 34 39 41 27 20 22 18 17 18 19 19 18 18 20 21 22 22 22 22 20 19 17 14 13 12 10
21 20 21 20 19 23 21 17 13 11 18 33 57 49 38 37 38 34 23 22 23 19 18 20 21 20 19 20 21 22 23 24 24 23 22 20 18 15 13 12 10 9 8
20 21 18 15 16 15 14 12 14 32 56 57 42 40 39 26 23 25 22 19 19 22 23 23 23 23 23 24 25 26 26 25 23 22 20 17 15 13 10 8 7 7 6
9 8 9 10 10 11 14 29 55 58 45 42 39 26 23 26 24 20 20 23 25 25 25 26 27 28 28 28 29 28 26 24 21 19 16 14 10 8 7 6 7 10 13
15 10 11 14 18 26 46 64 51 43 41 27 24 27 26 23 21 25 27 28 28 29 31 31 31 31 33 33 30 28 25 22 19 15 12 9 8 7 6 7 11 11 11
7 10 17 21 38 62 57 45 48 35 25 26 26 24 24 27 28 29 30 32 33 32 32 34 37 38 36 33 30 26 23 18 14 10 9 8 7 6 8 12 12 10 8
14 23 38 55 72 54 46 48 30 24 25 24 24 27 30 31 31 33 35 36 35 36 40 43 43 39 36 33 28 21 16 11 8 8 7 8 7 10 15 13 10 5 5
28 43 64 74 54 48 46 26 26 30 28 27 31 33 35 36 38 40 40 40 42 45 51 49 43 40 32 23 16 13 10 8 8 8 8 8 15 19 13 9 5 6 7
44 69 73 51 59 54 49 63 47 28 32 34 37 38 40 42 43 44 45 47 51 57 54 46 40 28 18 14 12 11 9 8 8 8 9 22 22 14 7 6 7 7 8
70 80 51 61 80 81 66 32 30 36 38 42 42 44 46 47 49 48 50 59 65 57 48 38 26 17 16 15 12 10 9 9 8 12 24 24 17 7 6 9 9 7 8
69 51 66 77 81 60 31 32 38 43 45 45 47 48 50 52 51 56 63 67 57 48 37 25 20 18 14 12 11 10 10 10 17 25 25 19 10 7 9 10 9 8 8
64 80 85 85 46 32 35 41 46 47 47 48 49 55 54 55 62 68 67 57 47 36 26 22 16 14 12 12 12 13 13 20 28 27 21 14 7 11 10 8 8 9 9
78 86 86 64 38 36 43 48 48 47 48 51 59 55 57 65 70 63 55 44 35 28 22 18 15 14 13 13 16 18 23 29 28 24 18 8 10 10 9 8 8 9 9
78 76 68 39 38 45 50 49 48 48 52 64 59 60 66 62 56 50 38 32 27 22 19 17 16 15 14 18 24 29 31 29 26 22 9 9 9 12 13 9 8 9 10
81 50 37 40 47 52 49 47 48 54 66 61 64 64 58 51 39 32 26 15 13 13 15 17 17 14 17 25 32 36 34 30 25 15 7 10 15 20 12 15 16 13 12
37 38 42 47 49 47 47 48 58 66 62 66 60 52 40 33 26 17 14 15 17 17 19 18 16 19 26 36 40 40 34 29 20 7 10 19 20 19 30 26 14 17 24
41 45 45 46 47 48 51 63 66 67 62 52 41 33 26 17 17 18 18 19 20 21 20 18 18 28 36 43 43 36 32 26 8 9 19 23 30 32 27 16 27 17 10
42 43 46 46 48 60 67 67 65 51 40 33 31 20 19 21 20 20 19 22 23 21 18 19 30 39 45 44 38 34 29 15 6 15 23 27 30 24 25 30 12 17 73
44 45 45 59 65 64 65 53 38 32 32 28 23 22 21 20 19 19 21 23 21 18 23 37 45 45 43 38 37 32 21 6 11 23 26 28 28 31 30 10 24 82 95
42 57 64 64 64 55 41 34 32 27 25 24 22 20 19 19 18 20 22 20 18 27 47 52 50 45 41 40 34 24 7 9 21 27 26 26 30 20 8 34 92 99 100

GFSMW_500_rhum_021.txt.gz
RH
38 45 56 62 57 51 45 44 49 56 56 31 23 43 65 67 56 46 42 32 11 8 13 31 40 41 40 33 28 22 21 18 15 15 15 14 12 11 10 10 12 13 15
35 40 54 51 47 47 44 46 45 41 22 34 47 60 65 58 48 44 31 10 8 18 33 43 45 38 31 26 24 22 16 14 18 18 14 12 13 13 14 14 14 15 16
32 34 39 47 47 46 46 39 25 11 68 63 64 63 60 55 45 27 10 8 28 44 50 45 36 32 31 28 20 15 18 20 16 15 15 13 12 11 12 12 15 17 18
27 32 44 48 45 40 26 14 23 33 42 60 68 62 52 40 22 9 9 29 49 52 42 35 36 39 30 18 19 18 16 16 16 16 17 16 15 12 9 13 17 19 19
33 44 46 46 48 46 21 28 40 44 58 64 56 47 31 16 10 12 29 52 50 40 37 43 43 28 21 18 18 21 21 20 18 18 17 16 18 21 20 16 17 17 18
39 45 45 47 55 50 23 31 46 54 56 47 34 22 15 14 24 46 48 41 38 37 33 25 22 20 20 23 23 22 22 20 21 22 21 22 22 22 21 18 17 16 15
36 41 40 49 54 24 22 28 35 36 32 25 18 14 17 33 50 43 40 38 30 24 24 21 20 24 26 26 25 25 25 25 24 25 26 26 26 24 22 20 17 14 13
20 26 35 39 26 20 19 21 22 22 17 15 17 27 54 50 42 39 26 25 26 23 22 26 27 27 28 27 27 28 27 26 29 30 30 29 27 24 20 17 14 13 11
21 19 21 21 20 20 18 17 16 14 16 34 62 53 42 41 30 25 28 26 24 27 28 29 30 30 30 31 31 30 31 33 36 35 32 28 23 18 15 13 11 9 9
22 16 15 12 10 10 10 10 13 22 44 62 47 44 34 26 28 27 24 25 29 31 32 33 34 35 36 35 34 36 40 40 39 34 27 21 18 16 14 11 9 7 7
36 33 27 19 13 10 12 17 29 55 55 47 44 30 27 27 25 26 28 31 34 35 36 37 38 38 38 38 43 47 45 40 33 26 21 18 15 12 10 8 7 7 7
36 30 24 16 8 11 17 38 63 54 47 41 27 25 28 32 28 31 34 36 38 40 42 42 41 40 46 49 51 47 40 31 24 20 16 13 11 9 8 8 8 8 12
30 20 11 11 16 26 46 64 55 49 38 27 35 45 40 29 34 37 38 41 45 46 46 43 44 52 54 53 46 36 27 22 17 13 10 8 8 9 10 10 12 18 17
32 23 16 19 26 39 65 58 55 49 57 64 48 30 31 37 39 41 44 48 49 49 43 49 53 54 52 40 29 21 14 10 8 8 9 10 12 13 12 18 22 18 15
30 14 18 29 46 71 64 58 68 74 66 42 31 34 40 41 43 47 50 52 51 45 51 54 54 46 30 19 12 12 12 11 10 11 13 14 14 14 29 24 19 17 9
28 13 23 41 70 72 57 75 75 67 43 33 38 41 43 44 48 50 55 56 52 56 56 50 36 22 14 14 14 11 10 11 13 14 14 15 23 35 25 21 20 8 7
17 21 38 63 64 64 74 81 71 56 35 39 44 44 46 49 50 57 57 56 58 51 40 27 16 14 16 14 12 12 13 16 16 15 17 29 37 27 23 21 8 7 10
16 45 62 62 62 76 83 83 60 37 39 45 48 47 49 51 60 58 60 52 42 30 19 15 17 16 13 13 13 14 16 16 16 24 38 39 30 27 22 8 8 12 14
51 62 65 70 85 84 86 79 40 42 47 50 49 49 50 62 62 55 43 32 24 16 18 18 15 14 13 14 16 15 15 18 28 41 41 33 29 23 7 9 17 17 19
66 70 76 91 88 87 60 39 46 49 52 51 49 56 62 61 44 32 27 22 20 18 16 15 14 15 14 14 14 15 19 27 38 40 34 33 25 8 10 22 22 25 27
96 94 61 73 75 41 42 47 49 52 50 50 62 63 48 33 26 24 22 19 17 17 16 15 15 15 13 13 17 30 40 42 37 33 30 25 8 8 24 26 26 23 22
64 68 69 42 40 45 46 49 50 48 57 63 58 39 31 25 19 17 18 17 14 15 17 17 15 12 10 18 33 43 41 41 36 31 25 9 6 24 26 26 27 28 20
70 41 40 43 44 46 48 47 48 64 63 47 35 30 21 18 18 18 17 17 18 18 18 16 12 10 18 37 43 39 38 36 33 24 9 5 22 27 24 27 24 9 18
39 40 42 43 44 47 47 63 64 57 39 34 29 20 20 20 20 20 22 20 18 18 17 13 9 20 36 42 38 36 34 29 18 6 5 19 27 26 24 17 8 36 90
48 44 43 44 46 61 69 60 44 36 34 29 22 23 22 20 21 24 22 21 20 18 13 14 24 33 36 37 37 34 26 11 4 6 17 25 29 27 16 9 45 92 95
46 43 46 60 74 66 51 38 34 32 28 24 25 21 20 21 21 21 22 21 20 14 11 24 35 36 38 37 34 22 8 6 14 18 23 26 29 13 10 65 100 99 100

GFSMW_500_rhum_024.txt.gz
RH
27 29 29 29 33 56 62 63 58 49 44 43 46 42 27 27 48 64 64 54 50 46 28 7 6 22 41 47 41 34 30 28 26 22 18 17 18 17 15 15 16 16 15
37 26 32 36 44 53 60 56 53 49 42 40 38 44 54 55 64 61 56 53 44 25 8 7 23 38 45 40 33 34 33 27 20 19 17 17 18 19 19 18 16 16 16
27 26 31 35 38 50 50 48 48 44 41 32 13 19 44 60 62 60 54 41 20 11 10 15 31 44 38 37 38 30 24 21 20 21 21 19 19 18 18 18 18 19 19
32 28 34 33 32 36 45 49 45 42 20 20 34 41 53 61 55 45 30 17 13 14 25 42 41 38 35 26 23 21 20 22 23 23 23 22 20 19 18 20 21 21 22
36 30 30 31 30 42 48 44 48 35 25 38 43 48 49 42 31 24 16 12 30 43 42 40 34 27 26 23 22 24 26 25 26 25 25 27 27 27 23 18 20 21 22
33 31 30 32 41 47 46 49 48 34 26 31 34 37 28 25 19 14 16 28 45 43 34 27 27 26 24 25 27 28 29 30 30 30 31 30 29 27 25 23 22 20 21
32 31 28 36 48 47 40 44 39 25 24 23 23 22 19 16 14 27 48 47 41 28 29 28 26 26 29 30 31 32 31 32 33 34 32 31 31 30 30 28 24 21 21
41 38 22 28 36 37 37 36 23 20 20 21 17 16 13 18 46 50 46 34 28 30 28 27 30 31 33 34 34 35 37 38 36 34 33 32 35 36 35 30 25 21 19
40 44 29 20 18 21 22 20 20 20 16 14 11 12 24 57 51 46 29 30 30 28 30 32 34 35 37 39 41 42 40 35 34 34 37 38 38 32 25 20 16 13 14
46 42 30 22 18 18 17 15 12 10 10 13 24 40 57 50 42 29 29 30 33 34 33 36 38 40 44 45 44 39 36 37 41 41 38 32 24 19 14 11 9 8 8
50 41 35 29 21 20 20 18 15 12 16 32 54 59 48 41 28 28 40 38 32 36 38 41 45 48 50 48 44 42 43 43 39 30 21 16 14 11 8 7 7 8 10
39 38 38 39 38 29 21 16 12 18 36 59 61 50 41 35 48 50 31 34 38 40 43 48 51 53 50 48 47 44 38 26 18 14 12 8 7 8 8 8 9 10 12
40 38 37 34 29 22 13 13 23 36 51 62 58 52 69 71 46 30 36 41 42 46 52 54 54 50 51 46 36 23 17 14 10 8 8 8 9 8 9 9 10 12 14
42 41 39 35 32 23 15 20 37 56 63 62 66 73 70 46 35 38 42 43 48 52 57 54 52 48 35 23 18 16 12 8 8 9 9 10 10 9 10 12 14 16 19
38 39 47 49 37 21 18 30 48 69 64 66 76 74 63 41 38 44 44 49 52 58 54 53 35 24 20 17 13 9 9 9 9 10 11 10 9 11 14 20 23 27 27
46 46 57 50 36 22 17 41 70 66 71 86 81 68 40 39 44 46 49 53 59 57 43 25 21 17 13 10 10 10 10 10 11 10 10 7 8 14 24 28 31 28 24
59 57 66 50 30 22 45 64 66 80 92 89 86 52 41 45 48 49 56 59 56 33 23 16 13 12 12 11 12 12 12 12 12 9 6 8 19 28 30 28 26 23 15
67 75 53 27 18 48 62 75 85 92 91 79 41 43 46 49 49 60 60 50 30 21 15 14 15 13 13 14 14 13 13 13 8 6 12 23 28 31 29 24 21 14 6
66 45 22 28 55 65 71 80 92 90 67 41 46 47 48 50 64 60 41 31 21 16 17 15 12 13 12 14 14 13 12 8 6 14 26 32 30 26 24 19 11 5 22
32 37 57 69 80 89 90 71 79 50 43 46 46 48 53 66 56 37 31 22 18 19 13 12 14 14 15 16 15 12 7 6 13 26 31 29 27 22 13 6 5 21 25
59 84 90 91 82 72 83 69 42 46 45 47 49 66 65 49 35 32 25 22 19 12 13 18 19 17 16 16 12 6 10 22 28 28 25 23 13 6 5 11 26 28 22
68 66 63 71 87 73 42 44 45 45 47 57 72 58 41 33 30 26 24 18 14 16 22 23 19 17 19 13 6 14 26 31 30 26 16 8 7 9 19 28 30 20 14
76 86 79 57 40 42 49 44 46 51 73 70 51 35 32 29 27 23 17 16 19 24 26 22 20 21 16 6 14 25 29 29 20 10 9 14 19 23 28 31 14 25 81
40 38 41 44 50 50 47 46 60 77 62 45 36 33 30 26 20 17 17 22 28 28 26 26 24 21 8 12 25 27 18 8 8 10 17 19 24 26 28 12 50 92 97
62 62 60 53 48 45 50 76 74 60 43 37 34 31 24 20 19 19 24 27 33 32 32 30 24 10 11 24 25 11 9 12 14 18 20 23 25 27 13 72 100 100 100
76 65 52 44 46 70 78 68 56 43 39 36 31 24 21 20 20 22 26 36 40 41 36 22 11 12 26 28 11 14 20 19 20 22 21 24 21 17 91 100 100 100 100

GFSMW_500_rhum_027.txt.gz
RH
36 28 17 24 29 29 38 58 62 68 69 64 54 49 43 41 34 52 61 62 61 56 50 45 30 18 12 9 18 39 43 38 36 36 34 30 24 22 20 21 21 20 20
25 47 27 25 29 32 33 36 58 63 61 60 53 46 40 18 24 45 56 55 53 52 42 27 19 13 10 18 38 41 38 34 32 28 24 22 22 22 23 24 25 25 26
24 32 38 34 28 32 40 48 56 59 53 51 47 39 19 25 40 44 51 55 50 34 23 16 11 20 38 43 40 35 29 24 22 21 22 22 25 26 27 27 28 28 28
30 33 32 30 26 31 36 42 52 47 49 48 44 25 28 39 43 46 46 41 26 20 13 14 31 43 42 31 28 27 24 23 26 28 27 27 25 23 22 25 28 28 27
29 44 36 30 29 34 34 34 36 48 47 47 51 35 28 32 35 32 28 23 16 12 22 44 47 37 29 29 28 26 26 28 30 30 33 34 35 33 27 20 23 26 30
26 35 37 41 30 31 32 34 44 46 47 48 53 34 27 26 25 23 19 14 15 39 49 44 32 31 30 29 30 34 33 34 36 36 35 34 33 32 32 30 28 25 24
27 32 32 38 30 30 34 39 44 45 41 46 43 22 21 22 20 16 13 20 48 51 42 31 32 30 30 33 34 34 37 38 39 40 40 39 38 36 34 31 26 23 21
25 29 28 34 28 24 30 35 40 38 36 31 22 21 18 15 13 13 31 55 53 41 32 32 32 35 37 35 37 39 41 43 45 42 40 40 40 35 28 22 18 14 8
29 27 28 45 36 19 18 23 24 23 21 21 19 13 10 11 21 45 56 53 39 31 32 36 39 36 37 39 42 45 48 44 42 43 40 32 23 16 10 8 7 6 5
27 29 40 48 38 24 20 19 19 18 15 13 11 12 15 30 55 59 53 38 32 40 46 36 36 39 42 48 50 48 43 44 39 29 21 13 10 9 8 8 7 7 6
32 34 43 48 44 32 24 18 18 21 20 17 16 18 33 68 62 56 41 57 64 40 35 38 42 44 52 53 48 45 42 30 20 12 11 11 10 9 7 7 7 7 8
46 51 50 47 42 37 35 34 30 25 20 14 21 38 62 62 63 57 66 67 43 45 40 43 46 54 56 49 46 36 24 13 12 13 12 10 7 7 7 7 7 7 7
41 39 39 39 38 41 37 30 24 22 22 21 24 41 71 66 76 83 74 62 47 42 44 50 57 59 52 43 29 19 14 14 14 12 9 8 7 8 8 7 6 5 4
39 37 39 38 37 40 40 36 31 24 19 22 41 78 70 80 86 85 81 57 44 46 50 61 59 51 36 27 17 16 17 15 11 9 9 9 10 9 8 6 4 5 8
45 44 42 40 42 47 58 50 33 27 24 49 81 73 93 98 94 91 50 45 51 50 64 59 47 33 25 18 19 18 13 11 10 11 13 12 11 8 4 5 8 16 20
62 58 56 57 57 60 64 40 31 32 54 71 69 92 95 98 88 45 55 50 54 68 58 42 31 25 22 21 15 12 10 10 13 15 13 13 9 4 6 14 21 26 28
55 54 58 59 64 76 51 31 29 51 69 74 87 95 97 79 50 58 47 63 68 54 36 31 26 23 17 13 11 11 14 17 18 16 17 9 4 8 16 20 24 23 17
54 51 53 61 83 65 30 26 52 70 75 86 94 93 70 49 50 49 71 65 47 33 29 26 21 17 13 12 14 15 19 18 19 21 9 5 10 17 20 18 12 6 6
53 55 72 66 35 29 47 71 79 94 94 84 87 53 49 49 56 76 60 41 32 29 26 20 18 15 14 15 17 20 19 22 23 9 7 15 15 11 8 7 6 10 23
79 80 60 43 56 79 96 99 93 84 92 62 46 51 47 71 77 56 38 33 30 25 22 18 15 15 16 20 25 24 28 24 10 9 14 9 7 8 9 14 18 25 29
57 43 53 85 92 88 82 82 90 80 44 45 46 49 78 74 52 38 34 31 26 21 18 16 16 20 24 29 29 33 25 10 12 13 8 10 12 15 19 20 25 24 18
83 89 89 76 78 90 92 79 46 43 54 48 54 81 70 48 39 36 31 27 21 18 17 18 21 25 32 35 34 26 11 19 14 10 16 15 18 19 21 23 18 36 99
79 74 84 92 85 47 40 43 55 55 46 71 80 64 47 41 37 32 28 23 19 19 19 20 23 28 31 34 25 10 18 14 9 16 18 19 19 20 23 15 70 97 97
77 72 64 49 48 58 63 58 48 54 81 72 64 49 43 39 35 29 24 20 21 21 22 25 27 29 32 25 9 14 13 8 13 18 19 18 20 19 19 86 96 100 98
43 52 60 72 77 68 50 46 75 76 71 62 50 47 41 36 30 25 22 24 26 27 29 32 34 33 24 10 13 12 7 12 17 18 19 22 19 26 98 100 99 100 100
35 52 65 64 52 44 61 80 71 72 62 54 51 44 38 33 26 25 28 31 32 36 41 42 38 23 8 16 13 7 10 17 18 20 24 18 54 98 100 100 100 100 100

GFSMW_500_rhum_033.txt.gz
RH
23 43 49 44 29 30 33 17 21 29 33 64 67 71 72 74 69 62 53 47 30 26 30 39 44 44 39 34 29 24 20 13 14 31 44 45 43 36 31 28 27 30 37
16 23 46 46 34 28 40 32 17 17 29 35 61 66 73 70 68 57 50 43 26 30 36 38 37 32 30 26 20 12 12 24 43 45 40 35 31 29 29 35 40 41 37
11 16 39 47 36 28 39 34 19 25 32 34 48 63 65 64 64 53 50 50 37 32 36 33 26 28 26 18 11 12 34 42 44 43 39 38 38 45 47 43 38 39 41
13 15 29 45 35 30 40 41 30 39 32 40 41 41 57 65 60 52 49 54 52 41 34 27 28 21 16 10 16 40 50 45 38 36 36 47 58 55 47 42 44 46 44
16 15 36 49 33 29 33 43 47 42 27 36 48 54 56 62 53 48 50 51 51 37 28 26 17 15 11 18 37 51 45 36 35 43 57 55 52 46 47 46 46 43 37
17 14 36 49 30 29 32 38 45 34 29 30 37 46 51 50 45 44 42 46 39 27 24 16 17 16 26 45 52 42 37 51 65 60 58 54 48 55 54 47 39 33 28
21 13 29 53 35 34 46 51 50 41 29 30 36 38 39 39 40 38 36 34 25 20 15 19 19 29 49 55 44 50 73 71 71 68 51 55 60 54 42 34 29 24 17
21 14 40 56 41 36 48 50 50 52 32 23 30 34 33 34 33 29 26 23 17 16 22 19 28 48 60 55 61 73 72 76 63 55 62 59 50 37 27 20 15 12 12
20 14 43 55 43 34 39 40 44 49 35 20 22 24 24 24 23 24 21 17 22 21 18 27 50 62 69 72 74 79 82 60 59 61 60 44 30 22 18 18 19 16 12
22 18 49 52 43 34 35 36 40 47 36 19 18 20 21 22 20 20 23 24 19 23 28 54 64 66 73 78 84 75 57 60 61 59 39 27 21 20 21 17 13 11 10
29 45 57 45 35 34 33 35 50 51 37 23 21 20 19 23 29 26 22 24 28 33 51 62 65 77 89 88 68 66 58 67 55 36 27 23 23 20 15 13 10 11 14
46 61 51 45 39 39 37 51 55 31 29 25 22 28 32 29 28 30 31 33 30 47 59 67 82 93 86 76 69 60 71 51 34 29 25 24 17 15 11 11 14 12 10
61 52 48 42 40 40 46 44 40 35 31 34 36 33 36 43 43 36 30 31 49 59 75 86 97 83 74 70 66 73 47 35 31 27 23 17 13 12 15 13 10 10 10
59 59 54 53 54 58 56 47 41 41 40 40 45 52 53 49 39 32 32 49 65 77 91 94 82 75 63 73 72 46 36 33 29 22 18 15 16 15 12 11 10 9 5
74 75 71 63 59 53 49 46 46 50 53 53 55 58 58 46 33 28 66 76 85 96 93 78 64 54 79 69 46 38 35 28 22 20 19 17 13 12 12 12 8 4 5
77 72 60 55 53 54 56 55 57 58 55 58 68 74 56 29 46 77 90 89 94 81 54 55 56 82 68 45 40 35 28 23 21 19 14 14 14 13 12 6 4 6 6
63 64 64 63 64 68 63 56 53 56 60 71 81 50 36 66 88 94 92 96 53 53 54 58 86 65 46 43 35 28 23 20 16 15 16 15 14 11 4 4 6 7 14
86 85 80 74 65 57 54 54 54 59 73 58 37 56 89 95 97 97 90 49 53 54 68 87 60 47 43 33 26 22 20 18 16 17 16 14 9 4 6 6 7 12 14
93 84 78 73 65 61 58 60 75 62 44 61 88 95 92 96 97 60 49 55 53 80 80 58 50 43 30 26 23 19 11 11 13 16 14 7 4 6 6 8 12 14 17
86 85 78 71 64 63 73 76 62 56 88 91 85 95 100 69 49 57 55 57 87 72 56 52 40 30 27 24 9 9 10 13 14 12 6 4 7 6 12 13 14 17 65
78 71 68 67 75 74 60 49 70 97 92 94 100 67 50 66 65 54 72 82 70 60 51 38 32 30 26 12 11 13 14 13 11 5 5 7 6 12 16 16 24 76 84
71 72 67 54 57 70 87 91 87 88 93 71 55 74 78 61 58 81 80 73 62 50 38 33 31 24 16 12 12 14 16 13 5 6 8 6 11 16 15 34 84 86 90
68 68 75 86 86 79 82 82 71 60 66 78 79 71 50 75 79 82 76 61 51 37 35 31 22 16 14 14 12 14 12 5 6 8 7 10 15 16 57 85 88 88 91
79 79 78 77 62 49 48 50 57 64 73 71 52 58 84 74 86 78 61 51 38 37 33 26 19 14 14 13 12 10 5 6 7 7 9 14 16 60 78 82 85 87 88
48 23 22 23 26 32 43 57 70 70 54 52 87 71 74 86 77 62 50 42 40 34 27 23 17 14 14 12 10 5 7 8 8 7 14 16 61 87 89 86 82 83 70
26 25 30 42 53 66 73 70 52 51 84 92 60 80 87 78 63 50 46 42 35 28 23 18 16 16 15 12 6 8 8 8 7 13 16 60 85 88 88 90 70 32 23

GFSMW_500_rhum_036.txt.gz
RH
13 20 16 20 51 50 45 34 31 30 17 33 38 51 85 77 80 80 78 73 61 52 48 35 28 38 40 39 32 29 30 22 14 12 21 32 42 43 40 38 37 37 43
13 16 12 17 39 55 45 38 32 42 27 21 28 33 66 73 73 81 74 71 58 51 49 45 32 33 36 31 28 28 19 17 12 13 33 46 43 42 37 36 42 52 55
16 14 13 14 21 52 50 42 28 43 36 17 20 30 38 63 69 75 69 66 56 51 51 55 50 42 34 28 26 16 19 15 13 26 39 44 41 39 43 52 52 52 50
19 17 14 14 15 39 49 46 29 30 38 27 34 33 36 43 58 61 59 66 56 52 50 48 48 42 31 25 16 21 16 18 34 40 44 45 50 52 47 57 57 54 56
24 22 17 15 17 24 48 46 32 39 42 37 41 33 42 45 46 55 62 62 53 49 44 40 41 31 24 17 22 19 22 38 48 48 50 63 66 65 56 50 58 60 57
28 27 21 16 15 28 54 49 33 32 40 46 43 28 32 44 50 50 53 52 46 44 39 35 31 22 19 24 21 32 43 56 60 62 68 72 73 75 61 56 53 46 43
24 27 24 19 16 34 56 50 34 31 37 42 39 31 34 35 37 38 39 41 41 40 30 30 22 22 24 24 35 48 57 63 70 77 78 76 67 62 60 57 49 41 34
23 28 26 21 18 36 57 49 41 36 40 50 43 33 28 30 36 38 37 35 32 26 29 23 26 24 29 35 49 56 66 74 76 79 80 70 63 63 61 46 39 28 17
26 28 30 23 19 48 60 50 46 49 55 52 50 42 26 24 27 26 25 23 26 26 26 27 25 33 35 47 58 65 71 80 83 78 70 64 70 58 42 34 26 23 20
26 26 30 26 24 58 58 50 44 45 45 42 48 46 29 19 18 21 22 24 27 28 27 30 35 34 46 56 62 76 83 86 75 66 69 74 54 40 34 29 25 22 19
30 28 29 26 54 64 55 47 44 40 41 42 52 49 30 22 21 21 26 30 30 34 38 36 33 47 54 64 82 87 82 72 62 76 74 50 40 35 29 24 21 18 14
40 35 30 36 67 67 52 44 42 40 42 42 61 41 22 23 27 33 32 36 44 44 34 38 49 62 76 88 88 72 62 62 78 71 47 41 34 26 22 18 13 8 6
49 37 32 38 66 63 54 44 42 43 43 64 34 26 28 37 37 38 50 53 44 40 40 60 78 90 91 76 57 61 60 80 69 47 41 29 23 17 10 7 7 7 6
57 51 49 66 64 55 50 45 43 46 48 32 32 37 40 42 54 62 63 50 44 40 73 91 93 89 55 57 60 62 81 60 48 37 26 14 8 7 6 6 6 5 4
70 73 76 70 57 51 46 48 46 40 38 40 43 45 54 64 75 78 65 41 54 84 98 94 87 50 60 59 67 82 56 50 34 27 19 10 7 7 7 6 5 4 3
83 87 79 67 58 54 55 48 48 47 47 50 57 66 72 82 91 72 39 72 95 98 93 78 51 61 58 76 78 57 48 31 29 22 9 9 9 7 6 5 4 4 6
86 96 95 78 67 59 52 51 52 55 62 64 66 70 76 87 52 52 93 100 95 92 56 56 61 59 81 70 58 42 32 30 15 10 11 10 8 7 5 4 4 6 9
90 92 76 62 58 60 69 70 64 59 59 64 68 79 65 47 83 99 96 99 74 53 64 61 66 84 69 58 42 34 31 21 17 14 12 9 8 6 4 4 5 9 13
75 68 67 78 87 80 71 67 64 64 65 76 76 54 69 98 96 99 88 53 67 70 59 76 82 72 55 41 36 32 25 21 15 10 9 10 8 4 4 6 7 14 17
89 97 100 100 96 82 73 70 68 78 82 70 63 94 99 98 99 61 68 79 64 63 82 83 71 55 40 38 32 25 19 14 10 9 12 9 4 6 6 6 13 25 69
97 98 99 92 85 81 77 85 87 72 64 93 99 94 95 73 68 82 78 57 76 80 82 69 56 42 40 33 26 20 15 11 10 12 9 4 7 7 7 13 23 73 75
93 90 87 88 88 91 76 65 89 97 92 89 85 66 69 80 80 60 64 80 78 82 69 55 45 44 36 28 23 17 13 11 12 8 5 7 7 7 13 20 72 78 79
95 92 81 64 65 89 94 84 87 84 58 50 55 66 76 63 55 86 71 79 82 69 56 49 47 39 29 23 17 12 12 13 7 5 7 8 8 13 21 73 75 80 82
83 85 88 88 84 84 65 39 31 31 41 60 73 68 55 88 80 66 86 82 68 59 55 51 40 29 24 19 14 13 13 7 4 7 8 9 13 22 72 79 79 71 44
97 97 81 41 25 26 29 38 52 65 74 70 52 77 94 64 72 87 80 69 66 62 53 40 30 25 18 15 14 12 6 4 7 8 9 14 39 83 87 78 41 19 16
44 31 27 23 24 32 45 57 69 66 65 80 95 80 62 76 87 77 73 74 68 53 39 30 25 19 17 16 12 5 5 8 9 10 14 54 85 81 46 24 21 28 31

GFSMW_500_rhum_039.txt.gz
RH
14 22 17 21 16 16 26 56 57 49 36 33 31 17 31 49 63 67 80 78 84 82 78 72 64 54 49 39 31 33 37 32 30 26 17 19 17 14 25 34 40 42 42
16 18 23 18 17 16 19 41 61 53 44 31 34 20 32 49 70 78 77 78 81 77 75 72 61 53 52 51 50 43 34 30 25 17 20 21 24 30 39 40 40 43 50
18 20 20 18 16 13 20 30 58 57 47 36 35 36 22 47 63 75 78 75 79 78 70 68 62 54 50 48 42 41 33 24 18 25 24 21 32 35 41 45 53 60 61
25 24 25 20 16 13 20 23 42 59 51 40 34 41 20 28 43 43 53 73 69 69 62 68 61 53 48 40 37 34 23 19 27 23 24 30 33 32 36 58 68 65 73
35 31 30 29 23 18 17 21 24 50 56 46 38 44 34 38 47 46 41 47 55 53 62 64 55 49 42 34 32 23 21 27 24 28 34 36 38 41 38 36 69 75 67
36 36 33 31 27 22 18 16 18 32 55 50 43 53 44 43 34 37 46 50 55 56 54 50 46 42 33 32 25 25 26 25 28 33 37 44 52 54 55 58 59 58 60
30 32 33 31 32 28 20 19 20 39 59 49 38 46 47 45 32 29 37 41 45 42 40 41 39 30 35 29 28 27 30 32 34 40 46 51 59 73 71 64 58 50 48
42 31 32 32 32 32 24 22 25 52 61 49 38 37 42 41 33 33 33 36 38 38 36 30 29 36 31 30 30 36 34 37 45 46 62 74 74 68 65 60 52 48 50
43 42 36 32 30 31 24 26 32 62 63 47 42 40 40 48 45 30 24 23 24 24 23 31 38 33 32 38 40 35 40 44 53 74 78 68 66 61 63 67 60 50 42
47 39 36 32 28 31 25 23 25 51 62 45 48 55 54 57 60 49 31 21 23 26 33 37 36 37 45 40 39 41 51 74 77 69 60 64 61 70 67 55 45 30 26
51 42 33 29 32 29 26 22 24 45 61 50 63 57 52 56 65 58 30 27 31 38 37 39 47 50 42 43 44 66 80 80 56 64 64 66 72 64 53 38 26 17 12
52 41 33 29 33 29 25 24 39 58 60 49 51 52 52 59 76 47 28 33 41 40 50 58 56 48 44 51 82 85 83 53 66 63 74 75 61 49 32 21 13 16 10
43 37 30 26 30 31 29 37 61 63 57 48 50 52 55 72 69 30 35 41 46 64 68 65 55 45 58 86 87 79 56 65 64 77 73 60 44 32 25 20 16 8 8
36 27 24 24 29 32 37 68 68 66 57 49 54 54 67 70 34 38 44 59 75 85 79 59 49 73 92 92 67 59 64 68 80 70 59 41 33 27 20 13 9 8 7
41 41 31 31 32 35 58 69 68 68 58 54 53 66 52 34 42 54 76 89 99 90 52 61 89 96 92 57 66 64 75 81 71 54 38 34 25 19 14 9 8 6 6
62 46 43 46 47 57 70 72 71 69 58 57 62 34 38 53 77 90 98 100 85 48 85 97 96 71 59 70 64 78 81 70 52 38 35 27 23 16 11 8 7 7 4
70 73 74 74 73 76 68 66 64 60 56 37 40 55 76 90 94 100 99 54 67 98 94 92 58 73 69 67 80 78 67 52 41 38 30 26 17 12 10 8 5 4 6
69 74 79 80 78 70 64 55 44 40 48 63 75 83 92 95 97 76 58 92 98 96 80 66 78 63 74 78 78 67 51 44 42 32 24 18 14 10 8 5 3 5 6
96 88 78 82 82 64 50 55 69 74 72 73 81 87 90 88 68 77 99 96 94 67 79 72 63 79 77 79 66 52 49 44 32 24 18 13 10 8 4 3 5 6 10
98 99 98 94 95 97 95 84 78 76 79 81 87 89 78 69 94 96 92 70 76 79 60 76 78 77 81 64 56 54 47 32 24 17 12 10 8 4 4 6 6 10 20
95 96 96 97 98 98 96 90 86 84 88 91 74 76 97 94 86 66 70 75 65 67 83 74 82 77 65 62 60 46 31 24 18 13 12 8 4 4 6 7 11 28 70
98 98 96 93 90 90 88 87 92 81 75 95 96 89 67 52 56 71 70 62 86 76 74 85 76 70 70 63 44 31 24 18 14 13 7 4 5 7 7 13 42 76 77
88 91 91 87 89 89 82 81 97 96 91 69 40 38 48 68 74 60 75 88 66 77 81 74 76 77 58 40 30 23 19 16 13 7 4 6 8 8 17 59 73 72 46
94 92 87 86 93 96 96 89 56 31 34 42 52 61 69 65 70 90 72 67 81 80 78 81 70 48 34 28 22 20 18 14 9 4 5 8 8 24 65 58 30 21 25
92 97 96 95 70 35 29 30 34 34 39 50 60 67 79 86 81 65 71 84 83 84 78 57 41 34 26 21 20 18 16 12 6 5 7 9 39 66 38 29 35 44 49
97 69 36 34 31 30 30 29 29 37 47 56 75 83 83 71 66 77 85 85 85 68 50 40 31 25 22 21 19 17 11 5 5 7 10 48 41 30 33 37 42 35 37

GFSMW_500_rhum_042.txt.gz
RH
21 16 16 18 23 17 17 19 33 69 64 53 49 43 31 39 30 33 51 67 95 93 82 88 86 82 79 74 65 55 51 46 46 48 42 36 28 19 26 26 22 25 30
23 21 16 18 20 25 17 15 21 39 69 66 56 47 35 34 46 44 61 85 92 87 85 89 84 77 74 72 66 56 52 47 44 45 40 29 20 26 27 25 29 32 36
24 29 24 18 18 24 23 16 18 24 32 58 62 54 46 35 34 26 52 76 88 90 86 88 86 80 70 69 68 59 51 46 40 36 30 21 26 28 28 34 35 38 45
20 30 30 25 22 22 25 23 15 20 21 39 59 59 51 37 43 37 29 59 74 79 96 88 79 73 63 65 67 56 47 44 40 29 22 28 27 26 30 39 42 50 52
17 23 35 28 24 24 21 23 15 18 19 25 61 62 54 40 40 54 56 59 69 65 58 61 62 62 57 63 57 45 45 43 29 24 28 28 31 33 34 38 47 56 72
25 23 28 33 24 22 24 22 17 17 18 20 33 64 62 48 46 57 61 59 57 61 49 47 49 56 56 50 42 42 36 27 26 30 32 35 36 39 38 37 56 65 67
33 30 33 30 33 23 27 27 22 18 17 19 20 54 64 52 62 69 64 43 42 42 46 54 53 49 41 39 32 31 27 29 31 37 38 39 40 42 57 59 57 56 54
20 37 37 33 34 31 32 30 26 21 18 18 20 50 63 50 52 64 60 38 41 54 55 54 41 35 30 29 32 29 32 35 41 41 43 41 52 65 64 57 49 38 48
13 20 39 42 29 35 35 34 32 26 20 19 21 61 68 50 44 58 62 42 38 37 28 25 23 24 30 36 34 35 42 45 45 46 45 63 71 62 56 50 54 53 47
18 12 36 48 33 34 37 36 34 29 23 20 23 64 70 50 47 61 79 79 71 61 47 32 30 32 40 39 42 51 50 50 48 54 73 76 60 57 57 60 61 59 51
30 12 32 51 43 32 34 35 34 30 23 21 25 56 64 51 59 78 82 83 90 82 40 33 37 42 42 51 59 59 57 51 66 83 76 57 60 64 64 63 60 47 37
27 40 42 54 47 36 37 33 33 28 24 24 25 65 65 59 81 72 70 82 97 76 38 44 45 48 62 68 72 62 54 88 90 64 60 64 67 66 65 58 45 39 37
34 70 60 56 46 40 34 30 31 27 26 24 34 76 68 62 76 68 67 76 93 43 50 50 58 70 83 86 58 72 97 90 59 68 65 70 68 65 57 44 43 39 25
55 69 61 52 38 33 31 32 30 28 27 29 64 80 69 64 68 66 71 90 49 50 56 72 85 95 90 55 92 99 79 63 70 68 72 71 67 56 46 46 37 26 18
78 60 48 39 33 30 30 30 30 31 30 50 79 80 69 69 69 68 84 48 50 66 88 97 100 79 69 99 98 69 72 68 72 74 73 67 55 50 50 37 25 18 15
58 41 35 31 29 31 33 34 37 37 40 67 81 80 76 75 75 74 48 53 78 100 100 100 61 96 99 96 68 75 67 76 72 73 67 56 56 50 33 22 19 16 15
80 56 34 30 31 36 38 40 42 50 76 86 93 87 79 78 54 53 70 94 100 100 89 74 100 100 81 75 70 74 77 72 77 64 62 61 42 27 22 19 17 14 8
80 61 51 46 43 43 48 52 72 87 84 81 81 76 59 58 76 94 94 96 96 74 96 100 94 74 78 67 81 75 75 75 67 68 54 32 25 20 20 16 14 10 5
80 83 84 86 84 82 85 84 84 86 80 67 54 58 94 98 91 91 96 79 88 99 96 74 77 67 78 82 72 77 70 71 65 39 31 24 19 17 16 14 10 5 6
91 96 94 87 85 77 70 68 60 57 61 93 98 97 96 95 92 81 88 98 91 68 66 72 66 87 74 74 79 72 71 50 38 30 23 20 16 15 13 8 5 6 11
100 99 93 88 80 80 82 89 96 98 96 96 97 96 86 76 94 94 79 52 62 76 64 74 83 68 74 75 72 62 43 36 27 21 18 14 14 12 5 5 6 17 55
97 98 99 98 99 98 98 97 96 97 95 91 77 85 88 78 51 43 61 76 68 72 86 71 70 76 77 69 52 42 35 25 18 17 15 15 9 4 6 7 29 58 41
100 98 96 97 87 84 86 91 82 80 86 87 68 37 34 47 68 71 66 77 90 76 67 73 81 80 67 50 42 32 24 20 19 15 13 6 5 6 10 45 43 26 28
90 85 83 74 76 80 83 84 84 57 27 28 32 40 50 57 62 78 87 79 71 68 74 78 76 65 51 40 28 20 16 13 12 10 4 5 6 20 44 26 21 22 23
87 85 84 87 87 70 37 25 24 26 27 30 37 45 53 64 79 77 74 71 73 76 75 74 63 50 35 26 18 15 12 10 8 4 5 8 35 39 24 22 20 18 17
89 88 79 42 30 30 33 35 32 30 33 37 43 54 72 76 75 72 72 78 75 72 68 56 43 32 25 19 15 11 10 6 4 5 12 40 27 23 22 20 20 20 25

GFSMW_500_rhum_045.txt.gz
RH
12 14 14 14 16 20 21 20 15 17 22 35 56 56 51 48 47 51 42 54 41 28 45 71 100 96 91 94 89 82 79 75 69 60 54 49 47 44 42 38 25 23 29
15 12 15 17 17 16 20 22 20 18 18 21 37 55 50 50 49 56 58 62 69 70 76 90 96 96 90 93 91 82 74 71 70 65 58 50 45 43 41 27 23 28 27
14 16 14 15 19 18 18 22 21 24 19 19 21 24 28 64 58 54 49 49 54 74 72 90 97 97 97 96 94 89 78 64 67 68 56 50 47 48 35 25 29 30 32
15 15 17 15 14 16 17 20 22 25 26 18 19 18 25 47 64 57 58 63 68 59 60 72 88 88 99 96 96 82 69 61 62 60 50 48 53 40 26 30 33 35 38
18 17 17 17 17 19 18 21 21 20 25 25 17 20 15 19 54 66 60 56 54 74 69 53 61 78 76 75 71 63 56 58 56 48 41 42 34 26 32 36 39 40 40
20 23 20 20 18 18 19 21 25 24 21 26 18 18 14 18 37 65 64 60 64 71 76 72 72 73 69 52 49 52 56 51 42 35 32 31 29 35 37 39 43 44 60
11 12 22 24 21 21 22 22 28 28 22 24 17 17 14 21 23 46 73 66 82 77 76 70 77 59 47 48 56 57 43 37 30 29 31 35 41 44 45 44 44 48 63
17 13 11 15 28 24 29 23 33 32 27 26 18 14 18 19 24 37 67 66 60 63 70 54 39 47 60 64 53 31 26 30 34 34 38 48 50 51 49 50 54 59 55
39 25 17 13 14 28 28 31 34 37 33 31 22 18 18 21 27 35 64 62 51 49 66 62 61 44 40 33 32 31 34 39 39 44 55 58 57 53 61 70 63 48 30
57 41 26 16 14 14 30 41 38 45 39 35 28 21 21 22 23 49 71 65 52 61 73 82 83 86 79 51 37 39 43 42 53 64 69 60 56 71 71 56 45 58 58
56 54 39 29 19 11 25 48 41 47 40 38 30 25 23 23 25 54 70 64 60 78 92 93 90 97 84 44 44 46 54 68 76 76 59 68 76 67 54 56 65 60 53
72 77 60 39 17 12 28 51 46 46 42 41 34 29 24 23 27 50 72 60 80 97 83 74 82 98 60 46 50 70 87 88 77 64 78 81 65 59 64 68 60 54 51
70 81 59 40 21 18 57 59 52 44 44 44 38 32 27 26 40 65 73 72 91 96 76 73 87 81 48 55 84 94 95 72 78 86 81 64 65 71 68 59 56 54 50
88 64 47 35 28 48 72 65 52 44 46 45 39 35 29 35 42 75 79 75 81 78 74 87 88 52 64 97 98 98 72 91 93 73 68 70 75 67 61 57 54 42 31
54 37 36 37 60 75 63 54 47 46 46 53 39 35 35 35 60 85 84 78 78 79 92 87 55 79 100 100 94 80 97 93 71 71 76 74 66 63 59 48 37 32 20
73 47 49 93 73 49 47 46 48 58 51 47 55 43 37 48 82 88 92 83 81 95 72 60 98 100 100 83 96 100 77 74 72 81 70 69 65 56 41 35 20 10 9
77 64 96 65 56 44 43 44 46 48 48 47 46 46 46 80 95 96 89 93 92 61 84 99 100 96 88 100 92 73 74 79 75 69 72 64 49 41 33 14 11 9 7
95 99 94 78 44 39 41 46 49 46 46 48 52 80 91 97 95 97 94 65 75 98 99 98 94 100 96 70 76 72 80 70 72 72 60 47 40 24 10 7 7 6 8
82 87 78 65 48 42 44 57 51 51 48 58 65 98 97 98 86 61 81 99 98 98 96 100 98 69 73 71 78 74 69 73 68 56 48 34 17 11 8 7 6 5 3
94 92 94 92 68 67 62 71 66 76 94 97 94 78 64 60 92 100 98 97 98 100 95 63 71 72 82 79 69 70 74 65 56 45 28 19 11 8 7 6 4 3 4
90 92 94 97 96 93 93 94 91 80 75 72 67 80 100 99 97 96 99 97 75 60 72 72 78 81 72 69 70 68 61 53 37 24 18 12 9 8 6 4 4 9 32
84 87 91 87 81 77 74 72 74 76 88 99 98 97 96 98 95 72 53 61 71 66 73 78 74 71 69 67 63 58 46 31 23 16 12 11 8 5 4 6 25 33 22
96 97 92 88 87 95 98 98 98 98 97 95 100 87 53 41 50 57 58 58 65 72 74 72 70 70 64 58 50 37 28 18 12 12 12 9 5 4 11 31 22 21 20
98 97 95 94 92 94 94 97 99 90 56 36 31 35 38 42 45 51 57 65 73 73 70 70 67 63 57 44 34 25 16 13 13 12 9 5 4 18 28 22 20 19 21
97 97 93 98 99 91 53 30 30 32 33 33 35 36 38 42 49 64 73 73 70 68 66 64 59 48 37 30 23 18 15 13 12 8 4 5 24 25 22 18 16 23 32
96 98 96 87 41 33 37 43 47 48 44 40 35 37 47 67 74 73 70 68 67 66 62 52 41 34 25 20 19 17 14 11 8 4 5 26 24 19 14 14 17 20 27

GFSMW_500_rhum_048.txt.gz
RH
13 10 11 11 11 13 12 15 18 17 18 15 12 13 23 22 42 54 54 59 64 68 62 61 58 33 36 46 71 98 90 86 93 87 81 76 73 70 63 54 50 49 52
5 6 6 8 8 9 12 14 16 17 19 18 16 14 16 17 22 50 58 58 59 64 63 55 64 80 64 88 86 96 98 92 90 92 90 81 68 67 65 58 51 53 50
5 5 6 7 8 10 13 12 13 18 16 22 20 15 17 13 18 29 37 55 69 70 57 68 72 76 89 92 89 92 98 98 93 93 88 78 66 61 58 52 46 48 37
7 8 8 8 8 10 14 15 14 18 20 19 20 18 20 19 21 31 37 49 62 71 69 70 80 89 70 61 65 69 74 80 91 93 86 66 58 56 52 42 38 32 32
14 14 13 12 12 13 15 16 16 16 23 20 23 18 22 27 27 31 31 30 48 70 80 74 70 72 71 76 74 75 79 76 62 52 51 56 56 46 39 33 30 35 42
13 13 13 12 13 11 11 16 18 18 21 23 26 21 20 27 26 22 28 27 29 62 82 79 78 77 76 77 71 73 69 58 50 56 64 48 36 31 25 28 38 43 52
15 14 12 10 11 12 17 17 19 21 19 24 30 28 22 24 26 23 26 26 31 52 74 81 78 92 90 70 81 53 45 61 71 46 29 26 29 32 34 42 44 47 53
28 27 31 23 17 15 13 13 20 21 24 22 37 40 27 27 30 27 26 28 32 38 62 82 71 67 74 71 61 66 52 49 55 45 36 36 40 41 51 56 53 52 56
58 52 47 40 39 34 30 18 13 20 27 27 40 37 32 32 33 28 26 28 34 45 56 72 66 61 72 75 80 87 97 92 61 40 46 47 49 70 74 64 60 59 52
46 27 21 17 16 20 37 23 21 12 27 38 32 35 38 36 34 28 25 29 35 47 65 75 72 75 92 99 100 100 99 94 51 51 50 58 79 80 66 69 75 62 36
30 25 19 16 12 14 19 30 17 13 23 37 31 46 47 40 35 30 27 28 34 46 71 79 76 77 99 99 88 83 95 69 51 53 72 85 80 69 80 80 53 53 66
34 31 28 30 28 37 53 39 17 14 21 33 48 59 53 46 40 33 30 35 40 52 82 80 83 97 100 90 79 91 86 57 59 84 88 82 73 88 74 53 70 69 61
80 73 46 61 81 100 95 62 31 14 23 52 68 60 55 49 42 38 35 42 40 58 84 87 84 100 97 81 90 99 63 73 92 93 81 83 90 64 66 74 64 59 54
98 89 63 56 74 100 95 78 40 24 66 82 69 59 56 52 44 49 42 46 46 76 86 87 89 88 86 89 100 70 92 98 98 84 94 81 67 72 72 64 58 55 47
81 99 65 75 87 93 98 82 50 66 88 77 64 59 59 49 44 44 44 46 62 91 94 98 92 83 96 96 77 98 99 97 98 95 72 70 74 67 61 55 52 46 29
90 69 50 49 48 51 40 34 69 89 75 68 64 65 61 50 50 46 54 49 94 100 97 94 83 100 92 84 99 99 97 100 74 74 76 72 66 58 56 51 34 20 14
74 47 30 36 38 36 49 88 95 70 72 69 67 65 85 85 62 57 55 99 100 99 95 97 98 68 100 98 98 97 81 73 78 79 68 61 58 56 42 24 14 9 7
67 62 68 77 70 70 93 89 61 67 69 71 67 82 90 76 60 65 100 99 92 94 100 73 88 99 99 96 84 69 76 83 72 65 56 55 50 30 19 11 9 8 7
79 77 78 82 82 82 66 55 64 67 66 69 56 55 49 77 91 86 95 99 100 73 92 99 98 96 83 70 74 83 75 70 58 58 56 39 25 19 13 10 8 7 6
79 67 54 54 50 50 52 58 62 56 56 52 53 60 68 99 100 98 89 72 96 99 98 93 75 66 73 77 75 71 62 58 53 45 31 26 20 16 11 8 7 6 5
87 86 71 67 63 76 75 67 100 59 85 88 100 99 98 91 78 96 98 98 96 83 67 67 70 74 76 73 67 59 56 50 35 28 24 19 15 9 7 6 4 7 22
71 78 97 100 98 93 98 99 97 97 97 99 92 82 79 98 100 96 75 56 55 64 62 66 72 75 67 58 58 53 41 31 25 18 14 10 9 7 6 4 11 23 16
93 85 71 72 89 94 93 92 84 76 76 77 86 95 93 60 38 44 51 51 51 59 73 75 68 60 57 55 46 35 30 23 17 13 10 8 8 6 4 17 21 12 12
93 96 95 91 89 94 96 94 96 98 97 78 52 36 36 38 40 44 46 58 74 76 69 61 60 59 50 39 34 28 22 18 16 10 9 8 6 4 21 19 11 17 24
96 95 90 90 94 95 92 69 40 33 36 38 42 42 38 40 49 64 76 76 70 63 61 60 54 45 38 34 24 20 17 15 12 9 9 6 5 24 18 12 18 27 35
95 96 98 99 78 40 39 44 49 53 53 48 42 40 48 68 80 78 74 65 60 62 57 49 40 37 30 24 22 18 15 12 10 11 7 5 24 19 12 20 28 35 42

GFSMW_500_rhum_051.txt.gz
RH
11 9 8 10 11 11 10 11 14 10 8 16 19 19 20 12 14 24 20 40 57 67 62 62 65 60 71 68 66 70 45 65 73 78 95 93 89 90 91 88 80 70 66
8 8 7 7 8 8 10 10 9 12 10 12 13 17 20 23 22 33 32 35 33 49 64 73 72 72 66 69 75 76 87 91 96 97 97 97 97 94 94 89 78 70 62
6 6 6 6 7 7 8 9 10 10 11 11 11 18 27 36 32 42 45 29 20 22 42 48 66 77 73 72 81 94 84 86 76 79 80 82 85 83 78 72 62 56 55
6 6 6 6 5 6 7 7 9 9 9 11 13 13 14 21 30 20 34 34 41 50 64 47 56 64 75 79 76 76 84 84 77 75 90 81 73 57 51 55 56 51 40
7 7 7 8 9 9 10 12 13 14 12 11 13 15 16 22 30 38 47 50 54 55 59 54 61 62 71 79 86 86 88 91 89 90 81 58 47 53 57 52 31 25 24
13 14 14 13 13 13 13 13 14 15 14 14 14 15 19 23 28 52 53 53 47 54 52 48 48 56 68 79 89 99 97 94 88 84 50 63 53 43 40 36 32 36 50
13 12 12 11 10 10 11 12 14 16 20 19 13 14 16 27 34 41 58 56 38 40 38 40 36 44 53 75 88 86 77 81 69 69 64 77 86 74 55 37 32 38 54
16 17 18 20 21 21 19 18 15 12 11 19 20 19 17 22 39 46 56 56 54 51 44 35 38 36 49 81 86 72 69 80 90 97 99 98 93 76 50 40 40 49 64
39 39 41 44 54 51 42 32 31 20 12 12 12 25 23 28 42 55 64 64 58 52 37 35 42 44 61 77 80 73 77 78 95 100 90 100 92 63 49 51 64 67 59
22 21 22 36 56 60 63 56 49 37 29 20 22 14 31 50 48 59 66 57 42 38 38 38 44 55 77 77 83 79 80 95 98 87 89 99 76 60 68 82 79 70 61
40 41 35 40 42 31 27 25 35 43 43 34 27 24 26 53 53 63 64 46 43 43 42 41 45 56 58 82 95 82 86 99 92 81 100 91 64 83 90 87 78 80 57
55 47 55 64 60 34 40 40 26 17 17 30 33 23 26 54 59 71 60 52 49 45 40 43 50 56 53 88 89 81 99 93 78 93 97 68 85 97 94 89 82 56 66
78 77 82 80 87 71 61 49 30 19 13 29 30 19 30 64 66 68 62 55 49 50 49 49 44 50 68 87 84 87 90 81 90 98 71 92 100 99 94 69 69 71 63
81 90 95 100 94 67 52 37 34 28 38 82 40 18 38 65 67 70 63 57 52 60 68 52 49 60 63 83 87 97 87 97 98 73 97 100 99 86 70 75 68 59 53
90 100 100 88 81 57 78 83 92 100 93 94 49 33 64 70 69 71 66 57 60 83 58 50 70 52 99 96 97 90 99 95 85 100 99 96 71 75 73 63 52 49 38
56 68 64 65 62 76 80 80 99 100 99 69 36 54 81 76 78 73 66 71 74 54 48 47 76 81 87 100 90 99 95 98 100 100 82 72 80 68 57 54 44 30 24
47 32 33 44 60 82 86 96 99 95 67 43 50 82 79 76 70 67 99 86 56 52 44 68 98 96 84 96 90 96 100 100 91 72 81 73 62 56 52 37 28 18 12
73 35 33 34 34 32 38 64 75 70 73 84 83 76 64 76 95 96 76 60 59 58 95 97 86 93 95 85 99 100 93 72 76 76 65 56 55 43 31 23 16 13 11
90 76 74 72 68 79 91 91 86 88 86 79 78 75 97 91 74 84 69 97 90 100 100 99 97 88 100 100 92 69 69 76 70 58 59 48 34 28 20 16 14 11 10
71 57 76 95 98 98 97 92 88 89 96 100 99 98 69 75 68 80 90 99 99 97 90 86 99 99 77 62 66 72 70 57 58 55 41 32 25 19 16 13 12 9 8
96 88 91 52 52 55 68 76 90 98 97 86 64 90 98 98 99 98 100 98 91 94 99 88 61 55 57 67 70 61 60 57 46 37 30 22 19 15 12 10 9 7 6
75 97 96 98 93 100 92 98 98 95 99 85 82 100 98 98 93 92 94 94 77 48 49 47 47 68 72 62 60 58 49 40 34 27 22 16 13 12 10 8 6 7 19
94 90 89 100 100 99 99 97 99 99 97 98 99 100 100 100 98 66 48 44 44 44 51 70 73 63 58 60 53 44 38 31 24 18 14 12 10 9 8 5 10 18 13
74 89 97 96 94 88 80 81 84 92 100 100 95 79 70 52 43 39 37 39 56 71 72 68 62 63 56 47 40 34 25 19 16 15 12 11 11 7 5 15 18 14 26
76 82 95 98 97 98 98 90 76 49 39 37 41 47 48 44 41 46 61 74 77 70 65 65 60 50 42 36 28 22 20 17 15 13 12 11 6 5 17 19 13 22 28
86 88 89 90 83 47 36 40 48 62 70 68 64 57 54 58 67 77 79 72 65 66 62 51 43 38 33 27 24 20 16 15 13 11 10 5 6 20 20 13 20 26 37

GFSMW_500_rhum_054.txt.gz
RH
9 8 8 9 9 9 10 10 10 7 17 37 48 49 50 52 39 31 34 25 27 29 30 34 42 62 63 64 63 66 63 66 72 71 87 94 95 95 98 96 93 96 97
10 10 10 10 10 12 11 10 10 10 5 6 11 16 28 38 44 43 52 61 36 44 50 46 47 41 55 63 68 76 74 69 78 83 78 87 83 77 77 83 87 80 75
13 12 11 10 10 9 9 9 8 8 7 5 8 20 32 30 38 52 58 63 55 45 55 57 49 45 66 62 66 74 74 74 77 78 79 83 89 86 87 85 80 60 52
14 13 11 10 10 9 8 8 7 6 4 5 5 5 12 14 16 21 29 32 40 37 55 58 63 84 71 62 62 68 66 73 78 78 79 87 85 91 93 66 51 49 46
10 9 8 8 7 6 6 6 6 6 6 5 5 5 6 6 10 17 29 35 52 77 88 86 81 78 72 65 64 69 75 84 90 89 94 92 86 83 71 68 58 62 68
8 7 7 6 6 7 8 8 9 13 15 14 12 10 9 11 12 13 25 32 40 53 82 90 83 81 76 61 58 57 62 68 84 94 77 69 68 71 77 85 88 86 79
7 6 6 8 10 12 13 13 13 13 14 14 13 12 12 12 13 15 17 34 41 58 75 90 87 80 72 56 45 44 51 70 86 87 71 62 67 76 83 79 68 70 78
9 10 11 12 14 14 12 12 12 12 12 11 10 11 11 12 14 17 19 28 43 52 66 81 85 76 74 58 42 42 59 80 72 73 70 65 82 93 80 68 63 72 64
12 14 22 28 29 32 30 36 31 21 18 15 13 12 12 12 15 24 26 38 44 54 62 79 77 81 86 65 39 50 49 75 61 73 73 65 93 91 78 67 75 74 53
26 22 19 17 20 23 24 27 40 49 46 34 23 20 18 10 10 16 30 47 56 66 71 80 82 82 72 47 43 48 50 60 56 78 72 75 99 84 75 74 83 63 69
21 22 27 28 32 34 36 39 38 29 43 61 50 34 27 15 16 54 41 64 65 65 69 80 81 74 49 45 44 47 100 50 63 69 66 100 93 86 74 92 71 77 86
36 38 59 66 56 55 47 79 71 56 40 60 74 58 45 24 31 54 52 64 80 77 75 82 76 52 51 49 56 43 47 48 59 71 97 96 86 77 90 84 82 90 94
45 48 59 68 68 56 92 86 72 62 44 28 30 46 55 56 53 55 77 66 76 78 77 73 55 51 48 48 49 46 43 53 70 79 99 91 85 92 84 92 92 92 70
38 50 30 26 61 96 100 97 89 75 57 41 34 19 48 62 68 53 69 59 73 78 66 60 54 58 58 57 52 42 54 94 97 98 81 85 93 94 97 99 82 67 66
47 43 17 26 56 98 97 88 71 83 74 85 56 28 68 76 54 32 44 74 83 69 66 61 53 71 65 51 47 46 96 100 97 87 88 92 98 100 88 64 66 64 55
51 26 23 22 33 75 90 57 41 43 53 56 58 49 52 55 28 21 31 81 71 70 68 54 99 97 52 53 57 100 97 86 94 96 84 93 95 62 65 66 60 51 42
54 28 22 36 49 71 74 65 78 83 80 84 88 58 50 32 26 42 70 72 68 69 68 98 73 56 53 100 96 95 95 98 92 92 94 64 64 67 65 55 49 37 29
58 56 22 26 45 54 95 99 95 96 99 93 98 66 37 29 60 74 75 87 88 85 93 58 51 62 100 96 96 100 96 95 91 64 62 67 70 59 54 43 33 25 20
71 60 78 66 41 42 58 91 94 81 99 78 70 46 58 84 83 82 98 91 99 82 83 68 72 96 100 97 99 88 88 62 63 67 70 58 54 48 38 29 20 16 15
78 73 56 93 96 89 95 86 82 80 79 86 88 89 93 100 99 98 97 95 96 100 100 99 99 98 90 80 74 53 55 61 71 58 56 50 39 32 22 18 16 14 12
64 69 72 80 71 86 97 97 96 96 99 100 98 99 98 99 93 91 99 99 93 97 98 98 96 87 50 49 52 60 66 58 61 55 44 35 25 22 19 17 15 12 9
68 67 76 92 94 96 97 96 98 99 98 94 95 99 98 94 93 93 98 98 99 97 83 54 56 51 50 65 65 57 56 51 42 35 27 23 18 15 14 11 9 6 4
68 68 69 73 92 92 91 87 93 93 93 94 98 98 94 95 100 97 83 59 59 64 57 44 54 67 63 57 56 51 42 36 30 24 18 14 12 10 9 8 4 5 17
76 73 70 69 79 86 90 96 95 92 90 94 95 98 93 77 62 55 54 45 42 54 65 69 62 58 57 50 41 36 32 26 21 18 16 13 11 9 6 4 8 21 13
90 90 92 90 89 91 91 94 85 63 45 44 47 54 64 61 52 55 60 63 66 65 62 60 59 49 40 35 31 27 23 20 18 15 12 10 8 4 5 15 19 15 24
96 93 91 96 94 59 41 45 58 77 79 75 75 75 72 66 62 62 64 66 64 64 62 50 41 37 34 30 26 24 21 17 14 13 10 6 4 7 23 16 20 30 42

GFSMW_500_rhum_057.txt.gz
RH
11 11 10 8 7 6 6 6 6 7 8 10 23 47 54 54 54 60 57 41 38 45 43 28 30 30 35 43 51 56 61 59 59 61 64 62 64 71 71 79 80 76 75
10 11 10 8 8 8 8 8 7 8 8 9 12 31 44 47 44 51 60 65 73 70 74 52 53 41 46 53 50 37 44 49 55 61 62 64 62 64 67 76 84 85 86
10 11 11 10 9 9 9 9 9 9 10 9 9 9 18 22 29 41 58 61 66 78 72 74 68 55 62 66 60 74 74 66 57 57 59 59 64 69 77 74 81 84 89
12 13 14 13 12 11 11 12 12 11 8 7 5 7 8 10 26 48 36 38 33 47 54 60 72 80 89 80 93 94 95 74 61 59 62 55 68 75 79 76 75 74 67
13 17 18 17 16 15 14 12 12 11 10 8 6 5 4 5 8 9 11 22 26 37 42 54 60 67 84 94 96 96 97 94 69 67 59 42 63 72 75 66 61 59 69
18 18 17 16 14 12 10 9 8 8 7 7 6 5 5 5 5 8 20 27 28 24 36 38 58 68 80 90 98 97 98 94 67 58 50 52 72 73 70 66 65 70 80
15 13 12 11 9 8 8 7 7 6 6 6 6 6 6 6 6 7 18 12 21 19 26 31 41 58 71 80 93 97 97 86 69 48 46 48 66 54 63 73 68 80 95
11 10 10 9 9 8 9 10 10 10 10 10 11 11 10 10 10 11 11 20 37 34 28 29 48 54 73 87 90 90 97 87 75 61 41 44 88 44 58 76 75 92 84
10 10 10 10 11 11 11 12 14 16 18 15 12 11 11 10 10 10 11 11 22 46 40 51 65 70 74 90 84 88 90 95 88 54 44 39 49 42 58 63 67 91 85
12 11 12 15 20 22 24 24 27 29 31 35 37 33 26 16 13 13 12 12 20 35 62 60 66 81 84 81 80 82 87 95 86 51 40 43 62 45 60 81 81 100 79
18 24 23 18 17 18 20 22 28 30 32 34 31 29 36 41 31 21 17 15 14 31 60 65 56 71 76 83 82 85 96 95 52 45 46 98 78 52 79 79 88 100 92
25 19 20 28 28 29 37 35 27 21 23 41 38 35 37 42 50 43 28 22 25 70 27 74 65 73 75 76 78 89 90 53 48 89 48 44 76 89 99 96 98 90 92
24 37 34 34 44 31 18 18 17 19 34 53 58 54 52 51 54 71 53 42 34 68 81 84 74 70 75 77 76 81 54 53 59 66 52 75 97 87 96 100 98 98 93
44 38 42 44 20 14 17 25 32 72 81 100 100 94 81 68 59 84 84 62 31 64 81 80 81 89 88 81 77 57 62 66 70 69 58 84 100 100 100 98 99 95 91
40 37 40 27 16 18 22 35 60 100 99 100 100 95 66 60 47 82 94 91 61 60 82 86 91 93 84 75 63 66 87 91 99 96 54 100 100 100 100 99 97 69 65
36 42 34 28 18 30 30 42 50 63 64 78 100 100 98 66 60 59 73 97 86 63 56 66 68 92 75 69 71 99 99 59 55 65 100 98 98 99 98 79 64 63 64
48 49 37 33 36 25 38 48 53 55 65 57 62 73 99 90 61 48 62 66 58 36 35 54 76 77 75 95 96 89 96 99 99 99 98 99 99 77 63 62 64 57 52
37 50 50 39 44 37 45 52 58 75 94 88 95 61 59 62 54 40 39 30 32 45 62 89 84 98 99 92 89 98 99 98 100 100 90 75 54 60 63 56 52 38 30
60 60 59 47 44 51 45 60 76 92 99 90 96 97 82 58 58 34 48 56 85 87 93 92 99 99 89 100 99 100 96 100 90 75 55 60 61 55 53 38 31 27 23
57 60 59 53 52 48 58 65 68 61 76 93 97 74 60 45 34 40 99 98 90 99 99 100 98 98 99 98 98 99 92 82 67 67 58 49 45 36 32 29 25 21 18
59 57 52 66 74 71 68 70 88 95 94 67 66 68 57 85 95 97 96 100 99 99 100 100 98 100 99 90 64 56 62 65 58 51 41 33 32 29 25 23 20 17 14
66 52 54 63 71 71 75 81 90 86 90 97 95 96 99 99 99 98 98 95 92 98 95 96 87 85 79 56 57 58 53 44 34 31 30 27 26 24 21 17 14 11 7
58 62 72 61 58 68 76 76 74 81 91 94 94 96 99 97 100 100 96 85 75 68 62 54 55 60 59 55 51 39 31 31 31 29 28 26 20 14 10 8 5 3 8
70 66 76 78 75 77 80 78 74 81 81 82 90 93 85 68 60 60 61 56 53 57 64 64 57 54 48 38 33 34 34 32 28 24 17 11 8 6 4 3 5 17 17
76 80 80 79 80 85 81 60 50 46 51 64 76 78 75 72 71 70 66 63 62 61 59 56 48 38 33 35 36 36 32 23 15 6 4 4 5 4 3 12 19 18 29
83 86 83 84 82 51 42 59 80 82 81 80 81 81 79 78 76 71 66 64 62 58 48 38 34 37 40 40 36 27 15 9 5 4 4 5 3 6 20 19 26 34 35

GFSMW_500_rhum_060.txt.gz
RH
11 9 10 11 8 8 9 9 7 6 6 7 8 12 30 38 46 50 53 59 61 59 60 57 57 52 54 34 33 32 32 37 38 36 35 43 49 51 53 53 56 61 68
10 9 10 11 10 8 8 9 8 7 6 6 7 8 10 17 35 52 63 73 76 76 82 86 84 92 77 69 64 47 51 52 45 37 42 54 52 51 51 54 61 71 71
10 9 9 10 9 8 9 9 9 8 7 7 7 7 8 9 13 33 44 45 64 62 80 90 90 86 81 80 78 82 84 93 91 90 81 59 58 54 56 47 61 70 74
9 9 8 11 11 10 12 10 9 9 9 10 9 9 10 11 13 16 18 28 38 43 66 80 80 79 69 66 66 73 77 89 95 96 96 88 66 62 62 41 54 62 71
8 10 11 11 10 10 12 12 10 10 11 10 10 12 12 13 14 14 15 13 14 34 48 39 52 57 60 64 66 72 83 81 88 96 97 97 89 69 51 40 50 57 44
12 12 13 12 12 13 16 16 16 15 14 13 12 12 11 10 10 9 9 11 11 10 12 29 52 63 59 46 59 60 67 84 85 95 97 97 95 82 63 41 38 54 46
15 15 15 15 16 17 17 16 15 14 13 11 10 9 8 8 7 6 5 6 7 19 21 28 32 48 55 55 53 63 73 84 85 94 99 100 96 90 74 51 41 81 45
16 16 15 14 14 13 13 12 11 10 9 8 8 8 7 7 6 6 6 5 5 8 14 34 55 71 62 63 63 70 82 79 85 95 97 93 98 96 96 66 48 57 51
12 12 11 11 10 10 10 9 10 10 11 10 10 10 9 8 7 8 7 7 6 7 12 29 45 58 94 76 85 89 93 94 90 100 97 95 99 95 95 91 61 56 58
11 10 9 9 10 11 11 12 13 17 21 24 23 23 23 20 19 17 14 14 12 12 13 18 58 70 71 81 85 82 95 94 96 97 92 92 97 97 80 77 77 99 97
11 11 11 12 11 12 18 23 24 21 21 26 30 32 33 34 34 34 36 37 27 18 16 17 25 43 68 86 75 94 90 89 91 85 93 91 98 83 57 68 98 58 93
16 21 28 26 24 18 16 18 28 31 27 18 13 15 17 23 43 43 39 34 37 49 35 23 18 18 53 55 75 91 82 69 77 87 79 100 93 59 91 99 52 60 86
21 25 24 19 26 31 31 27 20 17 20 24 21 20 20 19 19 18 28 32 34 38 59 47 28 18 22 45 44 57 80 83 83 88 96 95 96 72 85 97 67 66 96
25 19 22 30 26 29 26 19 17 21 26 27 32 40 66 67 54 69 92 79 63 53 58 74 43 43 42 73 91 98 81 90 97 98 94 65 96 84 97 98 94 89 100
31 25 36 33 26 27 26 18 21 19 22 33 58 67 71 78 100 100 100 100 89 83 77 88 75 57 47 89 92 82 98 96 100 95 77 93 99 100 99 99 100 99 99
35 38 34 30 26 24 29 21 29 28 36 62 43 68 82 88 100 100 81 91 90 85 100 99 92 52 70 87 68 67 82 96 94 92 99 98 97 100 100 97 97 74 73
35 32 34 33 27 26 30 25 26 35 59 86 54 70 85 98 100 96 90 85 94 99 100 98 94 72 66 69 68 82 91 98 99 99 100 100 99 98 96 93 90 86 69
39 32 41 41 30 27 35 31 34 50 57 77 89 56 76 100 97 96 86 72 100 98 96 93 88 67 100 73 100 99 95 98 99 100 100 98 92 91 87 78 62 44 32
48 50 52 45 46 41 39 43 58 46 38 62 83 49 52 65 83 100 73 70 78 79 85 35 92 81 94 100 96 98 99 99 99 97 96 84 86 70 49 34 28 28 28
51 45 46 56 57 55 49 49 53 52 48 32 35 68 63 61 78 84 86 98 92 91 98 99 96 99 99 99 99 100 99 97 86 67 60 50 36 30 29 29 28 21 10
55 42 52 52 59 59 57 60 60 57 62 64 96 67 50 46 59 67 88 99 100 99 99 99 98 98 99 98 97 91 71 65 60 45 31 28 28 28 23 13 7 5 6
56 60 59 56 56 53 56 60 65 67 69 69 78 87 97 100 99 99 98 98 98 99 97 90 82 72 65 61 62 61 54 40 29 28 28 27 18 10 8 6 5 5 5
56 60 60 59 64 64 61 62 64 72 72 78 83 91 91 89 87 85 77 72 68 64 61 60 63 65 61 57 48 33 28 28 29 26 16 9 7 5 4 5 4 4 11
63 64 64 65 72 77 75 70 67 64 63 64 68 71 73 72 70 67 67 69 70 71 70 65 62 56 44 33 30 32 32 29 20 10 7 6 4 5 5 3 11 19 25
75 74 71 70 74 74 52 41 49 70 78 78 79 81 82 80 78 76 74 72 72 68 64 57 44 36 35 37 37 33 27 16 8 7 5 4 7 5 9 18 24 30 33
81 83 86 81 83 50 46 62 80 83 85 80 80 76 76 77 79 80 80 77 69 63 56 44 41 40 42 40 33 26 17 10 6 4 4 9 8 15 17 25 30 33 35

GFSMW_500_rhum_063.txt.gz
RH
13 10 8 7 7 8 9 8 8 10 9 8 8 15 15 19 36 40 54 59 62 80 80 80 64 58 56 57 57 60 58 49 55 47 46 50 48 41 38 47 42 42 42
14 13 11 10 9 8 8 10 8 9 10 10 10 8 8 12 22 32 45 54 60 74 77 88 88 82 76 76 80 88 85 76 76 71 76 80 85 94 76 64 48 45 43
14 14 12 11 9 9 8 9 10 8 9 11 10 8 8 8 9 10 13 23 34 54 70 70 85 82 89 86 84 88 94 78 77 73 68 77 90 94 98 87 59 55 55
11 11 10 10 10 9 8 8 11 10 8 9 10 9 8 9 10 10 12 12 15 18 33 51 51 64 74 83 89 80 74 75 80 80 74 85 90 84 98 98 93 87 74
8 8 8 8 8 8 8 8 10 10 10 10 11 10 9 9 11 12 13 15 16 16 17 19 37 45 56 79 72 65 60 67 69 68 75 72 77 81 81 100 99 96 92
10 9 8 8 8 8 8 8 9 10 11 12 14 15 16 14 12 12 14 15 17 19 19 30 39 40 42 53 36 50 63 72 79 76 69 73 81 98 96 94 94 96 94
10 9 9 10 9 10 11 11 11 12 13 14 15 14 15 14 13 12 12 12 13 13 14 17 25 31 42 60 60 64 65 67 76 78 78 81 95 87 89 88 96 92 89
11 11 11 12 12 12 14 15 16 15 15 15 14 14 14 13 11 10 9 9 8 8 9 9 9 12 35 49 59 72 75 86 86 85 91 91 99 94 97 94 91 91 92
14 14 14 15 14 13 12 11 10 9 9 9 9 8 8 8 8 8 8 9 10 9 9 11 12 17 25 44 56 88 87 95 92 92 92 92 98 96 99 92 93 78 99
14 13 12 12 11 10 10 9 9 10 10 11 12 13 14 16 17 19 18 18 18 17 15 15 16 18 26 40 55 63 97 92 86 91 93 96 100 94 87 95 86 79 88
13 12 11 10 9 10 11 12 12 15 20 22 22 22 22 25 30 33 34 34 31 32 31 32 34 30 22 21 23 37 55 71 84 89 91 92 99 95 84 79 89 90 98
11 11 11 10 10 11 14 20 18 22 28 30 29 25 20 20 18 18 24 31 48 53 48 42 39 38 48 49 36 23 19 20 50 70 87 99 98 80 82 81 85 92 98
14 13 13 14 14 18 18 20 21 17 16 16 16 19 22 26 25 19 20 24 23 21 20 39 50 43 48 64 66 41 23 19 28 51 61 73 70 98 82 98 99 94 81
23 26 26 22 17 16 22 19 18 17 14 17 22 19 20 38 28 27 38 44 55 51 29 27 43 53 51 54 72 58 34 29 51 66 91 96 90 98 99 98 89 100 97
31 23 22 25 24 26 22 16 19 16 12 14 24 38 40 33 34 45 48 60 71 68 73 82 100 97 77 93 100 65 59 55 92 89 100 99 94 87 72 80 87 98 98
26 29 30 27 28 25 19 20 16 20 15 20 33 35 22 46 58 47 62 94 96 100 100 99 90 87 100 100 98 77 50 89 84 69 87 99 91 97 98 98 99 99 97
34 35 28 27 32 21 23 26 19 24 16 19 18 18 33 49 68 71 96 99 100 100 100 99 100 95 92 96 91 74 72 96 94 100 86 83 80 97 98 100 99 93 85
38 38 36 41 42 33 34 34 33 32 22 19 16 27 46 58 66 89 100 100 100 100 100 99 100 100 100 100 94 89 100 100 76 92 99 98 98 98 97 90 46 36 33
43 49 49 51 41 48 36 38 39 34 33 27 24 26 47 57 74 86 79 76 85 94 71 74 92 94 81 100 100 100 99 92 100 95 99 99 91 67 44 30 28 20 12
54 53 42 41 42 50 38 42 42 43 47 45 32 33 30 35 39 40 61 97 98 58 98 97 74 97 99 100 99 99 99 98 96 97 78 47 33 30 26 17 10 8 5
55 45 47 50 54 49 43 42 45 46 48 54 48 55 67 82 89 92 96 100 98 100 99 100 100 100 100 100 92 76 64 57 48 36 30 30 26 15 10 7 4 4 4
55 56 53 49 51 51 50 49 49 52 55 60 69 69 76 77 84 90 93 97 96 94 84 74 68 65 64 62 58 50 41 35 34 33 29 17 11 9 6 4 4 5 7
62 60 61 53 54 58 57 55 56 55 60 64 66 68 70 71 70 70 68 66 67 66 66 67 63 58 55 47 38 35 36 35 30 25 13 10 8 6 4 5 7 10 14
72 67 62 56 60 64 67 64 57 54 63 71 71 70 71 72 74 72 72 72 70 69 66 62 59 51 41 39 40 39 35 29 22 13 10 8 6 4 7 9 11 12 20
88 78 71 68 67 68 47 42 54 76 80 79 74 72 68 71 77 82 81 78 75 69 66 64 54 47 46 45 43 38 32 21 17 10 8 5 4 9 13 12 14 20 24
97 85 81 77 75 67 50 58 76 87 84 81 77 73 71 73 74 73 73 72 68 66 66 62 53 50 49 48 41 34 25 20 15 8 6 5 8 16 15 12 15 21 26

GFSMW_500_rhum_066.txt.gz
RH
18 15 12 12 11 11 10 11 11 11 10 10 10 10 10 10 10 12 38 35 40 52 57 64 69 77 83 83 64 52 50 58 63 65 69 68 61 62 68 76 79 84 76
16 14 13 11 12 11 10 10 10 10 11 11 12 11 11 10 9 12 18 25 30 48 56 65 71 72 84 85 84 82 76 74 82 88 86 71 65 68 66 72 77 75 89
14 13 12 11 11 10 10 10 10 9 8 9 12 10 9 10 10 10 11 12 21 30 48 56 67 66 77 79 87 92 85 82 86 88 85 77 67 78 80 75 80 74 77
15 14 13 12 11 10 9 10 10 10 9 8 9 11 10 10 11 10 10 10 11 14 22 25 32 35 50 67 80 90 92 84 89 91 83 64 64 70 72 74 71 70 72
14 13 12 11 11 10 10 9 9 9 9 8 8 10 10 10 12 12 11 10 10 10 14 21 36 27 33 31 39 58 64 70 78 82 73 68 63 69 74 66 71 73 73
12 11 10 9 9 8 7 7 7 7 8 8 8 9 10 11 13 16 14 12 11 11 11 14 22 29 35 41 51 55 54 64 69 75 52 63 70 63 68 73 66 71 79
11 11 10 10 9 8 8 7 6 7 7 8 10 12 13 14 16 18 17 18 18 18 18 18 20 27 30 48 49 54 67 71 75 76 80 84 88 81 74 77 80 84 83
11 11 10 10 10 9 9 8 8 10 12 13 14 14 16 16 16 15 14 12 12 11 14 18 22 24 24 28 41 54 56 66 73 78 79 82 86 84 79 83 92 90 89
12 12 12 12 11 10 10 10 12 13 13 12 10 10 9 9 8 9 9 10 11 12 13 14 14 16 17 16 18 19 42 58 63 75 76 98 97 79 76 94 98 98 99
15 14 13 12 12 12 12 11 10 10 9 8 8 10 11 12 13 14 16 19 21 22 23 24 26 27 26 23 23 26 33 46 63 69 66 97 86 99 92 91 90 87 93
16 14 14 13 12 12 11 10 9 9 10 12 14 16 18 20 22 25 30 37 41 43 45 44 38 38 42 47 52 50 38 29 30 31 50 61 82 96 63 74 86 96 95
16 15 14 12 11 10 9 10 11 12 14 16 20 15 15 15 17 19 19 20 22 23 22 23 24 29 34 40 55 55 55 62 53 42 36 23 25 25 36 51 62 64 67
14 12 11 10 10 11 11 11 11 15 20 17 13 12 13 14 16 26 28 29 33 38 34 29 25 26 28 28 38 65 71 64 67 70 54 30 22 25 26 60 88 96 99
15 14 14 14 14 13 13 16 15 21 18 14 13 12 9 11 19 24 20 21 25 28 25 28 39 45 44 44 37 53 98 92 89 91 56 31 26 46 95 100 100 96 100
17 16 20 23 23 20 20 18 20 18 16 15 13 10 6 9 12 16 25 39 36 33 37 53 56 69 83 67 55 46 80 93 100 95 45 49 63 99 100 100 100 97 97
32 34 32 31 29 26 27 25 20 19 17 15 15 10 8 12 18 26 41 53 59 52 52 82 75 86 80 100 100 100 100 100 99 92 62 75 100 96 97 100 99 100 92
31 29 34 31 30 28 29 21 19 21 22 16 15 16 13 12 18 28 51 56 68 89 98 98 96 97 100 100 100 100 100 96 91 82 92 100 100 100 99 99 99 97 85
27 31 38 38 32 37 36 29 26 22 24 21 22 22 23 22 26 30 36 41 55 63 88 95 97 99 100 100 100 99 100 100 100 100 100 100 98 92 99 96 61 34 26
43 41 41 41 48 49 39 36 28 27 30 27 27 27 32 36 34 36 40 55 56 66 95 96 97 100 100 99 100 100 100 99 98 100 99 100 96 68 35 30 23 16 10
46 48 47 46 41 38 44 36 31 37 37 36 36 35 38 45 49 52 60 64 66 68 83 99 98 66 80 86 99 100 100 98 89 71 50 37 31 29 23 16 11 8 4
49 50 48 43 44 46 46 42 38 44 46 47 46 39 49 51 56 65 73 76 80 85 91 90 91 93 92 90 84 72 63 54 41 32 30 30 27 18 13 10 7 5 4
54 52 51 47 48 57 49 45 42 44 49 58 56 59 59 59 62 66 68 68 68 70 70 69 69 68 64 58 50 42 36 33 35 34 30 24 16 11 9 6 6 4 5
65 58 55 51 48 48 48 53 53 52 55 67 65 63 62 61 60 58 56 57 61 62 64 64 62 58 53 44 40 39 41 41 38 32 24 19 11 11 8 6 5 6 12
77 73 71 63 56 57 58 62 63 60 61 63 62 60 63 59 56 54 55 59 63 65 63 58 57 55 49 47 46 46 45 40 33 28 21 20 12 9 7 5 6 13 12
88 87 80 69 66 68 63 52 45 49 63 69 68 67 64 58 56 59 62 64 63 60 56 55 57 56 53 54 54 52 48 40 35 31 26 22 13 8 8 6 13 17 16
97 95 92 84 80 76 60 50 53 68 78 84 83 76 67 64 64 64 64 61 56 54 51 50 54 60 59 58 58 56 50 43 37 32 27 18 10 8 7 7 18 21 19

GFSMW_500_rhum_069.txt.gz
RH
30 24 24 23 19 13 11 12 12 13 12 11 12 11 12 29 28 26 19 18 15 12 14 26 42 41 52 61 64 74 82 84 71 58 52 58 65 74 75 68 66 63 64
27 24 26 25 20 14 12 12 13 12 12 11 10 11 11 12 13 14 13 12 11 12 11 12 21 27 38 53 71 86 82 90 85 83 78 74 78 92 95 83 69 75 77
21 21 21 21 19 15 13 12 12 12 12 11 10 10 9 9 10 12 12 11 10 10 11 10 10 12 22 40 56 77 88 89 85 94 93 91 92 99 97 88 80 74 79
19 15 14 14 15 14 13 12 12 12 12 12 11 10 10 9 10 12 13 12 11 13 29 38 19 20 22 24 34 39 58 65 71 84 90 92 91 88 89 91 67 70 72
60 37 17 11 11 11 11 10 10 10 10 10 11 10 9 9 9 10 13 14 15 15 17 37 46 40 36 42 50 60 58 63 59 57 63 93 91 82 79 67 72 72 86
17 15 13 13 12 11 11 11 11 10 10 9 9 8 8 9 9 10 12 13 15 18 18 19 29 22 27 22 33 50 65 76 73 73 79 84 86 86 84 88 84 88 95
22 25 22 17 16 12 10 9 9 8 7 7 6 6 7 8 10 12 14 16 18 21 22 23 22 22 26 23 23 45 64 79 83 84 87 90 96 95 97 93 88 75 82
15 18 19 15 12 10 9 9 9 9 8 8 8 8 10 12 13 14 15 16 17 16 15 14 14 17 22 28 29 31 31 33 44 49 55 70 91 100 98 93 74 83 96
14 13 12 11 10 11 10 10 10 10 9 9 10 11 13 13 12 10 9 9 9 10 10 12 14 16 17 18 19 20 32 43 50 55 51 48 56 74 81 80 84 98 93
15 14 13 12 11 11 11 12 11 11 11 11 11 10 9 8 9 11 13 15 18 19 23 26 30 32 33 35 36 36 33 30 34 43 54 49 53 62 73 96 77 91 98
16 14 13 13 14 14 14 13 12 12 11 10 8 9 10 12 13 10 9 8 9 10 14 18 22 24 30 46 64 63 55 50 53 62 62 56 46 41 59 85 73 74 74
17 16 16 16 15 14 14 13 11 10 9 8 10 11 15 11 10 10 6 6 6 9 13 28 37 38 41 38 34 31 41 59 69 71 68 63 66 62 48 41 88 60 35
19 18 17 16 15 14 12 11 10 9 9 10 12 16 14 12 8 6 6 8 12 17 24 24 22 26 24 29 38 36 35 36 38 56 72 75 72 73 72 58 49 43 31
20 18 16 14 13 11 10 10 10 10 11 13 15 17 13 10 7 7 7 9 11 19 27 29 32 39 49 50 50 58 67 68 44 40 51 62 78 79 82 74 68 37 28
16 15 14 13 12 13 12 12 14 14 14 16 20 14 11 9 9 10 11 16 14 14 32 42 46 46 38 48 69 87 77 91 79 51 54 60 73 91 98 75 39 49 76
18 16 16 16 16 17 19 22 21 19 19 22 18 15 12 9 9 13 13 14 11 14 25 30 42 46 50 41 42 52 66 68 71 77 100 100 100 100 99 77 69 96 100
19 19 22 26 29 28 26 24 21 23 22 16 18 17 14 12 14 15 18 21 27 34 38 43 47 51 56 68 80 90 94 99 99 100 100 100 100 100 91 100 100 100 98
35 35 35 33 32 33 32 27 30 28 27 24 20 21 20 16 18 26 25 26 31 40 45 49 62 65 54 58 71 97 100 99 100 100 100 99 100 100 100 98 88 39 22
43 38 34 31 37 34 34 38 37 33 30 24 25 25 24 23 24 27 30 34 41 39 47 57 53 54 65 76 87 95 98 100 100 100 100 99 96 73 39 32 25 15 12
37 44 44 42 43 45 42 44 40 33 29 32 34 30 31 31 34 36 47 52 58 56 58 62 62 68 74 84 91 97 100 98 91 82 63 42 35 33 28 21 14 11 11
54 52 48 52 52 44 40 42 43 39 35 39 42 42 38 42 51 50 52 54 55 59 59 58 59 60 62 62 62 61 53 42 36 37 38 36 32 27 22 18 11 11 11
62 58 57 62 45 44 49 51 46 41 39 39 42 51 56 58 53 52 52 50 47 46 51 55 57 57 54 53 48 42 37 37 40 41 38 33 31 26 23 21 15 10 12
70 64 54 54 50 46 50 49 47 44 47 49 56 64 64 61 56 52 49 45 44 48 52 51 45 41 43 44 42 44 45 47 46 43 38 35 33 31 28 23 14 10 8
73 67 64 57 57 55 51 48 49 58 60 59 64 67 62 58 56 50 46 47 49 48 42 40 37 38 40 41 42 43 44 44 44 42 41 39 36 34 29 18 11 9 6
75 81 82 76 71 65 59 57 62 59 55 65 69 64 61 63 58 54 52 51 48 44 43 41 42 45 46 47 46 46 46 46 47 49 49 44 41 37 26 20 14 9 7
90 90 88 84 80 77 73 70 53 46 57 67 70 75 74 73 63 62 58 57 55 45 45 47 49 51 53 52 50 49 50 52 54 54 54 48 44 39 25 19 13 10 8

GFSMW_500_rhum_072.txt.gz
RH
52 39 32 30 32 29 22 20 17 12 19 17 15 14 12 17 16 19 18 17 21 16 18 15 10 9 9 11 24 26 32 48 62 70 80 86 86 80 74 74 74 83 78
68 50 40 35 32 26 24 23 19 13 11 10 11 13 11 10 10 21 18 11 11 22 22 23 26 14 13 10 15 15 32 45 56 60 84 83 87 92 96 92 92 88 91
70 56 47 38 33 28 26 25 20 14 12 12 11 11 12 10 9 10 10 12 15 18 24 27 37 38 38 27 30 46 59 61 64 66 70 78 87 95 99 96 97 97 97
74 54 38 32 29 28 28 26 21 16 12 12 12 10 10 10 11 11 11 11 10 9 14 32 31 33 37 27 46 50 58 62 69 84 86 77 71 68 75 82 88 97 92
76 59 37 21 22 21 21 20 18 16 14 13 12 12 10 10 10 11 11 11 11 11 12 13 15 15 33 32 32 39 39 55 71 76 85 88 94 95 90 86 90 95 98
70 60 36 38 36 24 14 12 13 13 12 11 11 11 11 10 9 9 9 9 10 10 13 16 18 18 21 27 28 32 39 31 52 55 63 80 97 96 95 96 97 98 98
24 34 51 52 54 36 22 14 12 11 11 11 11 10 8 8 7 7 7 8 10 11 14 18 24 20 19 18 17 18 23 25 35 41 29 52 89 99 100 100 98 95 98
43 26 20 18 17 17 17 16 18 14 10 9 9 9 8 8 8 8 8 10 12 14 14 12 11 11 13 14 15 14 16 28 29 36 58 62 64 63 69 81 83 72 86
47 42 23 19 19 22 25 26 18 13 10 10 10 10 10 9 9 9 11 12 10 8 10 13 17 21 24 28 34 38 39 42 48 55 62 60 56 68 74 80 84 75 75
20 18 17 15 14 14 13 12 11 11 11 10 10 10 10 11 11 10 9 9 11 11 10 8 6 7 9 11 12 14 32 33 45 70 72 76 82 81 81 75 66 56 63
20 19 17 16 14 14 13 13 12 11 11 12 12 12 11 10 9 9 11 14 8 6 5 5 8 10 14 17 19 21 19 21 27 43 41 81 86 79 85 86 86 81 64
21 19 18 17 16 14 13 13 13 14 14 13 12 11 10 8 10 12 13 8 6 5 7 9 8 8 14 16 23 25 41 42 36 33 44 64 100 100 100 91 81 80 77
25 23 20 18 16 14 14 16 15 14 13 12 10 8 9 10 11 14 9 7 5 5 6 7 7 8 14 24 23 22 25 45 64 65 64 65 66 82 90 99 99 93 91
22 21 21 20 19 18 17 16 15 13 11 9 9 9 10 11 14 13 8 8 6 8 7 6 8 15 18 19 21 34 35 29 46 83 78 96 79 59 40 36 51 59 76
25 24 23 21 20 18 16 14 12 11 11 10 10 11 12 15 16 12 8 8 9 10 12 15 18 21 24 25 25 31 47 50 47 41 54 84 83 63 47 99 92 92 100
22 21 20 18 16 14 13 13 13 12 12 14 15 14 15 19 15 12 10 11 9 14 20 18 17 27 27 32 32 32 45 47 58 76 56 57 71 96 100 80 85 100 100
20 19 18 17 16 15 16 15 16 19 21 20 18 20 23 20 17 15 12 12 15 19 24 27 24 24 28 34 38 46 47 52 58 66 86 94 95 100 100 98 100 100 100
23 21 20 19 17 16 19 25 27 30 28 26 24 24 21 20 20 19 17 18 16 26 29 29 33 40 46 47 48 49 53 57 60 68 80 95 100 100 100 97 91 74 42
22 21 23 26 28 30 30 31 33 28 30 32 29 26 22 24 25 24 24 25 28 35 41 44 48 50 50 47 52 55 62 72 80 83 84 79 74 64 48 40 30 23 18
40 37 37 36 33 32 34 38 37 42 43 36 32 29 32 35 29 32 33 35 38 40 44 44 42 41 44 47 46 45 44 42 38 37 38 41 41 39 35 31 27 23 23
57 46 38 41 44 45 46 45 41 38 43 39 34 37 41 42 41 39 44 45 44 47 40 36 35 40 40 33 30 33 37 38 38 40 42 43 40 36 33 32 31 30 29
78 67 61 53 54 54 49 44 43 50 45 40 39 39 41 45 52 52 51 50 48 42 37 37 36 34 32 30 32 35 37 38 37 38 39 39 39 41 41 40 38 35 27
81 72 65 57 59 58 50 47 54 52 50 45 44 50 54 57 59 56 54 52 45 40 40 37 32 33 33 36 38 38 38 39 39 40 40 42 43 46 48 45 42 40 30
80 80 74 66 59 58 55 51 48 47 46 47 54 65 67 65 63 58 56 50 47 46 44 37 35 36 40 44 46 44 44 44 43 43 44 46 50 53 55 51 47 40 28
75 74 75 77 75 66 62 62 58 52 52 57 60 66 71 71 66 67 61 55 53 52 52 43 41 46 47 47 48 47 47 46 46 45 47 50 52 54 54 54 52 43 32
72 86 92 93 88 84 80 74 68 66 64 56 58 71 74 71 73 80 74 72 61 58 57 54 48 50 54 54 52 51 51 50 47 44 44 45 48 52 54 56 55 43 34

GFSMW_500_rhum_075.txt.gz
RH
56 48 45 40 33 29 26 24 21 22 25 29 40 39 33 27 19 13 19 35 21 21 24 24 26 24 23 27 28 23 16 14 15 14 20 31 39 59 75 88 88 98 97
66 48 44 38 35 31 27 26 26 25 22 20 17 20 22 25 23 21 23 22 14 21 19 22 19 22 25 34 32 40 41 46 63 70 71 61 63 73 74 79 92 95 90
84 61 45 42 37 35 33 33 32 30 25 20 19 14 14 13 13 10 10 17 27 30 35 20 20 22 26 30 36 41 48 67 76 75 84 78 79 85 96 93 85 86 82
83 78 71 47 49 48 42 38 35 30 25 22 20 17 14 12 12 11 10 9 9 11 14 20 21 20 15 15 27 35 51 50 59 63 74 74 75 73 78 100 98 97 96
68 76 77 77 70 62 64 52 37 30 26 23 22 18 16 13 11 11 12 12 12 11 10 9 8 8 9 12 14 19 21 26 34 37 43 57 77 84 89 98 100 98 97
83 87 79 75 70 56 41 52 39 29 26 24 21 18 15 13 11 10 10 12 12 10 9 8 9 9 10 13 15 16 17 17 20 23 23 33 54 67 77 84 96 100 97
92 83 76 82 81 57 28 21 20 18 16 18 17 15 13 11 9 10 9 9 8 8 8 10 12 15 15 12 10 10 12 17 17 20 24 36 39 41 60 75 74 66 87
38 44 54 71 83 54 43 50 54 34 17 14 13 12 12 11 10 9 8 8 8 8 9 11 13 10 10 15 15 13 9 8 9 10 14 21 40 63 91 98 100 90 84
29 30 27 26 24 35 40 30 22 18 16 14 16 15 11 10 9 9 10 9 9 10 11 9 9 11 8 8 6 6 10 11 13 15 18 19 23 30 46 79 95 100 90
32 30 31 30 44 39 23 20 21 25 28 27 19 14 11 11 11 10 10 10 10 10 8 10 10 6 5 6 7 8 9 10 11 14 24 23 26 39 36 48 84 100 100
70 41 25 22 26 29 21 18 16 15 14 13 12 12 11 11 12 12 11 10 9 9 10 10 5 4 4 5 7 9 9 12 13 18 28 26 32 39 69 44 65 100 98
82 67 35 26 23 20 19 17 15 14 14 14 13 12 13 13 13 11 10 9 10 12 11 6 5 4 5 6 6 10 14 13 15 16 25 33 38 48 98 96 65 100 100
31 36 25 23 21 20 19 18 17 16 14 14 14 15 14 13 11 10 9 10 12 13 7 7 6 6 7 11 14 18 19 17 18 21 20 27 33 40 55 90 84 75 94
31 30 31 24 24 24 23 20 18 16 16 16 16 14 13 11 9 9 10 12 14 10 8 8 9 10 12 13 16 17 19 23 25 26 26 28 36 44 45 55 68 52 59
40 36 31 27 24 22 20 19 18 18 17 16 14 12 10 9 10 11 13 16 14 9 9 10 12 14 14 14 17 20 26 31 31 33 37 31 30 42 50 70 73 48 63
34 31 29 27 25 23 22 20 18 17 14 12 11 11 11 12 14 15 16 17 13 11 11 14 13 15 15 18 23 32 33 36 39 40 43 41 41 45 59 72 79 99 100
29 27 25 24 22 20 18 16 15 13 13 15 17 18 18 16 16 21 23 18 16 15 15 16 16 19 24 30 36 35 32 36 47 55 53 54 54 58 66 72 80 92 91
28 27 24 21 20 19 17 16 16 17 21 26 25 23 21 22 22 21 20 22 22 20 24 22 25 32 34 35 32 31 32 36 36 33 34 33 32 31 32 36 34 32 29
30 26 24 22 20 19 19 20 22 25 31 32 28 27 29 28 28 25 26 28 28 33 30 31 35 37 32 28 30 31 27 25 24 26 25 25 27 29 31 32 33 33 32
25 24 23 22 23 28 32 33 30 31 36 32 32 37 34 33 32 32 36 35 38 38 38 41 40 33 31 30 28 26 25 26 26 27 28 28 29 32 33 35 37 38 39
45 53 48 41 42 40 38 40 38 40 41 40 47 45 36 34 38 42 43 43 45 46 46 43 37 32 34 30 28 28 32 32 32 34 34 34 35 37 39 42 45 48 49
75 76 69 54 50 46 46 49 48 46 44 44 47 43 40 40 44 47 55 56 54 49 48 42 37 36 30 30 31 34 38 38 38 38 38 38 38 38 38 40 44 47 51
86 84 78 70 63 56 56 60 52 48 53 52 52 48 49 51 56 65 64 56 54 53 47 43 42 41 34 34 37 38 40 41 41 39 39 38 37 37 36 37 40 47 51
89 84 83 79 70 63 65 59 55 52 56 56 54 54 57 64 72 68 65 61 60 55 52 48 47 48 42 40 42 44 46 46 46 44 42 40 39 37 35 34 38 43 46
88 82 79 78 77 74 70 66 62 62 57 54 58 63 67 67 68 71 72 73 70 66 64 56 54 54 53 49 49 51 53 54 50 46 44 42 40 38 37 36 39 43 42
82 83 80 78 81 84 85 80 77 73 72 68 67 64 64 66 71 76 78 81 84 80 71 65 65 65 60 58 56 57 59 57 54 51 48 45 45 44 42 39 39 38 45

GFSMW_500_rhum_078.txt.gz
RH
94 94 59 51 37 31 32 29 26 24 23 23 24 24 32 34 32 30 26 31 24 17 20 20 23 22 20 21 17 19 29 38 36 37 37 38 53 64 81 73 64 65 68
88 79 76 50 43 40 35 35 33 30 27 28 39 39 30 38 44 38 31 24 24 28 16 16 37 41 41 21 21 18 18 24 34 31 32 46 63 79 76 84 85 87 86
82 82 74 58 48 44 40 38 34 31 27 25 28 24 22 22 22 21 20 21 26 30 38 35 40 30 22 19 26 22 19 11 15 45 60 56 49 49 64 74 74 86 87
74 74 79 76 64 46 44 40 35 32 30 31 31 30 27 23 20 19 26 40 24 18 12 16 19 16 17 12 10 10 10 21 29 28 33 25 22 28 30 60 80 85 92
74 73 79 81 73 66 53 41 38 33 29 30 33 32 31 26 22 20 16 14 13 12 11 10 9 9 10 9 8 8 17 16 19 22 24 34 36 37 43 43 47 65 89
74 72 73 81 83 63 52 58 64 51 47 44 44 47 44 28 22 21 18 15 14 12 11 10 10 9 7 7 7 8 11 12 21 16 20 19 29 18 32 33 29 33 45
74 79 79 77 80 85 84 73 63 64 67 63 63 48 28 22 22 20 17 15 13 12 12 11 8 8 8 8 10 9 8 7 6 6 4 6 8 9 11 22 24 30 35
79 79 76 84 90 89 93 94 89 73 47 37 59 51 42 25 16 15 12 11 11 12 10 9 9 9 9 11 9 9 5 5 4 4 7 6 8 10 13 15 21 22 31
97 92 98 100 100 93 95 96 91 66 41 47 39 28 17 16 13 12 11 11 9 9 9 10 10 11 11 9 11 6 5 6 6 7 7 8 9 8 10 14 21 21 24
96 71 42 42 59 66 72 86 97 81 56 47 43 26 17 15 15 16 16 12 10 10 10 11 12 10 9 12 8 5 5 5 6 7 11 12 13 11 14 15 14 14 22
80 91 72 34 30 29 28 33 35 45 43 21 19 21 26 27 24 18 13 11 10 11 12 12 10 9 12 8 6 5 4 6 8 9 11 14 18 17 19 14 15 18 22
47 96 77 38 25 24 25 30 51 36 26 19 18 17 16 15 13 12 12 11 13 12 11 10 9 13 10 6 6 5 6 8 8 11 16 19 22 23 22 15 17 24 28
40 52 92 77 70 44 28 24 27 26 19 18 16 15 14 14 13 13 14 14 13 11 10 9 12 13 8 7 7 7 7 10 11 14 22 27 29 28 29 21 21 29 37
39 36 66 78 89 72 42 27 24 21 19 18 18 16 15 14 16 15 14 13 12 9 10 11 16 10 8 8 9 11 13 14 16 26 28 26 32 35 32 35 34 31 38
39 36 41 58 36 48 29 26 24 24 22 20 18 17 17 16 15 13 12 10 10 11 12 16 15 9 9 11 12 15 15 19 28 27 22 22 36 42 42 44 45 45 47
58 49 42 42 35 37 34 27 25 23 21 20 18 17 15 13 12 11 11 12 13 15 20 17 13 11 11 15 17 20 29 30 27 20 20 22 25 27 31 28 26 40 36
37 41 41 40 36 36 26 25 24 22 20 19 17 15 13 14 14 15 16 18 19 23 22 18 17 15 19 22 24 30 31 26 20 20 19 19 21 21 20 19 18 19 20
40 33 30 29 28 26 24 22 20 19 18 16 16 17 16 20 23 20 20 24 27 26 23 23 22 22 28 31 31 32 27 22 21 20 20 21 22 21 21 24 26 26 28
36 33 30 29 27 24 22 21 19 19 19 19 20 25 29 27 25 25 27 28 26 26 28 28 28 34 36 37 36 28 25 21 22 24 26 25 25 26 28 30 30 30 30
39 36 32 29 26 25 24 23 24 25 27 31 32 34 31 28 33 34 34 32 33 35 33 35 41 44 42 39 31 28 24 24 27 29 29 28 29 31 32 30 31 31 31
38 32 29 29 30 27 29 32 39 39 36 33 37 39 40 42 43 36 37 40 42 43 42 46 50 47 43 35 32 28 27 28 30 32 33 34 35 34 32 32 32 31 30
33 37 51 59 61 55 49 43 42 45 46 46 46 44 47 47 41 42 48 45 48 54 55 54 51 48 41 38 38 32 32 34 37 38 39 40 39 36 35 34 32 30 30
48 64 77 88 82 73 66 57 56 56 57 54 50 54 54 51 48 48 50 53 58 60 56 57 53 47 44 42 42 41 39 40 43 45 46 45 43 42 40 36 34 34 34
82 85 95 92 89 81 72 69 73 72 63 59 64 63 60 55 55 57 62 66 65 62 62 60 56 55 49 49 49 48 47 47 48 49 51 51 48 46 42 39 37 38 38
98 96 98 95 91 86 79 74 75 70 62 64 65 62 60 60 63 70 73 72 70 70 72 72 69 64 58 57 58 56 54 54 54 57 59 56 53 47 42 42 40 38 34
94 95 95 96 93 90 89 87 80 75 73 72 68 65 65 71 74 76 80 80 76 76 78 85 77 67 66 64 64 64 61 60 61 64 65 62 55 46 46 43 37 33 31

GFSMW_500_rhum_081.txt.gz
RH
98 98 97 93 69 47 39 34 31 47 59 58 51 41 42 44 48 24 17 18 17 21 32 34 20 21 24 17 23 36 37 22 22 18 17 15 17 28 46 64 62 61 74
96 96 96 85 72 52 43 35 32 29 27 29 36 40 41 46 37 26 32 51 54 42 31 42 55 33 24 39 46 33 24 19 22 14 11 11 25 49 48 48 32 33 46
88 85 86 96 77 65 51 44 39 33 34 38 36 36 42 44 35 42 32 43 71 67 58 50 33 40 34 21 21 19 17 13 9 8 14 26 20 21 26 23 28 32 32
79 76 76 76 93 80 62 53 42 39 38 34 30 29 33 33 38 41 41 42 46 50 50 51 47 18 15 18 11 12 11 9 8 11 24 26 20 22 18 23 31 32 31
73 76 78 79 86 92 83 57 50 46 40 37 34 30 27 26 25 30 30 29 23 20 18 16 15 13 12 12 11 11 8 8 9 10 34 9 11 16 12 6 8 7 8
84 80 73 71 77 86 88 90 57 49 45 41 38 36 34 32 32 33 34 37 36 25 21 18 16 14 12 10 10 9 8 9 9 9 8 8 6 5 5 5 5 6 8
58 69 67 70 79 87 93 86 89 79 59 43 39 37 35 40 43 43 41 37 30 26 22 18 16 13 10 10 9 8 9 9 9 8 5 5 4 5 5 6 6 6 7
43 64 76 68 62 75 88 92 84 73 74 68 66 60 56 49 51 52 57 31 26 23 20 16 13 12 11 9 9 9 10 9 9 6 4 4 5 6 7 8 9 8 10
39 44 92 89 76 72 76 79 86 85 69 64 63 63 66 68 60 62 66 48 30 17 14 14 13 11 11 10 10 11 10 9 9 5 4 4 5 6 8 12 14 14 15
45 37 67 90 86 77 75 87 90 90 90 88 90 86 50 36 32 29 25 19 17 15 14 14 13 12 11 11 12 10 9 11 6 6 5 6 6 8 12 17 20 22 22
45 40 48 99 98 93 97 93 96 98 100 93 88 88 53 54 46 40 30 20 17 18 20 17 13 12 12 13 11 9 12 8 7 7 6 6 8 9 13 23 24 27 29
45 43 43 81 94 59 60 65 94 93 94 86 90 93 79 40 26 21 20 24 27 22 17 12 12 13 13 11 10 14 12 7 8 8 7 9 11 12 24 23 20 31 31
48 45 45 47 95 80 49 29 30 30 30 38 30 28 35 34 22 20 22 18 15 13 12 13 14 12 11 10 11 15 9 8 9 10 10 10 13 24 22 16 21 36 36
64 52 44 44 81 91 66 43 32 27 24 24 46 48 27 20 18 17 16 14 14 13 15 14 12 11 10 11 17 14 9 9 10 12 14 21 26 22 15 15 19 19 18
68 62 50 42 42 84 97 95 77 69 40 28 25 31 20 19 19 17 15 15 15 15 14 12 11 11 12 18 17 12 10 12 15 16 22 26 23 15 16 15 15 15 14
80 49 48 43 38 40 72 67 73 77 60 40 30 22 21 21 19 17 17 16 15 13 12 12 12 14 21 20 15 13 14 19 20 25 29 25 17 16 18 18 17 16 19
85 96 64 47 41 37 47 76 43 64 48 28 25 23 21 20 19 17 15 14 14 16 13 16 22 27 22 19 18 18 22 26 28 32 27 19 18 20 21 21 21 22 23
74 78 64 62 54 57 46 59 37 41 34 24 24 22 20 19 16 16 16 19 18 19 22 27 30 27 23 23 25 26 32 34 36 28 22 21 22 23 24 24 23 24 24
79 54 40 37 35 36 35 65 61 36 24 22 20 19 18 17 19 23 26 26 25 29 32 32 32 28 29 30 31 37 38 39 31 26 23 23 26 27 26 28 29 29 28
53 61 46 42 37 34 31 29 27 26 22 21 21 21 22 24 31 35 34 33 33 33 36 34 34 34 36 40 41 43 42 35 32 26 27 29 29 31 33 36 34 33 32
49 47 42 38 36 33 31 27 26 25 24 27 28 31 36 39 41 39 37 41 38 36 38 42 43 44 44 47 48 46 40 37 34 31 33 34 36 39 40 39 38 38 35
57 50 40 35 33 41 47 47 44 38 36 42 44 42 43 43 43 50 50 44 38 43 49 48 50 51 51 51 50 46 42 38 38 38 38 39 42 43 44 44 44 43 35
39 37 36 39 56 73 77 70 57 50 48 45 48 48 52 54 53 52 48 44 50 52 49 52 56 54 53 54 52 50 46 46 43 43 43 45 45 45 48 49 49 42 35
47 53 57 70 86 95 90 79 73 66 60 60 63 63 58 56 60 55 52 52 52 58 62 62 58 58 65 65 64 58 55 56 54 51 48 47 48 50 54 56 53 41 36
94 96 98 88 96 97 97 89 78 78 81 80 71 64 66 70 64 60 58 60 68 70 66 63 68 72 75 77 72 64 62 57 54 53 53 52 52 54 58 60 50 40 40
98 100 100 99 98 100 99 99 94 85 83 78 71 68 70 67 63 63 68 75 75 72 70 72 75 77 87 79 72 65 60 58 56 53 56 58 58 59 63 61 51 45 44

GFSMW_500_rhum_084.txt.gz
RH
99 92 96 96 96 94 95 97 97 98 97 92 79 73 74 70 45 33 50 54 37 24 19 16 18 24 29 25 30 24 23 39 43 30 24 16 11 10 13 20 25 20 23
93 96 91 97 96 96 95 94 96 94 98 99 94 85 80 69 55 54 63 66 77 67 37 55 61 57 47 63 43 32 38 30 22 18 14 11 9 9 15 24 25 37 30
98 100 98 97 95 96 96 95 89 76 65 64 69 78 80 75 68 57 47 56 70 74 70 70 90 84 60 41 51 70 34 16 14 10 10 9 7 8 20 19 21 16 17
98 96 97 98 96 94 95 96 74 49 43 40 36 37 40 40 40 38 50 59 55 53 59 54 49 41 46 49 48 30 23 12 11 11 9 8 8 9 8 7 6 5 7
97 92 96 97 100 93 92 95 95 91 62 44 37 36 39 44 45 45 51 45 41 49 60 49 42 43 47 32 18 15 14 12 12 10 8 9 10 9 6 3 3 4 6
96 96 94 89 79 84 97 96 89 82 80 67 45 36 34 33 32 31 30 28 27 38 38 30 30 35 29 23 19 16 14 12 11 9 10 11 9 9 4 3 3 4 6
92 97 94 85 84 77 83 96 99 96 86 69 59 54 46 38 35 33 31 29 27 28 31 37 41 43 32 23 19 15 13 11 10 10 11 10 9 6 5 4 4 5 9
78 83 91 82 81 76 72 81 98 95 96 92 71 54 50 46 42 40 40 39 40 42 47 54 52 40 25 21 16 12 12 10 11 11 11 9 9 5 5 4 5 6 9
57 61 59 56 58 66 70 70 73 83 91 86 89 91 82 58 49 45 48 53 51 57 60 64 63 37 26 16 13 12 13 11 11 12 9 12 7 6 6 6 6 6 7
43 46 58 48 50 66 75 64 60 60 68 79 86 86 81 78 70 62 66 68 68 60 41 48 47 30 16 14 15 19 14 11 13 10 12 10 7 7 6 6 7 8 10
39 42 58 59 46 44 70 90 94 89 81 81 87 88 86 74 66 70 75 72 47 38 36 28 20 18 16 19 17 13 12 14 11 10 14 8 8 7 7 9 9 12 19
42 37 44 61 44 43 71 93 93 86 80 84 86 90 94 96 95 94 90 55 54 48 38 26 20 22 23 19 13 13 14 12 10 14 12 8 9 9 11 15 20 22 17
64 55 48 58 53 40 65 100 99 88 90 94 93 91 89 91 92 85 87 78 60 27 23 21 23 24 15 13 14 14 12 10 12 17 10 10 11 14 16 19 24 18 13
74 67 69 66 52 42 43 65 98 78 76 75 86 88 81 76 80 62 45 53 60 42 26 27 16 15 14 15 14 12 11 12 20 15 12 13 17 18 23 27 21 14 15
83 92 87 69 48 46 45 51 81 87 55 38 29 29 27 26 30 38 47 44 22 21 17 16 15 15 15 13 11 12 15 22 17 14 15 21 24 27 28 24 17 16 17
92 85 87 67 53 48 45 55 77 92 93 70 72 61 38 29 29 35 54 46 20 18 17 15 16 15 13 12 16 21 25 20 18 18 24 27 29 30 26 19 18 20 19
98 94 92 78 70 57 50 43 53 59 79 85 82 84 73 62 44 40 36 26 20 18 17 16 14 13 19 21 28 28 22 22 23 27 30 31 33 29 22 20 22 23 24
97 100 100 90 69 58 52 45 43 43 55 75 56 73 81 72 37 32 23 21 20 18 16 16 21 23 24 30 30 26 25 28 31 34 36 37 31 26 22 23 25 28 30
95 97 96 100 100 95 90 80 65 54 53 80 57 45 64 30 26 24 21 20 17 18 17 22 28 28 34 34 30 29 33 37 40 41 40 35 30 27 27 30 33 36 37
100 93 86 72 60 55 52 54 46 47 68 53 68 75 39 24 23 21 19 18 21 27 31 32 35 35 36 34 33 38 44 45 45 43 39 35 32 32 34 37 39 40 42
97 97 91 94 76 70 54 41 36 34 37 46 54 53 25 23 22 22 23 27 34 41 42 41 41 42 39 41 45 49 49 47 47 44 39 37 37 39 40 41 42 43 44
83 89 66 52 48 45 40 48 46 36 30 35 38 46 42 32 28 34 41 44 46 48 48 45 47 48 48 51 54 51 50 51 48 47 47 47 44 43 43 43 42 44 48
65 71 72 52 46 40 41 46 47 50 46 42 41 38 46 48 46 48 53 56 62 58 52 51 52 54 58 59 55 53 56 57 61 56 57 56 52 51 51 50 50 50 52
63 53 43 45 47 54 60 76 94 88 74 61 51 53 53 53 56 64 60 60 60 57 58 58 62 65 64 60 58 64 68 72 68 64 60 54 55 56 54 50 49 51 53
45 46 63 84 80 72 84 99 100 97 91 86 81 74 74 75 71 66 68 69 66 68 64 66 72 70 65 65 70 74 83 79 70 64 57 56 56 53 49 51 54 54 53
73 78 99 100 100 98 98 100 100 100 92 89 92 88 81 74 73 82 78 72 71 76 79 78 75 72 72 77 81 94 88 75 63 59 58 60 60 60 62 62 60 61 62

GFSMW_500_rhum_087.txt.gz
RH
96 95 95 96 89 73 75 97 96 93 90 94 84 82 82 70 61 50 43 34 29 25 25 28 31 25 20 26 34 32 28 50 37 33 41 21 15 11 10 9 8 11 17
94 92 100 97 96 99 74 88 96 96 100 96 96 94 93 86 76 66 66 64 41 43 74 77 79 80 69 66 73 74 63 53 40 53 33 20 13 10 10 9 10 14 19
77 84 99 98 96 97 96 94 95 95 97 97 95 96 96 96 95 90 79 74 71 81 83 84 81 80 80 78 96 79 42 45 46 41 29 14 12 10 9 10 13 12 9
64 80 87 93 99 94 98 97 97 94 93 91 93 97 92 95 95 94 87 79 69 65 61 53 57 64 69 66 65 64 49 44 40 20 15 14 11 10 9 9 11 10 6
93 72 86 96 87 92 94 95 97 96 95 95 96 97 93 93 87 87 83 77 61 42 38 52 58 59 61 69 61 46 37 30 24 20 16 13 11 10 12 9 9 8 5
92 99 100 93 80 87 98 97 93 96 96 96 96 95 95 71 47 41 41 44 45 46 47 46 42 35 41 39 31 34 40 38 31 20 15 12 10 10 12 10 9 6 5
64 70 91 96 100 100 93 82 96 96 95 95 96 93 79 56 52 50 47 46 41 39 34 32 29 28 31 34 38 43 48 44 23 18 13 11 11 12 12 10 9 6 5
54 46 78 91 97 97 92 92 92 96 86 82 86 93 95 95 92 86 53 49 46 39 36 34 32 30 32 34 40 49 57 40 25 13 12 13 12 12 10 12 7 6 5
59 57 50 98 100 99 92 93 96 87 81 80 86 91 91 92 86 71 62 55 50 45 43 43 44 46 44 50 52 60 66 42 16 15 18 13 13 12 10 10 7 7 5
24 39 49 61 95 100 98 97 94 85 78 80 87 92 89 90 94 90 77 58 53 52 51 53 55 58 62 59 36 34 24 16 17 34 24 12 13 10 14 8 8 8 9
43 43 48 52 64 90 95 94 96 86 77 72 77 79 87 86 82 79 81 85 87 83 76 67 68 69 45 33 32 23 19 20 39 24 13 14 11 12 14 9 10 11 14
34 37 36 31 30 46 67 71 76 64 66 85 84 80 78 79 88 92 87 82 82 74 67 69 80 57 51 43 25 20 23 22 15 13 15 12 11 18 10 11 13 16 17
54 54 51 44 41 30 34 62 61 50 49 66 96 98 83 77 87 94 95 93 93 89 92 86 86 61 35 20 20 20 19 15 15 15 12 11 18 16 11 15 18 20 20
48 47 49 57 61 50 35 38 63 48 45 72 94 98 96 90 86 89 91 85 91 91 83 77 80 81 70 49 29 20 16 16 15 13 13 18 18 13 17 19 22 22 23
44 50 62 53 51 62 62 64 65 51 43 58 76 96 88 92 95 98 96 94 86 72 50 35 34 26 22 21 17 17 16 15 13 15 18 20 17 19 23 26 26 27 22
47 62 75 76 76 86 88 73 54 49 44 47 62 78 83 52 42 43 32 34 34 34 45 51 54 41 21 20 26 19 15 16 16 23 23 20 22 27 30 29 28 25 21
64 74 82 88 89 89 74 65 53 49 48 54 67 82 72 81 77 56 52 37 32 29 29 32 47 25 24 28 17 17 21 22 31 25 24 27 31 35 32 32 29 25 24
74 72 75 90 100 97 91 70 58 52 47 49 66 74 81 82 87 84 76 72 58 56 49 44 25 21 18 18 22 26 30 34 28 28 32 36 39 36 36 33 29 28 28
80 74 80 87 99 100 100 95 83 66 56 49 42 47 63 74 70 62 74 71 66 52 37 24 21 19 21 32 47 34 37 29 29 36 40 43 41 39 36 33 32 32 33
92 94 94 90 100 97 100 100 97 93 83 69 56 50 54 54 74 47 60 56 30 26 24 22 21 24 33 36 42 42 36 32 38 47 48 46 44 40 38 35 35 37 35
96 99 100 100 92 94 83 82 71 59 62 68 66 56 72 66 65 66 81 28 25 24 24 22 31 41 40 43 46 41 35 43 53 53 50 48 46 46 45 46 43 43 43
88 94 99 100 98 94 96 75 76 69 48 40 36 38 60 50 56 70 39 29 34 38 41 41 45 50 49 50 48 44 53 59 57 54 53 54 57 53 55 54 51 50 48
86 70 72 73 90 88 60 50 49 43 46 58 53 49 47 57 65 71 73 77 59 47 47 53 55 57 56 58 55 60 65 61 59 60 64 67 62 61 60 57 55 49 46
73 86 85 78 77 62 50 46 45 50 73 86 86 71 55 50 51 52 55 57 57 60 59 59 64 62 63 62 68 69 65 64 68 71 75 72 67 67 61 55 53 52 56
55 56 55 55 61 68 70 67 64 76 96 99 97 89 83 70 65 64 67 70 76 71 68 69 69 70 71 74 73 71 70 73 76 84 81 76 67 61 61 62 64 68 65
76 71 70 64 76 97 100 100 100 99 100 100 96 90 94 92 87 83 82 76 73 75 74 76 79 80 79 78 77 77 78 79 89 93 80 76 74 74 76 77 78 76 77

GFSMW_500_rhum_090.txt.gz
RH
95 90 98 92 95 96 67 74 68 94 92 98 98 93 91 67 70 71 63 59 54 46 36 30 28 25 23 35 32 27 27 53 61 69 68 43 62 49 27 17 12 10 10
83 86 89 96 93 95 96 73 71 63 95 97 96 97 96 93 80 68 70 65 59 49 41 37 34 34 71 77 78 77 69 69 80 73 45 51 49 32 17 15 12 10 9
82 100 92 86 100 97 95 94 80 69 63 84 94 93 97 96 97 96 96 77 77 77 74 83 57 66 83 85 77 71 71 77 71 64 49 46 32 20 22 15 12 10 11
48 82 96 90 100 95 97 92 99 90 68 72 96 97 96 96 97 96 95 95 95 96 96 93 81 81 75 64 52 65 66 63 66 55 43 35 33 39 28 14 11 11 16
52 52 66 99 98 91 98 93 89 91 98 94 97 97 98 96 96 96 96 96 96 96 96 93 91 79 72 40 54 54 50 53 52 31 35 43 43 31 19 16 10 16 20
45 56 63 71 87 90 90 95 95 92 92 85 88 95 97 95 96 96 95 95 96 96 91 80 63 44 42 45 44 37 31 36 34 37 43 50 47 26 16 13 16 41 18
62 53 62 88 66 64 73 89 95 98 93 94 88 97 92 100 98 94 95 96 94 73 48 44 45 51 52 42 34 32 33 34 36 44 44 55 53 28 14 14 17 30 13
64 76 69 88 91 87 78 84 86 88 91 97 99 97 96 97 96 95 92 97 95 88 58 52 55 60 46 40 38 37 37 45 48 51 53 73 48 19 16 18 29 14 12
72 75 69 67 78 95 98 100 99 99 93 95 93 91 93 96 95 96 98 99 90 70 70 74 58 55 63 60 48 41 42 53 52 63 41 29 17 16 24 27 15 12 14
46 58 60 54 56 70 93 91 90 93 99 97 94 96 82 80 77 77 86 91 93 94 93 90 90 86 70 49 50 56 57 66 47 28 21 18 18 26 23 15 14 12 15
21 37 53 54 55 53 71 91 94 99 90 86 84 89 86 88 86 80 80 84 88 90 88 86 77 62 58 61 74 75 66 59 38 28 19 20 22 16 15 14 12 17 11
34 30 26 26 36 57 70 72 91 99 99 93 96 100 96 86 82 78 77 81 81 82 83 83 84 85 84 78 71 66 72 54 43 28 21 22 16 15 15 12 14 17 13
34 31 39 43 40 33 24 25 34 52 89 98 97 100 96 97 95 86 87 76 77 76 80 86 87 86 86 83 87 84 82 52 47 35 30 19 17 16 13 14 21 16 15
35 40 44 51 44 41 36 35 33 26 30 59 85 95 96 87 73 80 81 79 87 84 86 93 86 85 90 86 82 82 81 82 70 25 18 19 16 14 17 25 20 15 23
36 33 34 38 43 43 42 38 45 44 33 35 44 69 64 57 56 62 88 90 84 84 85 87 85 90 86 75 36 31 24 22 22 19 18 18 18 21 36 18 18 25 29
37 38 40 41 43 52 57 59 50 57 48 51 57 67 54 50 74 76 73 90 83 86 86 86 87 84 67 36 44 50 49 26 22 58 27 18 27 29 23 22 27 32 32
35 37 42 45 60 70 76 85 70 72 76 71 62 56 50 46 48 55 83 76 61 59 66 38 34 33 30 43 42 45 68 44 59 22 24 35 34 24 26 30 37 36 34
38 43 47 58 71 71 76 91 86 82 80 76 54 52 50 54 56 68 78 74 79 72 58 53 53 49 40 36 62 58 28 22 26 36 41 44 27 30 36 41 41 38 35
38 51 60 68 71 69 73 99 97 90 78 66 58 52 52 58 70 87 88 86 79 76 70 80 72 65 70 57 28 23 25 36 44 80 43 29 34 45 46 45 42 38 34
63 69 75 83 86 84 77 89 100 100 98 88 79 68 61 54 46 43 49 67 76 76 61 71 81 89 56 58 35 33 49 77 66 39 31 37 50 50 49 46 42 42 42
70 88 96 96 100 89 90 86 92 99 100 100 98 94 87 79 73 66 60 62 59 70 46 53 32 29 28 29 47 49 48 52 46 37 37 51 55 53 50 48 49 50 54
67 82 98 100 99 96 93 97 94 92 81 74 59 51 50 58 52 55 48 65 64 66 71 67 36 41 43 52 53 53 49 51 41 40 56 60 57 55 56 58 57 59 56
78 82 86 89 93 89 93 100 95 75 94 92 82 82 83 66 50 42 76 72 56 61 74 54 58 66 77 60 63 56 64 55 47 65 66 62 60 63 66 66 65 62 58
70 71 84 88 76 69 72 72 77 68 60 51 54 64 78 80 80 68 66 68 81 93 88 86 84 69 69 75 74 75 70 61 71 71 66 67 71 74 77 74 67 59 62
66 63 61 64 69 75 74 67 55 57 60 63 76 95 95 94 95 89 80 74 73 72 78 84 90 92 93 91 86 79 72 78 74 72 72 75 80 85 80 70 70 72 74
75 68 64 92 80 66 64 64 81 94 96 93 90 100 100 100 100 98 92 85 79 84 86 88 88 88 88 87 85 83 88 83 79 78 79 84 90 90 82 83 84 83 84

GFSMW_500_rhum_093.txt.gz
RH
20 20 12 29 62 92 82 86 86 81 75 80 81 90 98 92 84 47 32 36 47 60 55 50 45 37 28 23 22 28 52 66 70 71 70 75 80 60 48 47 30 35 49
20 19 12 33 52 89 100 94 92 93 80 61 76 89 90 92 94 93 72 35 42 50 51 54 52 44 32 30 28 61 84 85 79 72 70 75 70 65 49 34 34 45 38
19 20 13 57 98 79 92 100 96 93 92 56 56 90 98 97 96 93 94 93 73 58 49 61 62 57 60 62 49 82 88 81 60 61 71 67 67 57 35 37 43 35 21
16 17 10 18 96 99 93 98 94 96 92 91 59 52 71 92 91 94 96 96 94 90 88 91 93 89 84 94 93 93 84 92 54 63 62 51 49 33 35 42 51 35 19
18 17 12 21 53 96 90 79 90 93 90 94 95 77 66 52 83 95 96 94 90 96 97 96 97 96 95 96 96 95 80 42 52 59 36 36 34 37 45 54 63 52 18
19 20 15 22 38 79 84 83 82 87 97 96 84 87 92 76 69 70 83 96 96 99 97 96 96 97 96 95 91 86 51 47 66 70 33 35 39 49 57 76 70 50 36
17 16 15 20 44 57 97 98 90 95 99 97 97 79 82 98 96 91 97 97 97 97 98 94 95 96 95 72 57 50 52 73 83 39 39 39 45 58 55 57 74 44 17
17 20 23 23 33 55 63 74 94 99 94 90 94 82 92 98 97 95 94 95 89 96 96 95 90 91 90 84 68 55 89 70 51 52 49 54 52 59 67 45 20 16 22
20 31 40 44 32 46 53 76 76 82 93 88 84 84 91 94 97 92 94 96 93 96 97 95 94 96 96 90 79 82 92 81 91 72 52 55 58 53 29 22 18 18 19
18 39 50 48 57 84 74 81 90 67 61 65 68 76 83 85 91 94 95 94 97 95 93 92 93 92 87 83 82 95 96 93 60 55 60 72 62 38 30 21 20 19 16
19 32 56 62 71 81 69 74 80 86 99 98 95 94 86 74 89 87 92 91 91 85 90 81 80 86 95 94 84 82 73 59 59 67 79 68 60 44 31 20 20 17 17
22 21 24 45 53 64 69 64 72 74 83 98 98 98 98 97 96 94 95 96 94 93 88 83 82 80 79 83 88 90 86 84 83 80 84 85 70 31 36 31 24 23 15
26 28 26 23 27 35 42 48 51 57 74 80 89 95 100 98 93 89 100 100 98 95 90 85 82 85 83 82 81 78 76 79 85 86 86 81 74 62 68 28 18 16 16
36 28 31 28 31 37 40 40 40 38 35 31 33 42 61 91 96 98 100 93 95 96 94 87 83 75 72 77 76 80 80 82 84 82 77 73 71 49 22 18 17 17 23
39 32 30 34 36 37 39 38 38 41 38 37 39 34 30 30 55 79 98 100 98 94 85 73 70 71 73 75 81 84 81 83 82 60 32 26 24 29 24 23 19 33 41
39 35 29 30 34 32 32 36 40 44 50 53 49 48 45 39 44 58 77 82 82 83 72 64 62 66 68 70 80 88 90 86 60 33 45 57 48 30 51 24 53 66 29
40 42 35 32 34 35 38 42 48 55 60 63 69 58 57 54 50 48 67 71 82 86 71 72 67 68 67 77 87 85 75 50 30 40 38 46 48 71 32 38 57 29 32
39 40 33 30 31 39 41 48 57 56 58 70 70 66 71 78 64 59 61 49 51 56 64 69 65 57 54 49 38 36 34 31 31 58 73 58 44 37 45 83 40 36 42
27 29 30 29 35 41 52 62 67 64 65 86 76 77 76 81 64 59 55 52 52 59 74 76 83 84 81 81 77 75 66 71 77 58 26 31 47 67 74 34 38 45 48
27 26 26 38 49 58 68 73 77 78 75 92 100 96 88 72 65 58 56 55 62 83 88 83 84 83 82 78 85 93 91 86 83 45 42 61 83 48 34 42 53 54 51
53 56 58 66 73 78 74 72 78 74 84 85 92 100 95 88 81 73 71 67 61 52 46 49 71 81 88 56 80 84 88 48 55 58 63 81 51 35 47 61 60 55 52
62 61 59 74 80 82 80 81 88 86 98 89 78 84 83 70 71 86 82 75 75 75 74 67 65 65 81 91 91 48 45 57 74 68 71 55 45 50 68 66 59 57 58
60 59 64 72 73 78 77 88 95 88 90 96 82 84 82 82 80 81 84 92 65 65 79 63 62 70 96 94 61 71 70 78 88 94 65 78 58 73 71 63 62 65 69
70 73 74 74 73 75 82 77 70 73 73 77 75 68 59 60 58 72 79 80 75 75 74 89 87 81 91 82 88 96 99 94 87 73 97 77 82 78 69 68 70 75 78
78 71 67 66 64 67 75 81 83 80 76 67 54 60 63 68 96 100 100 98 92 87 78 82 87 96 96 96 100 98 96 97 97 99 93 96 91 78 74 74 77 84 80
91 84 78 72 69 66 71 89 62 58 57 62 71 77 82 83 91 100 99 99 98 93 87 84 86 87 95 99 98 100 100 99 100 100 100 97 92 87 82 84 90 94 92

GFSMW_500_rhum_096.txt.gz
RH
20 18 17 16 18 31 44 88 82 81 94 64 46 54 71 94 93 87 74 63 49 32 32 33 44 54 52 46 42 32 26 24 37 74 84 80 76 68 72 68 64 50 36
18 18 19 18 17 20 33 42 90 83 74 83 88 60 64 66 80 92 96 96 90 48 30 28 37 47 56 50 50 41 33 28 39 81 86 67 62 72 79 64 55 34 36
18 19 20 20 20 19 16 12 42 81 94 73 83 98 82 72 78 86 90 90 95 95 95 89 69 62 67 66 62 55 43 42 56 88 85 84 62 71 71 45 37 37 47
19 18 20 22 22 22 20 35 18 50 89 88 78 94 94 97 94 90 88 96 94 96 97 96 97 96 95 96 93 86 88 94 98 92 93 75 77 62 54 40 36 44 51
17 16 18 22 24 18 22 37 39 40 65 90 91 94 95 98 97 85 72 94 95 94 95 95 95 98 95 97 95 96 96 96 96 95 95 62 48 85 60 37 46 48 56
16 17 19 24 22 16 14 15 31 68 99 69 84 88 96 97 96 96 96 93 79 69 84 95 95 97 95 95 97 96 96 97 97 83 53 57 92 81 66 77 51 48 61
16 18 21 25 22 19 15 16 30 48 88 98 94 86 79 96 80 83 97 98 95 92 85 87 91 97 96 100 97 97 96 96 90 87 85 91 69 84 79 61 52 55 58
20 21 22 24 21 19 14 11 15 44 68 89 83 69 63 95 97 96 98 96 95 97 93 98 97 97 97 97 96 91 95 92 95 93 80 84 87 92 63 57 57 66 38
21 19 24 24 19 17 15 14 15 34 49 84 94 84 73 83 91 97 97 100 90 92 90 93 95 95 93 95 97 94 88 84 72 72 84 96 95 74 63 57 73 57 42
21 21 18 18 17 17 21 22 28 35 54 80 79 91 91 95 98 99 94 85 88 93 81 84 87 92 94 89 84 80 78 82 84 88 89 82 72 65 65 80 71 62 35
18 18 16 13 11 28 44 46 44 68 67 79 81 67 85 88 88 87 79 73 77 78 85 90 99 91 90 93 93 76 73 86 94 90 78 77 74 79 84 79 82 76 35
42 25 15 14 12 33 60 65 72 84 83 91 81 79 72 70 90 92 90 74 68 62 71 86 83 81 74 75 75 77 81 88 90 95 88 81 78 82 80 82 78 79 64
26 17 18 17 14 15 34 56 71 78 72 74 84 93 100 95 98 100 100 96 100 98 96 94 75 75 80 79 82 83 78 83 86 83 79 81 79 81 81 76 78 81 62
19 24 26 22 24 24 20 26 40 44 44 40 36 35 46 65 74 75 77 76 83 87 98 89 84 86 85 85 90 86 78 79 72 70 71 82 81 80 80 64 31 23 27
33 38 40 29 27 26 25 26 31 38 41 39 38 37 37 34 34 31 29 34 41 76 87 89 90 96 100 97 90 81 74 69 65 64 72 72 73 84 64 31 41 38 26
40 50 49 36 31 30 37 41 45 44 37 36 37 42 49 44 47 42 40 36 29 34 53 75 94 100 96 97 88 78 68 63 65 68 75 82 85 77 36 39 47 61 73
63 64 48 40 30 29 34 34 32 31 32 35 42 52 56 59 60 60 46 46 48 42 34 54 73 83 92 85 80 73 66 59 61 83 98 98 79 46 33 40 44 46 52
68 61 51 45 42 36 34 32 32 30 31 40 47 51 50 54 74 71 56 50 56 61 52 57 66 85 83 73 74 74 62 56 58 56 44 36 34 33 58 64 43 49 48
40 34 31 37 43 37 32 30 30 32 40 48 53 59 61 68 84 77 75 73 75 63 62 62 54 57 60 86 89 96 81 74 75 81 73 70 68 49 33 37 45 51 88
52 44 34 28 29 30 30 30 34 48 56 61 67 66 59 66 87 92 91 78 72 64 60 60 56 55 69 90 91 98 96 98 97 91 97 94 92 95 72 60 85 90 46
42 36 39 36 30 33 35 38 54 61 64 59 61 66 69 74 81 87 90 95 88 74 66 64 77 65 70 80 89 93 98 98 89 89 100 97 90 77 76 70 79 48 59
58 53 54 58 63 69 62 68 76 73 65 65 60 64 83 78 79 81 74 71 71 83 86 74 75 72 76 75 64 65 75 66 55 63 53 57 55 76 80 94 58 70 72
55 57 60 64 64 63 66 74 79 73 69 72 73 78 80 84 86 87 80 79 76 76 86 90 65 60 63 60 59 65 70 83 93 75 72 82 84 94 97 72 81 78 80
59 59 59 59 62 62 60 67 69 72 73 71 70 73 74 77 67 60 61 62 57 86 88 81 78 84 86 93 76 64 76 98 86 88 95 100 98 99 91 99 87 93 90
79 76 74 72 71 71 71 74 74 78 80 81 82 79 75 67 59 62 63 63 87 93 94 98 97 94 91 96 99 96 94 96 99 98 100 100 99 91 100 100 100 99 98
84 86 85 86 83 76 70 67 67 66 66 71 65 62 62 69 71 85 93 92 90 95 97 97 99 97 92 96 98 98 99 99 100 100 98 100 99 100 100 100 98 99 100

GFSMW_500_rhum_102.txt.gz
RH
88 76 68 78 89 87 84 83 79 98 96 95 96 73 94 92 98 66 58 68 63 63 63 60 43 28 26 26 23 22 25 34 48 62 64 58 47 34 31 46 73 70 69
78 83 64 52 63 73 82 88 82 72 73 90 97 93 85 79 81 75 68 76 75 70 61 65 68 78 76 80 94 96 85 33 31 35 41 60 64 56 44 41 61 73 73
95 88 67 52 49 47 54 71 62 56 62 73 86 98 92 89 80 72 67 72 74 76 67 56 64 89 97 96 96 97 96 92 93 93 90 80 63 74 77 68 59 70 74
96 88 56 46 44 48 56 60 58 45 35 63 62 99 92 94 96 89 91 95 85 95 98 87 89 96 96 96 97 97 96 97 97 97 97 97 97 95 97 93 95 87 85
99 81 73 48 44 44 45 61 42 46 35 34 50 66 46 51 74 63 79 67 63 70 90 97 96 96 94 93 95 96 96 96 97 96 97 94 96 96 95 97 98 87 96
89 95 84 60 40 41 42 39 43 49 26 22 45 46 36 38 53 72 84 95 95 96 95 92 96 91 96 99 83 90 95 95 92 94 92 94 96 96 97 97 96 94 78
98 83 73 52 36 34 43 36 50 56 55 49 45 53 49 29 35 64 69 83 90 94 93 95 93 98 96 98 93 97 98 91 89 92 93 96 97 93 96 98 97 94 83
92 72 59 63 35 36 41 35 52 50 53 52 57 51 43 37 34 28 32 46 73 81 80 76 84 96 94 97 83 99 97 97 94 85 93 97 97 97 88 94 85 86 74
56 56 49 60 40 38 44 44 38 43 53 53 48 38 28 22 19 16 16 18 17 35 72 71 74 88 82 94 84 98 95 94 95 80 69 93 96 93 91 82 79 77 75
34 37 34 47 45 27 29 26 22 22 33 41 32 24 25 23 15 13 12 13 22 44 66 64 72 81 85 95 94 98 90 96 95 85 89 93 91 95 82 86 79 88 82
41 43 34 44 63 41 28 22 18 17 20 22 25 27 27 23 16 14 12 14 27 56 70 67 68 83 80 75 83 87 99 95 95 94 85 87 92 89 89 97 100 95 89
54 57 32 24 22 22 21 19 18 18 21 24 28 28 27 16 12 14 19 29 38 64 70 71 76 75 75 81 83 91 95 94 89 84 78 84 94 83 91 93 94 85 81
59 35 32 26 27 28 22 20 20 23 28 29 29 15 11 18 24 36 58 72 91 94 86 91 77 65 78 71 72 79 72 76 91 78 73 94 98 95 90 87 82 86 82
79 43 29 27 33 29 26 29 29 25 27 18 12 19 30 33 47 58 64 60 54 49 38 39 40 50 68 94 88 75 78 87 83 89 95 97 100 96 95 89 82 77 76
42 65 58 25 26 25 22 20 20 19 12 14 14 16 19 27 34 42 41 37 35 30 31 30 29 31 33 33 35 55 66 65 71 76 79 88 88 83 90 96 94 86 74
28 24 34 48 33 20 20 22 20 16 20 20 18 16 15 17 21 26 28 26 30 35 36 39 41 39 33 32 34 34 34 35 33 64 86 90 91 91 99 94 85 82 79
84 54 36 22 22 23 25 25 24 24 24 22 19 18 20 24 25 25 26 25 23 28 30 39 41 40 39 40 44 40 32 34 37 37 61 88 98 100 100 95 86 83 80
84 88 93 91 59 29 40 36 35 30 27 24 24 25 29 30 29 28 24 25 32 38 43 45 44 39 50 58 50 44 39 38 41 47 53 85 99 100 100 99 80 67 64
94 65 59 52 44 56 56 51 43 37 33 32 33 36 34 29 26 27 26 29 44 47 50 52 46 44 56 60 58 58 55 53 57 58 61 70 96 99 93 98 96 72 70
100 100 97 75 76 77 69 56 46 41 37 36 38 39 36 30 27 26 29 36 42 50 50 42 50 52 55 68 66 69 64 62 62 61 59 59 83 96 88 84 100 92 96
100 99 100 99 97 99 93 71 57 51 47 48 46 43 37 33 31 32 40 49 53 53 45 51 66 62 61 63 66 69 72 72 65 71 79 68 74 80 99 100 100 100 100
93 97 92 83 83 75 63 63 64 58 45 42 39 36 33 32 38 51 69 71 61 53 44 62 72 71 70 69 69 71 74 75 86 77 78 85 87 92 92 100 100 98 99
65 65 70 75 74 74 69 64 59 50 49 51 52 55 61 67 74 78 73 69 58 58 62 68 67 64 66 68 60 72 88 77 82 82 67 69 81 91 84 90 97 98 100
62 61 59 59 60 63 67 70 73 76 76 76 77 76 72 65 63 63 60 62 62 63 69 70 65 52 51 48 53 77 78 82 94 90 96 97 92 82 81 79 93 100 100
57 61 64 64 65 65 65 64 64 66 68 68 66 66 66 68 71 71 68 68 66 64 63 63 62 57 60 59 59 77 85 87 90 96 100 100 100 95 90 93 100 100 100
62 59 62 63 66 69 72 75 76 77 77 77 77 76 74 72 69 69 69 69 69 68 67 65 64 66 77 80 72 74 86 95 96 98 100 97 100 100 98 100 100 100 100

GFSMW_500_rhum_105.txt.gz
RH
87 91 96 95 97 96 96 94 96 66 77 76 74 62 61 56 62 98 51 62 78 64 70 70 71 66 68 66 55 44 45 44 60 82 48 33 40 41 49 54 54 58 46
86 77 80 96 96 97 94 96 95 94 96 96 95 88 97 81 62 65 97 85 92 70 62 63 66 70 79 83 80 86 92 96 93 97 96 80 47 48 57 55 58 66 65
93 81 71 85 97 96 95 94 96 90 96 92 96 96 96 96 89 91 96 89 83 76 66 63 70 76 78 71 52 65 90 96 96 91 94 100 93 95 98 98 87 81 95
81 72 70 72 86 93 95 97 97 96 94 95 93 94 97 96 96 94 94 93 96 94 90 87 89 88 93 95 93 95 95 95 96 96 97 97 98 93 94 88 97 98 95
61 65 65 67 88 77 81 100 92 93 75 92 75 95 80 79 92 97 95 84 63 63 77 75 94 96 97 95 96 96 96 98 97 94 96 94 94 96 96 96 98 96 95
69 62 70 74 87 81 72 76 77 92 95 86 65 82 57 90 90 85 57 54 80 96 96 96 96 97 97 95 92 94 95 96 97 95 95 96 96 95 93 95 96 96 97
95 92 81 82 87 86 88 78 80 74 69 66 66 69 66 60 64 57 61 58 72 79 49 52 40 45 54 71 82 80 93 94 91 93 86 86 94 94 96 95 93 93 96
97 99 97 98 88 78 75 63 64 68 65 64 67 66 48 62 61 64 65 57 37 30 27 26 24 24 28 41 67 73 77 89 88 91 96 93 96 91 91 92 95 96 92
97 98 96 95 94 88 88 84 66 60 58 56 73 80 66 68 63 60 43 31 23 20 16 14 13 13 13 16 20 49 70 73 82 99 98 90 97 94 90 98 92 88 84
94 91 92 94 86 80 71 66 54 43 46 53 62 74 78 66 57 38 26 24 24 23 19 15 13 12 11 11 18 34 50 52 65 76 93 82 94 96 89 90 79 90 93
88 82 94 93 92 72 67 50 42 43 44 43 52 67 61 62 48 32 26 26 27 26 22 17 13 10 10 13 23 51 63 65 74 82 88 89 81 94 98 94 96 97 94
70 66 58 88 76 58 59 56 53 40 44 49 68 42 54 40 24 24 28 28 28 26 14 10 10 14 21 24 33 42 55 61 82 82 79 77 96 97 97 95 95 96 96
46 37 40 45 53 46 45 54 36 32 28 25 23 23 25 20 24 29 28 27 19 11 18 44 65 66 55 50 63 76 80 87 82 88 100 90 80 92 97 95 98 98 98
52 51 44 51 52 41 29 30 37 34 28 53 36 22 18 24 30 30 28 12 11 15 29 39 51 42 30 22 22 23 26 35 43 68 92 83 93 99 95 100 98 97 100
50 40 55 50 55 51 31 27 26 25 23 26 20 19 25 29 29 22 9 10 12 15 16 16 19 23 25 27 29 33 34 30 26 28 34 49 78 83 89 100 100 98 100
51 64 60 50 31 31 31 27 28 25 22 21 23 25 28 38 15 10 10 10 11 12 15 19 22 24 30 33 34 38 37 39 43 45 44 38 38 38 47 98 100 100 100
75 48 55 67 38 27 23 23 24 29 39 43 36 34 33 15 15 15 12 13 13 15 18 19 18 20 23 22 30 39 36 38 48 50 43 32 34 37 41 46 78 100 100
79 50 42 36 51 47 39 46 47 32 25 23 25 26 16 20 20 17 16 17 17 19 23 20 16 19 22 26 34 40 35 39 52 50 46 48 43 38 48 54 81 100 100
84 81 72 79 60 35 36 46 40 68 44 32 31 25 27 25 23 24 22 23 22 23 22 20 16 21 24 34 36 37 40 43 58 63 60 61 52 52 57 63 69 84 100
92 96 81 77 76 79 93 86 54 45 48 50 40 36 35 30 29 29 32 29 28 28 24 19 18 29 37 36 30 46 47 50 57 61 66 66 63 61 62 62 65 68 99
100 100 100 94 92 88 82 75 69 68 84 76 52 44 39 36 35 36 37 36 33 30 28 25 27 39 44 41 32 44 52 55 62 62 67 67 76 73 76 85 80 84 94
98 95 95 96 98 100 92 92 88 90 96 79 65 58 54 51 54 50 47 42 36 31 28 38 52 54 45 42 34 40 55 59 64 62 77 72 79 82 78 76 88 99 97
83 90 98 95 94 92 94 98 98 100 97 89 90 92 73 63 55 48 39 36 37 42 51 55 52 48 42 45 43 48 50 50 53 59 74 76 85 86 72 71 77 93 99
71 70 78 78 79 85 95 98 93 87 83 77 69 62 57 54 51 47 50 56 57 56 54 49 45 48 51 52 52 58 53 55 56 60 76 84 90 88 95 97 100 100 99
67 66 65 68 70 69 68 70 73 76 78 78 76 74 70 66 65 65 62 61 57 57 61 60 60 60 62 60 61 60 57 62 69 67 70 90 92 92 91 100 92 100 100
76 76 70 63 68 72 74 74 74 74 74 75 74 73 73 73 72 70 68 69 68 67 66 66 68 68 69 66 66 66 76 88 88 90 82 87 95 97 100 86 99 100 100

GFSMW_500_rhum_108.txt.gz
RH
88 97 95 96 97 97 93 80 72 71 68 77 80 98 96 36 30 34 36 70 80 58 61 59 60 56 54 57 60 59 63 69 76 85 83 89 90 91 98 80 42 46 54
83 98 96 96 96 96 96 96 96 84 88 82 74 94 78 42 47 52 59 64 92 56 60 86 74 59 56 58 59 66 69 67 52 64 90 96 92 92 85 84 74 76 92
97 97 96 96 97 96 94 95 94 96 92 94 96 75 67 54 69 66 60 70 96 98 88 82 83 74 68 67 76 78 80 71 74 85 95 96 95 93 96 99 97 99 91
91 97 97 95 96 96 97 93 92 91 90 95 95 96 96 96 95 96 97 95 96 96 94 84 77 79 72 80 87 95 96 97 94 97 97 96 97 97 95 97 95 96 98
97 98 96 93 86 92 94 96 95 86 98 96 96 96 96 95 96 96 97 95 97 93 60 63 76 77 83 91 97 96 98 95 97 96 96 96 96 97 97 96 96 94 88
86 88 95 92 74 60 58 94 93 96 94 94 95 96 95 90 96 95 93 64 74 73 92 95 96 97 96 96 80 67 78 83 85 73 84 94 93 93 95 91 98 97 95
86 87 84 82 80 75 69 90 96 95 97 93 96 97 96 99 96 96 97 90 90 92 79 82 77 50 34 25 20 15 14 16 21 33 52 70 71 88 94 93 89 75 89
100 94 87 84 88 77 65 67 80 89 93 92 95 88 97 96 96 93 78 61 61 64 56 47 35 28 23 19 15 12 12 12 11 11 14 20 59 73 76 92 87 81 88
100 90 82 91 75 67 75 82 91 90 81 80 78 85 75 65 70 64 47 59 66 56 50 30 25 25 23 20 18 17 15 12 11 11 11 20 38 46 53 66 94 95 93
98 79 84 98 84 92 96 89 79 81 80 82 72 59 56 55 65 66 74 63 61 57 38 26 26 26 25 22 20 17 13 8 8 9 12 18 41 68 65 75 74 84 74
99 100 96 98 100 100 94 97 100 100 96 84 75 60 53 54 56 70 75 67 64 53 39 25 25 26 25 24 18 14 9 8 12 15 22 33 48 74 89 85 78 73 93
90 97 98 98 99 94 86 85 77 77 81 82 80 58 49 50 50 59 73 73 62 47 24 26 27 26 27 18 10 7 16 29 27 26 31 47 62 78 96 100 100 100 100
93 95 94 98 96 94 85 90 78 75 79 61 56 57 44 43 46 51 61 58 46 24 24 29 27 26 10 6 8 10 13 15 17 18 18 20 33 52 64 88 95 99 100
96 94 85 83 88 87 88 98 68 61 61 55 56 56 53 54 49 44 41 34 24 22 30 29 24 8 6 7 9 11 11 16 18 20 23 25 27 26 24 26 54 86 94
64 64 65 62 68 82 79 76 78 60 44 48 45 44 47 38 23 26 23 21 21 28 30 24 11 7 8 10 9 9 10 14 18 23 27 28 28 30 34 37 37 34 42
39 34 39 46 42 44 44 49 50 42 37 34 32 31 44 42 34 50 50 31 24 29 34 16 8 8 9 10 11 10 8 12 16 19 24 29 29 32 40 45 41 32 36
23 33 41 36 41 46 51 56 64 66 46 33 29 31 37 34 27 29 21 22 29 42 13 9 10 11 11 13 12 11 10 12 14 15 21 27 32 38 45 44 44 45 41
40 44 46 46 50 69 55 44 39 38 54 39 28 28 26 23 22 27 35 30 41 20 14 12 12 13 14 14 13 12 12 13 12 15 20 30 38 40 50 60 60 51 46
75 90 85 79 58 50 45 44 41 33 26 24 24 24 24 28 35 36 26 26 22 19 19 15 16 18 18 18 17 17 16 14 16 25 26 35 37 43 50 58 65 65 58
86 69 96 96 92 75 63 52 54 52 45 43 48 55 62 54 44 54 76 58 25 24 22 23 25 25 24 24 23 22 20 22 29 33 30 34 42 47 54 61 61 70 66
100 95 77 82 88 100 87 80 70 59 66 55 60 52 56 55 45 41 44 32 34 32 30 33 32 31 32 30 25 23 24 31 36 33 27 30 37 48 57 65 66 74 77
100 100 100 100 100 100 100 100 91 88 96 90 94 76 68 75 82 70 59 48 45 41 42 45 44 41 34 29 26 31 32 35 37 35 32 37 39 45 53 60 68 80 75
88 92 94 100 100 100 100 100 100 100 100 100 100 100 98 97 98 94 80 68 61 61 54 50 44 39 35 36 40 40 35 32 33 34 36 42 49 50 51 58 77 91 86
81 78 81 81 80 85 87 94 99 100 100 100 100 100 100 98 98 88 77 79 80 71 59 55 51 46 46 44 40 38 40 43 45 53 54 54 53 53 52 64 87 93 95
85 83 76 71 70 72 78 82 87 94 100 100 100 100 100 100 100 96 90 82 72 65 58 53 53 53 52 48 46 50 53 54 55 62 61 58 73 76 67 71 86 93 88
96 92 80 76 76 70 70 72 76 83 86 87 90 91 89 87 85 81 74 70 67 62 62 63 66 65 61 58 58 60 62 68 67 67 65 76 86 89 90 90 94 97 96

GFSMW_500_rhum_111.txt.gz
RH
90 97 97 96 95 92 81 77 94 97 96 80 89 83 89 75 62 48 37 28 26 27 31 35 40 44 48 49 50 49 47 50 61 68 65 57 55 65 76 74 78 80 69
84 95 96 96 92 83 74 79 64 89 90 97 97 96 82 67 60 48 37 29 28 24 26 41 47 43 48 53 56 49 48 56 64 69 70 75 79 87 86 80 86 96 90
64 90 91 82 87 78 72 80 63 65 86 96 97 90 88 72 62 49 29 26 34 40 57 76 63 66 78 93 78 70 72 92 88 94 96 98 94 89 96 95 94 88 90
62 84 94 89 96 96 93 96 97 73 76 79 91 95 89 94 86 77 40 32 40 72 74 93 97 96 97 88 86 94 95 94 97 97 97 95 96 96 96 96 97 90 96
69 83 89 86 97 96 96 97 96 89 96 94 96 94 95 96 96 94 95 94 94 93 95 97 97 84 87 95 97 96 96 95 93 90 75 41 33 37 49 66 89 92 96
62 71 83 88 92 97 95 97 96 96 96 96 96 97 96 96 96 98 99 96 97 96 95 96 96 94 97 97 92 95 85 59 17 12 11 10 10 9 11 17 42 87 81
70 70 95 93 96 95 98 97 95 96 96 96 96 96 96 97 96 98 97 97 97 96 94 97 97 95 95 54 35 32 24 21 17 14 12 10 9 8 8 9 11 18 53
82 76 85 90 97 95 98 97 96 95 93 96 96 97 96 96 96 95 97 96 97 97 97 95 87 69 48 34 29 27 25 23 19 16 12 11 9 7 6 8 10 12 18
75 78 83 77 96 88 94 97 94 92 92 96 96 96 95 96 98 96 96 97 96 92 66 65 57 54 47 41 34 26 23 23 21 17 13 10 8 7 7 7 9 11 22
90 88 88 86 77 87 84 86 78 74 73 66 86 95 95 95 95 95 96 94 93 61 49 53 57 53 46 36 26 24 23 24 21 14 10 7 9 14 17 22 28 34 34
90 84 88 85 81 85 79 75 73 74 72 66 67 74 74 82 89 93 95 89 63 60 66 69 63 58 49 30 25 23 23 26 14 7 5 5 6 7 8 10 14 26 50
98 96 92 87 73 85 82 77 74 72 70 69 64 56 64 77 96 82 69 60 55 50 64 70 68 59 42 24 24 22 25 16 7 4 4 4 5 6 9 12 14 16 19
98 93 99 99 91 82 82 81 82 92 92 94 95 90 85 84 89 82 75 59 49 45 51 64 64 50 31 23 26 24 22 6 4 5 5 5 6 8 12 17 20 21 21
97 97 98 99 100 99 98 100 99 93 86 82 78 74 76 77 75 72 66 48 45 46 53 58 56 35 22 26 30 21 7 5 6 6 7 7 7 7 8 11 16 19 24
66 86 93 94 91 96 96 92 90 89 88 76 69 68 67 64 65 60 56 49 52 52 40 30 25 24 22 28 22 9 7 7 8 10 11 10 9 10 10 10 12 17 25
66 53 60 73 80 91 82 83 92 91 96 89 70 54 48 43 44 44 47 46 43 31 27 34 42 24 24 33 17 10 8 10 10 12 12 12 12 11 11 12 12 18 28
54 63 71 76 79 79 75 69 64 66 68 69 64 54 46 37 39 40 43 44 38 30 35 39 32 20 33 32 15 11 10 12 13 13 13 14 14 13 14 14 16 22 29
32 36 36 38 39 46 54 53 50 52 67 64 50 45 43 41 35 32 32 35 35 31 27 24 22 23 34 34 17 12 12 14 15 15 15 17 18 18 18 20 24 24 31
24 19 20 21 18 24 31 31 34 39 45 48 48 49 52 52 46 33 30 28 26 24 26 37 40 33 21 23 19 16 14 16 18 19 20 19 19 20 20 22 23 22 24
48 63 58 48 49 57 54 45 42 39 38 44 46 47 45 42 45 37 28 26 25 26 30 28 32 37 30 25 23 21 20 22 23 24 26 23 22 21 21 23 30 30 28
66 70 70 72 60 79 84 81 76 63 57 48 48 56 60 43 31 33 37 42 49 49 45 53 63 49 35 34 31 28 26 28 31 31 27 25 24 22 23 24 22 25 40
76 85 78 76 76 72 75 78 87 91 83 82 61 64 69 58 63 63 64 65 66 64 56 56 64 62 45 40 39 38 39 40 36 32 29 28 25 25 25 23 23 30 45
91 89 94 100 100 100 89 89 95 95 99 93 85 82 82 87 96 89 72 72 80 92 90 95 85 63 58 57 65 70 60 52 41 36 33 28 26 27 24 25 36 44 47
88 90 90 88 83 85 90 95 99 99 100 100 100 100 100 100 100 100 100 100 100 100 99 100 98 98 91 83 72 60 51 42 39 39 36 29 32 34 34 40 50 59 66
72 72 78 82 85 88 86 85 86 89 96 100 100 100 99 99 100 100 100 100 100 100 100 96 97 91 87 81 69 56 53 45 44 44 39 40 43 44 51 56 63 75 82
84 86 93 96 93 85 83 78 73 76 85 92 97 98 99 100 100 100 100 100 100 100 100 100 99 93 80 68 60 61 59 56 52 54 53 50 55 57 64 71 73 78 87

GFSMW_500_rhum_114.txt.gz
RH
86 91 92 96 96 97 95 93 96 87 73 69 82 89 77 67 63 64 64 62 57 52 48 44 39 36 32 30 27 24 25 44 47 41 43 52 61 60 60 58 58 65 78
88 94 96 93 96 95 97 96 96 96 96 85 86 92 91 91 94 79 73 68 58 50 41 35 30 27 24 24 32 34 42 52 44 44 55 57 68 68 77 77 71 81 74
82 94 92 93 96 96 96 96 95 93 98 100 93 94 89 92 93 88 81 61 48 39 33 32 26 26 35 49 41 46 58 61 69 83 92 90 84 94 89 85 96 96 88
74 88 88 96 96 95 96 97 99 94 88 96 96 96 97 83 92 94 79 66 52 45 40 28 28 57 77 70 68 88 91 88 90 96 95 84 92 75 37 18 56 42 18
67 71 93 96 95 96 96 97 95 90 98 96 95 97 91 87 96 97 92 85 66 61 51 58 60 93 95 96 96 97 97 97 94 88 74 26 29 24 12 9 8 7 8
48 71 83 96 96 96 96 96 97 97 91 82 75 97 98 94 94 99 95 93 86 90 94 94 94 96 97 97 97 96 73 88 76 72 39 20 16 13 9 8 7 7 6
44 61 62 82 97 96 96 97 95 97 97 99 95 88 94 96 96 96 96 95 94 93 96 95 97 97 97 97 95 77 34 31 27 25 22 17 15 12 10 9 7 6 6
36 53 66 90 97 96 94 96 96 97 97 96 96 96 96 94 97 97 96 96 97 93 95 97 97 96 96 98 68 44 34 31 28 24 22 18 15 15 11 9 8 5 4
40 68 73 91 97 99 96 97 96 97 96 95 96 96 96 97 95 96 96 96 97 96 97 97 96 95 93 87 61 47 40 38 31 26 22 19 17 15 12 11 7 4 4
49 61 59 79 90 95 96 97 96 96 96 96 97 96 96 96 96 96 96 96 97 97 97 94 96 92 78 66 56 51 46 32 26 22 23 22 15 10 5 4 4 4 4
73 57 70 89 84 91 98 97 95 96 99 96 92 93 93 91 91 96 96 96 95 96 97 94 94 94 90 72 61 59 49 27 23 22 24 19 7 4 4 4 4 4 4
96 86 79 87 85 83 90 95 99 97 96 90 80 84 95 90 96 94 99 95 96 93 86 79 78 74 80 75 69 60 44 23 26 26 27 9 5 5 5 6 7 7 6
92 76 68 73 79 72 79 86 96 95 93 90 87 92 95 94 93 92 91 92 96 93 90 84 62 56 64 74 71 51 43 25 25 29 20 6 5 6 9 9 9 9 9
98 100 93 74 82 83 89 92 94 93 93 89 88 96 94 93 93 94 94 96 97 98 91 80 58 47 50 55 60 55 34 22 29 29 13 7 7 9 12 12 11 11 13
99 98 100 96 100 99 100 99 92 90 77 98 97 95 92 91 94 99 97 96 92 86 76 69 50 52 53 48 46 28 28 28 27 31 10 8 9 10 12 13 14 16 18
54 93 97 98 97 99 99 96 95 100 100 99 100 96 90 87 89 83 86 80 68 67 63 56 50 50 40 28 28 35 39 24 30 27 10 10 11 13 14 14 15 18 20
51 53 63 74 92 99 96 98 99 97 96 99 98 95 92 90 78 56 50 50 46 46 45 42 40 38 31 28 35 40 29 22 37 24 14 12 13 14 15 16 17 19 20
52 49 50 49 45 53 54 51 55 63 67 67 74 79 76 79 75 59 53 47 43 41 41 40 41 40 36 34 31 24 21 23 31 27 18 15 14 16 18 19 21 23 22
22 29 38 41 45 48 52 54 61 66 57 52 51 50 54 56 58 56 52 48 51 47 37 32 30 30 30 27 25 33 34 25 24 26 22 22 20 21 22 25 27 26 24
16 15 20 22 21 22 24 23 26 34 40 42 47 52 53 55 56 58 65 73 70 58 52 37 29 28 27 28 30 32 37 40 41 32 27 27 27 26 26 33 32 31 26
46 45 42 33 24 22 20 18 16 21 38 39 39 39 41 46 52 49 44 38 33 28 28 29 30 39 39 40 42 52 57 56 45 36 33 36 34 35 39 38 34 28 20
42 46 44 45 50 51 39 32 36 32 44 51 59 60 60 56 52 48 52 58 58 46 36 39 56 65 64 60 55 50 58 76 76 57 44 44 50 55 47 37 28 23 20
50 54 56 58 64 68 78 74 65 54 61 66 70 70 72 77 68 62 68 73 70 64 65 67 69 71 70 73 75 76 86 83 75 65 59 67 62 51 36 30 28 26 22
50 60 66 65 68 77 85 88 97 100 98 89 88 84 82 84 89 86 81 77 78 80 85 89 96 88 87 90 82 83 81 97 91 77 67 60 48 42 38 35 34 33 32
51 56 55 55 64 70 74 79 84 89 92 94 98 98 97 98 100 100 100 100 100 100 100 100 98 100 100 96 87 79 82 81 78 77 71 54 48 46 42 42 45 46 42
47 53 59 69 74 77 78 78 82 81 80 85 87 95 99 100 100 100 100 99 100 99 100 100 99 100 99 94 93 98 97 89 78 66 57 54 53 54 53 55 53 52 54

GFSMW_500_rhum_117.txt.gz
RH
100 92 82 88 67 95 96 96 96 96 95 94 91 85 86 85 76 67 60 56 51 47 46 40 39 36 32 29 27 25 24 24 23 28 47 50 42 44 52 56 57 64 68
95 76 88 70 68 92 96 96 94 95 95 94 92 96 94 90 81 69 60 54 51 46 42 40 38 36 37 38 33 30 30 32 44 52 51 45 49 54 75 79 79 59 66
98 92 92 75 72 92 93 95 96 96 99 95 93 90 91 88 83 74 64 55 50 48 50 51 51 50 44 37 32 32 43 45 49 51 66 79 84 88 88 62 39 27 14
100 100 91 78 53 89 92 97 97 96 96 92 83 90 88 88 80 67 58 56 71 81 67 64 55 45 39 29 30 54 68 74 86 96 92 89 61 35 31 32 27 14 8
99 96 71 64 74 94 97 96 96 95 96 91 83 93 92 92 85 84 75 82 93 94 79 63 47 41 38 38 56 87 94 96 98 97 81 80 71 49 28 15 13 12 9
97 78 65 48 87 94 96 97 97 97 96 96 95 93 95 96 94 92 89 91 97 94 75 59 55 64 69 83 91 98 98 97 94 78 35 25 26 22 20 12 11 11 9
97 56 72 80 96 95 96 98 96 96 97 97 96 100 91 90 88 97 94 96 94 91 81 74 78 87 90 90 97 97 96 94 77 48 26 25 26 25 18 11 9 9 8
83 58 82 94 95 95 96 96 97 95 97 96 96 96 92 90 95 97 96 96 91 89 83 85 84 96 93 94 97 97 93 94 93 84 38 28 26 21 15 16 10 9 6
55 52 76 79 78 93 97 96 96 96 96 97 96 96 99 98 96 97 96 96 96 96 94 88 96 96 96 97 97 95 91 74 43 38 31 31 27 24 21 13 10 9 7
35 49 79 81 89 86 92 97 96 96 96 96 96 96 96 97 97 97 96 96 97 97 95 95 97 96 96 96 96 95 91 88 63 52 39 33 35 28 18 13 11 7 5
34 56 58 67 87 87 94 96 97 99 97 96 97 96 96 97 96 97 96 96 97 97 97 96 96 97 97 97 96 92 93 87 66 57 43 32 35 28 21 12 6 5 6
44 40 41 49 73 79 97 94 96 96 97 97 98 95 94 97 96 93 98 96 96 96 97 98 96 96 96 92 90 92 90 82 71 54 42 30 30 32 27 14 7 6 8
29 40 47 59 78 81 92 95 94 96 96 97 95 95 94 94 90 90 93 97 95 97 96 97 96 94 97 95 92 84 81 78 70 52 47 24 30 32 28 14 8 7 10
96 52 45 61 75 74 94 96 83 91 96 96 95 98 96 92 93 95 96 92 91 93 94 85 83 88 88 87 69 54 57 68 68 62 34 25 33 32 32 20 10 8 10
99 92 99 93 88 100 95 88 88 89 93 97 94 88 90 87 86 94 97 97 96 95 92 84 79 74 73 70 53 48 50 53 50 40 28 43 35 28 30 25 12 9 12
98 98 98 97 98 97 91 89 94 91 91 95 90 88 89 89 77 79 88 94 95 92 83 73 67 62 70 70 58 53 51 46 32 30 36 42 34 26 32 27 13 10 12
78 90 96 96 97 100 99 97 95 97 96 96 97 94 95 100 97 85 92 95 87 79 74 70 66 65 63 55 49 43 40 36 30 31 37 38 26 26 34 35 21 14 14
43 49 60 53 79 97 95 97 95 97 97 99 100 100 99 99 100 99 97 94 82 66 62 52 48 45 42 41 39 36 35 36 35 34 35 27 22 26 34 36 25 19 18
25 31 26 32 31 36 70 77 63 65 74 60 62 74 78 71 76 82 88 92 87 71 62 54 47 42 39 36 34 33 30 29 30 28 24 27 40 39 35 37 30 25 24
21 21 17 30 34 34 37 41 43 40 44 46 46 45 42 42 46 49 46 45 46 54 59 59 53 46 44 43 41 36 32 30 28 26 26 31 37 49 52 39 32 35 36
22 22 21 21 19 19 21 22 23 23 26 27 30 38 47 51 52 53 51 48 46 51 52 50 55 60 59 53 45 36 30 30 31 33 38 50 52 53 63 56 48 46 54
22 23 27 32 36 38 40 43 40 36 27 27 25 22 24 29 40 42 44 45 44 46 47 48 43 40 39 33 30 33 46 58 62 61 61 57 60 78 75 69 66 68 61
21 28 30 27 27 30 39 43 46 56 68 68 60 67 78 76 81 76 72 71 63 55 52 52 54 61 62 56 58 62 65 70 72 72 79 87 83 78 89 90 81 66 50
19 22 24 29 34 36 39 42 53 62 66 75 91 92 82 85 94 94 98 100 100 94 78 80 90 94 94 92 93 92 88 83 85 88 100 99 88 87 91 76 71 58 42
6 6 8 17 27 35 40 44 56 69 77 84 90 94 100 100 100 99 100 99 99 100 100 100 100 100 100 100 99 100 100 100 97 100 100 100 98 94 87 80 63 54 46
8 8 8 8 8 10 19 34 47 62 76 85 96 100 100 100 100 100 100 100 100 100 100 100 100 100 100 100 100 100 100 100 93 92 99 100 93 88 76 67 64 59 50

GFSMW_500_rhum_120.txt.gz
RH
29 30 26 68 43 29 96 97 98 93 84 94 94 90 86 80 76 74 69 64 56 47 43 41 34 30 24 23 24 28 28 28 24 23 23 24 27 38 45 49 50 54 63
40 38 43 25 34 35 96 100 95 96 94 95 96 96 93 83 82 77 71 65 60 53 49 37 32 31 29 33 36 32 30 29 28 28 30 36 44 48 52 70 69 47 25
39 54 46 47 49 46 88 97 97 96 97 96 96 94 92 84 82 78 76 71 72 59 52 46 37 37 40 39 35 34 37 37 32 34 38 47 60 60 74 57 41 31 29
41 50 36 100 60 72 89 99 96 96 96 97 97 96 91 80 82 88 84 85 78 64 55 47 44 46 40 40 43 46 44 34 40 48 71 84 85 77 58 34 20 12 10
56 38 60 99 99 63 87 96 96 96 96 97 95 95 97 96 95 95 95 94 72 60 47 61 90 44 62 56 50 46 38 49 66 67 90 96 94 73 37 25 21 12 8
57 42 35 99 63 82 82 96 97 97 96 97 97 98 97 95 93 94 92 87 80 66 74 84 57 56 91 62 54 45 49 74 93 96 99 93 28 27 23 22 17 10 8
29 56 73 98 61 80 77 87 96 94 96 93 96 96 94 96 96 97 91 86 73 68 81 81 65 92 93 71 59 62 93 95 97 96 96 85 45 47 37 25 15 12 11
40 42 85 84 67 66 83 93 92 98 97 96 96 96 97 97 97 95 94 83 80 80 85 69 82 93 86 90 90 96 96 98 97 95 84 54 53 36 28 21 17 16 11
49 56 80 97 74 86 94 95 96 94 95 95 96 96 96 97 94 97 98 95 97 93 94 87 93 96 95 95 95 96 96 97 97 96 81 52 35 37 34 32 24 16 12
66 75 85 92 82 97 96 96 96 96 96 96 96 95 96 96 96 97 96 97 97 95 94 94 99 96 94 95 95 95 96 97 96 93 88 84 62 41 38 37 22 16 14
54 55 72 79 96 92 92 96 97 96 96 96 96 97 96 96 97 95 97 96 97 97 97 98 96 94 94 98 97 96 98 97 95 86 77 69 54 43 38 37 29 21 16
48 61 65 85 95 96 96 98 94 96 95 96 96 96 97 96 96 97 97 96 97 96 98 96 96 96 96 97 93 97 97 96 92 76 67 66 59 50 41 34 31 21 18
70 86 93 97 97 96 95 97 93 94 96 97 98 97 96 97 96 96 97 95 96 97 97 96 96 97 97 97 97 96 96 84 76 74 72 72 65 51 47 30 32 24 20
53 71 93 80 96 93 93 96 96 96 96 97 97 94 96 96 95 96 97 89 96 96 97 95 97 97 97 96 93 90 90 81 71 65 63 68 68 54 42 32 35 29 25
86 69 74 71 80 82 79 76 91 95 95 95 94 89 93 92 86 85 88 90 93 79 84 81 87 92 96 97 92 94 94 94 84 58 53 55 53 52 33 33 41 32 25
100 96 85 64 60 64 68 72 80 90 97 91 84 76 80 75 68 83 100 89 85 82 76 92 95 93 82 78 74 82 78 72 57 48 50 53 50 35 30 32 36 32 23
93 97 99 98 100 100 100 98 98 90 88 90 84 90 82 70 72 84 84 95 95 91 98 99 97 87 77 81 74 65 68 69 62 53 52 44 35 31 30 31 30 28 21
56 73 90 95 95 93 93 96 100 100 100 96 95 99 99 97 93 93 99 98 100 96 97 98 96 94 89 78 66 59 60 52 48 44 38 37 34 34 32 31 30 25 27
12 14 12 23 35 41 46 35 39 66 95 97 96 98 100 96 94 100 98 99 100 100 98 97 100 87 65 61 54 48 45 41 39 36 34 34 32 30 29 26 25 27 36
15 14 17 16 20 26 28 26 39 43 30 20 28 29 34 77 89 82 92 91 75 74 79 87 94 94 86 70 60 57 51 48 46 43 38 34 33 31 29 28 28 29 44
18 15 14 13 12 14 15 17 23 26 31 37 38 35 41 48 49 49 55 62 58 53 53 58 56 57 70 69 67 64 58 57 59 62 57 48 40 35 33 34 38 46 53
16 14 16 19 22 20 19 23 26 28 26 24 22 24 26 28 32 43 53 59 62 71 75 81 70 65 56 53 51 48 48 46 40 38 32 30 33 40 52 60 62 60 60
6 7 8 12 18 19 19 25 30 31 31 32 39 38 36 38 30 29 30 30 33 44 54 53 52 50 48 48 48 47 44 48 52 49 40 46 57 63 66 71 72 79 75
10 9 8 8 7 7 8 8 11 24 38 45 53 60 60 61 65 69 74 71 68 76 84 85 87 80 70 62 63 68 64 67 72 72 74 79 83 84 80 74 81 80 78
15 15 15 13 10 9 8 10 12 11 9 9 20 46 68 87 92 96 96 96 89 88 91 99 99 96 92 94 87 79 82 89 95 89 88 84 90 100 94 86 90 86 91
20 18 16 16 14 12 10 10 11 14 20 19 14 10 14 43 81 90 96 100 99 92 100 100 98 100 100 100 100 100 100 100 100 99 98 97 100 100 94 92 96 98 94

GFSMW_500_rhum_123.txt.gz
RH
4 7 9 7 4 3 2 2 17 97 98 92 60 76 95 93 94 86 79 75 64 57 56 53 45 36 36 28 25 23 23 24 21 21 26 26 24 26 26 28 33 38 44
22 23 25 14 6 4 5 2 42 89 91 98 68 85 95 97 97 96 89 77 66 62 58 53 42 42 31 29 25 24 24 25 26 30 28 28 30 28 30 42 46 50 58
45 46 37 27 21 9 21 14 56 92 69 96 87 82 96 97 95 92 87 77 68 66 60 52 45 36 29 25 26 25 26 39 34 30 33 32 31 39 47 74 66 52 34
43 41 43 37 23 10 30 38 42 99 96 96 97 83 98 87 92 92 88 79 73 69 63 58 46 54 34 31 30 33 41 56 38 35 35 35 44 55 81 76 58 23 18
83 68 59 46 32 24 49 44 21 91 97 96 97 95 97 97 96 96 96 94 90 81 70 60 66 60 36 39 37 42 65 46 43 41 38 52 54 87 90 88 29 21 16
80 51 46 74 41 91 78 33 53 97 94 98 95 96 93 98 94 96 95 95 95 91 87 86 87 56 46 45 41 90 69 71 68 41 46 70 94 89 90 58 31 21 14
93 79 69 57 47 70 91 66 70 98 97 97 96 97 97 98 100 98 96 98 95 90 93 95 94 62 49 47 73 92 50 91 89 65 66 94 93 91 59 32 26 23 16
54 49 55 43 46 51 53 74 96 95 95 93 96 97 97 97 97 96 96 96 96 96 96 96 91 57 66 68 89 64 52 96 96 97 94 96 84 82 30 49 38 25 18
61 51 59 41 31 95 90 96 98 96 96 96 97 98 96 96 97 95 96 95 95 96 93 95 65 62 51 74 90 68 74 97 94 96 96 90 98 87 50 44 41 32 23
82 59 33 66 99 100 98 98 99 97 94 97 96 97 97 97 96 96 97 98 97 92 96 94 71 62 55 84 95 95 96 96 94 96 96 98 94 67 66 48 54 37 30
80 48 26 84 94 99 97 98 97 93 95 96 96 95 96 97 97 96 97 97 96 96 96 96 68 62 63 95 97 93 91 97 96 96 97 97 94 82 58 53 41 39 37
79 75 62 95 98 95 96 96 97 97 96 98 95 96 96 97 97 97 97 96 95 95 96 92 94 95 95 94 95 97 93 96 95 97 97 98 96 86 72 55 48 43 41
74 96 88 95 96 95 97 96 95 93 97 95 97 97 97 97 96 97 97 96 97 98 96 98 96 93 97 98 97 96 94 96 97 97 96 96 88 70 62 59 52 47 46
96 97 96 99 97 97 96 98 90 97 95 97 97 97 96 97 95 97 97 97 96 96 96 96 97 97 96 97 98 98 96 97 97 97 96 94 95 87 70 65 59 54 50
97 99 98 94 96 94 96 95 93 91 98 97 97 94 93 93 91 94 96 96 95 95 96 97 97 96 96 97 97 96 98 97 97 88 89 95 94 94 79 66 60 59 56
97 93 92 96 90 87 77 79 76 88 81 83 88 77 83 79 76 64 59 75 68 62 62 67 69 75 70 98 96 93 94 96 96 95 93 92 93 90 80 68 62 60 53
97 96 88 85 85 96 84 92 82 96 98 86 77 86 86 84 79 82 92 80 87 88 80 79 70 86 98 99 94 79 70 86 92 87 87 77 72 63 54 53 53 53 38
96 96 98 97 97 98 99 96 95 94 96 96 96 88 92 99 100 96 99 100 100 99 97 97 98 97 98 95 84 81 72 94 88 80 70 70 75 67 58 54 48 38 36
22 21 25 59 90 91 88 65 72 48 38 32 34 58 81 94 97 94 90 85 90 87 77 90 94 98 98 99 98 98 100 98 96 89 79 68 59 54 47 43 38 36 32
10 11 12 9 8 7 10 12 15 21 30 33 33 46 59 80 70 77 65 72 79 96 98 100 99 99 98 100 97 98 93 88 81 81 67 58 51 44 45 41 40 36 35
5 6 6 6 6 8 10 13 18 22 25 32 39 49 65 53 56 72 61 72 71 73 74 89 93 94 93 92 81 64 83 83 82 76 74 78 70 67 58 55 56 53 46
8 8 7 7 7 7 7 7 7 9 13 16 18 20 23 26 33 42 54 66 78 89 98 98 99 100 94 95 80 89 90 91 92 88 78 72 67 64 60 52 44 35 35
15 14 14 14 13 12 11 10 9 9 9 8 8 10 20 26 27 31 30 28 32 36 41 57 76 95 100 99 100 100 100 93 75 59 53 50 47 44 40 39 40 40 43
17 14 15 17 17 17 17 17 16 13 12 11 12 12 13 12 11 14 41 57 60 58 63 64 66 68 74 77 75 68 62 59 56 55 52 51 49 48 59 62 58 60 63
17 17 18 18 17 16 20 20 20 20 17 16 16 15 19 24 29 26 18 12 15 52 84 100 100 94 95 99 100 100 99 96 91 85 74 70 78 85 91 92 90 88 86
12 13 13 12 13 17 20 22 23 25 23 21 19 20 23 27 32 36 38 32 18 12 26 70 94 100 100 100 100 100 100 100 100 100 99 99 98 100 100 100 97 90 93